GFSSE_700_spd_000.txt.gz
Wind_Speed
13 14 15 15 15 14 11 8 6 6 5 3 3 3 2 3 2 3 4 4 6 4 5 5 5 7 9 10 11 11 12 13 14 13 13 12 11 11 9 9 9 10 11
13 13 14 15 16 15 12 9 8 5 2 1 2 3 3 2 3 4 5 5 5 4 7 7 7 9 10 11 11 11 12 12 12 12 12 13 12 11 10 11 10 10 9
13 13 14 15 16 16 12 9 8 7 4 2 1 2 2 3 4 5 5 5 5 7 7 9 9 9 10 11 11 11 12 12 12 12 13 13 13 11 12 12 11 11 10
13 15 16 16 16 16 14 9 7 6 4 3 1 1 3 5 5 5 6 7 7 9 9 10 10 10 11 12 12 12 12 12 13 12 12 13 13 12 13 14 14 12 10
12 14 15 16 16 15 14 11 7 5 4 3 1 1 4 5 6 6 8 10 10 10 10 12 12 13 13 14 14 13 13 13 14 13 13 14 14 15 16 16 16 15 14
10 11 13 14 15 14 13 12 10 7 5 4 3 3 4 5 7 8 10 10 12 12 12 14 15 15 15 16 15 14 15 14 15 15 15 16 17 17 17 18 18 18 17
8 9 10 12 13 14 14 12 11 10 8 6 5 5 5 7 8 10 11 12 14 14 15 16 16 17 16 17 16 16 16 16 18 17 18 17 18 19 20 20 21 21 21
7 7 8 10 11 12 13 12 11 10 9 8 6 5 6 8 10 11 12 13 14 15 16 17 17 18 17 18 17 18 18 18 20 20 20 21 21 22 23 23 24 24 24
8 8 8 9 10 10 12 13 12 11 10 9 8 7 7 6 7 9 11 12 13 13 15 16 16 17 18 18 19 20 20 20 20 23 23 23 25 25 25 26 26 27 26
9 9 9 9 10 12 13 14 13 13 12 11 9 9 9 7 7 8 10 9 11 12 14 15 17 17 17 18 19 20 21 21 23 24 24 25 26 28 28 28 28 28 28
11 11 11 11 12 14 15 15 15 15 14 13 12 11 10 9 8 9 10 11 13 14 16 18 19 18 19 20 21 21 21 22 23 25 25 26 28 29 30 30 31 31 31
15 14 14 14 15 16 17 18 16 16 16 15 13 11 11 10 10 10 12 13 14 16 17 19 20 22 22 22 23 23 24 25 26 27 27 27 28 30 31 32 33 33 34
15 16 17 18 19 19 18 19 18 18 17 15 13 13 11 11 11 12 13 14 16 17 18 20 22 22 23 23 23 24 25 27 28 30 31 31 32 32 33 34 35 35 35
15 18 20 21 20 19 17 17 18 17 16 16 15 15 15 14 14 14 16 17 19 21 23 24 25 26 27 27 27 27 28 29 30 31 32 32 33 36 37 38 37 37 38
18 20 20 18 16 16 15 17 17 14 14 15 17 18 18 19 20 20 21 23 24 26 28 29 30 30 31 32 33 33 34 35 36 38 38 38 38 39 41 40 41 41 42
19 20 19 17 16 18 18 19 18 16 14 15 17 18 19 21 23 24 25 26 28 30 32 34 35 36 36 37 37 38 38 40 40 41 42 41 41 40 41 44 45 44 43
20 21 20 20 20 21 22 22 21 19 17 17 18 19 20 21 22 22 23 25 27 29 31 33 35 36 37 37 38 37 38 38 39 40 42 43 44 43 42 44 45 46 47
19 19 20 21 19 18 20 22 22 20 19 19 19 18 19 20 20 22 23 25 27 28 29 29 31 31 33 35 37 37 39 40 40 41 42 43 45 46 46 46 47 50 52
16 17 19 17 13 12 13 16 18 18 17 17 17 17 18 19 21 22 24 25 26 27 29 29 30 32 32 34 37 37 39 40 41 42 41 42 43 44 44 47 48 50 52
16 16 12 10 10 10 11 11 13 13 13 14 15 18 20 21 22 23 24 25 26 28 30 32 33 34 37 40 42 44 43 44 44 44 45 45 45 44 45 46 46 48 48
10 9 7 6 6 7 9 10 12 12 14 16 18 20 21 22 23 24 25 27 29 30 32 35 37 39 40 43 46 47 47 48 48 50 50 49 49 50 49 49 42 47 46
7 6 5 5 7 8 10 12 13 15 17 18 19 19 20 21 23 25 27 30 32 34 37 39 42 44 44 45 50 52 55 54 52 52 52 53 52 51 51 47 42 42 46
7 6 6 8 10 11 12 11 13 14 15 15 16 18 20 23 26 28 30 33 36 39 41 44 46 47 49 47 46 49 54 57 59 56 54 54 53 52 54 54 54 54 55
8 7 8 9 10 11 13 14 14 13 13 15 18 20 23 25 28 30 34 37 40 42 43 44 44 44 44 46 46 44 44 48 54 62 57 56 54 54 55 56 56 56 55
8 7 6 8 11 13 13 11 10 12 14 17 20 23 25 28 30 33 36 36 38 39 38 38 39 40 42 43 44 46 46 47 48 53 64 60 58 57 58 58 57 55 52
8 6 7 11 14 13 12 10 11 15 18 20 22 24 26 27 29 32 35 38 38 37 37 39 41 41 41 42 43 45 47 50 53 55 60 62 63 62 61 60 59 57 51

GFSSE_700_spd_003.txt.gz
Wind_Speed
12 14 14 15 16 16 14 12 11 10 8 6 6 6 5 6 5 5 4 4 6 6 5 7 8 9 10 11 12 12 14 15 16 15 15 16 15 14 14 14 13 13 14
12 13 14 14 15 15 14 11 11 10 7 5 5 4 5 6 6 6 6 6 7 8 8 9 9 9 11 12 13 14 15 17 16 16 16 16 15 13 13 14 13 13 14
11 12 13 14 15 15 15 11 10 8 6 4 4 3 5 5 6 7 7 8 8 9 9 10 11 12 14 15 14 15 16 17 17 17 16 16 16 14 14 14 15 15 14
10 12 13 14 14 14 13 11 9 8 6 5 4 4 5 5 7 7 8 8 9 9 11 12 13 15 16 15 16 16 16 18 19 17 17 17 17 16 16 16 17 17 15
9 10 12 13 13 13 13 13 12 9 7 6 5 5 5 7 9 9 10 11 11 12 12 14 15 16 17 17 18 18 17 19 20 18 18 18 18 20 19 18 19 19 20
9 10 11 11 11 11 11 11 11 10 9 8 7 7 7 9 10 11 12 13 13 14 15 16 17 17 18 20 20 21 19 21 21 19 20 19 20 21 20 21 21 21 22
8 9 10 11 11 10 10 10 10 10 10 10 8 8 10 10 11 13 14 14 15 15 16 17 17 19 20 21 22 22 21 21 22 21 22 22 22 22 22 22 23 24 24
7 9 10 12 12 12 12 12 11 11 11 12 11 11 10 10 12 14 15 15 16 17 18 19 19 19 20 20 21 22 22 21 22 23 23 24 24 24 25 25 25 26 26
8 10 10 13 13 14 15 14 13 13 13 13 13 13 12 11 11 12 14 15 17 18 18 19 18 18 19 19 22 22 23 23 23 24 24 25 25 26 27 27 28 28 29
11 12 12 15 15 16 18 18 18 16 16 16 15 15 15 14 14 14 14 14 15 16 16 18 17 19 19 22 24 25 25 25 25 25 27 27 27 28 29 30 30 31 32
13 15 16 16 18 19 22 21 20 20 19 19 17 16 17 17 16 16 16 16 16 16 18 19 21 22 23 25 25 27 28 28 28 28 28 29 29 29 30 31 33 33 34
16 17 18 18 19 20 22 22 20 20 19 20 18 17 17 17 17 17 18 18 19 19 19 20 20 21 22 23 24 24 24 26 26 27 28 28 30 32 32 32 33 34 35
15 16 18 19 21 22 22 20 20 20 20 19 18 18 19 18 18 17 19 19 20 20 21 21 23 23 24 25 26 27 28 29 30 30 30 30 30 32 34 35 35 36 37
16 17 19 20 22 21 19 18 19 20 18 17 18 18 20 20 21 20 21 22 24 25 26 26 27 29 30 31 31 32 32 33 34 35 35 34 34 34 35 39 39 39 39
18 19 22 21 21 18 18 19 21 21 19 18 19 19 19 21 22 22 23 25 27 28 29 30 31 32 33 35 35 36 36 37 38 39 40 39 40 39 38 38 41 42 41
24 24 23 21 19 18 21 23 23 21 21 20 21 20 19 20 22 23 24 26 27 28 29 30 31 32 34 34 35 35 36 36 37 39 41 42 41 41 40 40 42 44 45
29 26 23 22 19 21 24 26 25 22 21 20 21 20 20 21 22 23 25 26 27 28 29 30 31 32 33 35 35 34 35 36 37 38 40 41 42 44 44 43 43 45 47
27 23 22 21 21 22 22 23 23 21 21 20 21 21 20 22 23 24 26 28 29 30 31 31 33 34 35 36 37 37 37 38 39 40 42 43 46 45 46 47 46 45 45
20 19 19 19 19 17 17 18 18 19 19 19 21 22 21 22 24 26 28 29 30 31 32 34 36 37 38 39 40 42 42 42 42 43 44 44 45 45 39 46 44 45 45
16 16 17 17 13 12 11 12 14 16 18 19 21 22 23 25 26 27 29 30 31 33 35 37 38 39 41 43 44 44 43 43 43 43 42 46 43 43 42 48 47 45 48
15 15 11 8 7 8 9 11 13 15 17 20 22 23 24 25 27 28 30 32 33 36 38 40 43 43 42 44 46 46 46 45 43 43 44 45 46 46 46 45 38 32 37
12 10 7 6 6 8 10 12 14 17 19 21 22 23 24 26 27 29 32 34 36 38 40 41 42 43 43 43 44 46 49 48 46 44 45 45 47 47 46 43 45 49 52
10 8 7 6 8 10 11 13 16 18 18 19 19 21 23 26 29 32 35 37 38 38 39 40 41 40 40 40 40 43 48 51 53 49 48 47 47 47 49 50 50 51 52
10 8 7 8 8 9 11 14 15 15 15 17 19 23 26 30 32 33 34 34 36 38 38 37 37 38 40 42 43 41 41 43 49 56 51 49 49 49 51 53 53 53 53
11 9 8 7 7 8 10 11 12 13 15 19 23 27 30 31 30 28 30 32 32 33 35 37 37 38 39 40 41 43 43 44 44 49 58 58 58 59 59 61 63 62 59
13 12 10 7 8 11 12 12 12 15 19 23 26 29 28 26 28 30 33 35 35 35 36 37 38 38 39 39 39 40 43 47 51 55 60 63 66 66 66 66 64 62 58

GFSSE_700_spd_006.txt.gz
Wind_Speed
10 12 14 14 14 14 13 12 11 12 10 7 5 6 7 7 8 8 8 7 6 6 6 7 7 8 10 12 13 14 14 16 16 16 17 17 16 16 15 15 16 14 14
11 12 14 14 14 14 14 12 11 12 11 8 5 5 5 7 9 8 8 7 7 7 8 9 8 11 11 13 13 14 16 17 17 17 16 18 18 17 16 17 16 14 13
9 10 12 13 14 14 14 13 12 10 9 9 6 5 5 6 7 8 9 7 8 8 9 10 10 12 12 13 15 15 17 18 19 19 17 19 18 19 18 18 18 17 14
8 9 11 13 14 14 13 12 12 11 9 9 8 7 6 6 7 8 10 8 8 9 10 11 11 14 13 15 16 17 19 19 20 21 19 20 19 17 19 18 19 20 20
8 9 11 12 14 14 14 13 13 12 11 10 9 9 8 8 8 9 10 10 11 11 12 14 14 15 16 17 18 19 20 20 21 22 21 20 19 21 19 20 20 20 21
7 8 11 13 14 15 16 15 14 14 13 12 11 10 10 10 12 12 12 12 13 14 14 15 17 17 18 19 18 20 20 20 21 23 22 21 21 22 20 23 21 22 23
8 8 10 12 13 15 16 16 17 16 14 13 13 12 12 11 13 14 15 14 15 16 17 17 19 19 20 21 21 20 21 21 21 23 23 22 21 21 22 22 23 23 25
9 8 10 12 14 15 16 18 18 18 17 16 15 14 14 14 14 15 15 16 17 18 19 19 20 20 21 20 20 20 20 20 20 22 23 25 24 24 24 24 25 26 26
11 12 11 14 15 15 16 19 21 20 19 18 18 17 15 16 16 16 16 17 17 17 18 18 18 19 19 19 20 21 21 22 21 22 22 23 24 24 25 25 26 27 28
13 13 13 15 16 16 17 20 21 22 21 20 19 19 17 16 16 16 16 17 17 18 18 18 18 19 19 20 20 20 20 21 21 21 21 22 23 23 23 24 26 26 28
13 14 17 18 16 16 17 20 21 21 20 21 19 18 18 16 16 15 15 14 15 15 16 16 17 17 17 18 19 20 20 20 21 21 21 20 21 23 24 24 25 27 28
14 14 15 16 17 19 21 21 20 19 21 21 19 18 18 16 16 16 15 15 15 15 15 16 18 19 20 21 22 23 23 24 25 23 23 24 25 25 27 29 29 29 30
13 13 16 16 17 18 20 21 19 20 20 20 19 19 18 18 18 17 17 16 17 17 19 21 22 23 24 25 26 27 29 30 30 30 30 30 30 30 31 31 33 35 35
16 16 15 17 19 20 20 19 19 21 21 20 17 18 18 18 18 19 20 21 22 23 23 25 27 27 28 29 30 31 31 31 32 32 32 32 32 32 33 33 34 35 37
19 18 18 20 20 19 19 18 21 21 21 21 19 17 16 18 19 20 21 22 23 25 27 28 29 29 29 29 29 30 31 31 32 32 33 33 33 34 35 35 36 37 39
26 24 23 23 21 20 19 20 22 23 23 22 20 18 18 18 20 21 22 24 25 27 28 29 31 31 31 32 33 34 33 33 34 35 35 36 37 38 37 37 38 39 38
27 26 27 25 22 21 20 22 24 23 23 21 20 19 20 20 21 23 25 25 27 28 30 31 32 33 34 36 37 37 37 35 35 35 36 38 39 40 40 40 38 38 40
29 29 26 23 21 21 22 23 24 22 22 21 21 20 21 21 24 25 26 28 31 32 34 34 36 36 37 39 39 39 40 41 40 40 39 40 41 41 37 37 34 36 35
29 26 22 19 19 20 22 21 20 19 19 19 20 21 21 22 25 27 28 30 33 35 36 37 38 40 41 42 43 43 41 40 39 39 40 39 37 35 36 39 33 42 42
22 18 17 17 18 18 16 16 16 15 17 19 21 22 23 24 27 28 29 31 33 35 37 39 41 42 44 44 41 40 38 37 37 38 39 38 36 37 39 38 37 40 40
15 15 16 17 14 12 12 11 13 15 17 19 21 22 24 25 27 29 30 32 34 38 40 43 43 41 38 40 40 38 38 37 38 36 37 35 35 35 35 38 39 38 39
15 16 14 12 10 9 10 11 14 15 18 19 20 21 22 25 27 28 31 35 38 39 39 37 37 36 36 38 41 44 46 41 40 38 39 39 38 39 39 40 41 43 45
15 13 12 10 9 9 10 12 13 15 16 17 18 20 21 24 28 31 34 35 34 32 33 34 34 35 36 35 36 41 46 49 50 43 42 41 42 43 44 45 46 47 50
15 14 12 10 9 9 9 10 11 13 14 15 17 20 24 27 31 32 31 30 32 33 32 32 33 35 38 38 36 35 36 41 47 58 53 49 49 49 50 52 54 55 56
16 14 12 10 9 7 6 8 10 12 14 17 20 25 28 30 29 29 29 31 31 32 32 33 35 35 36 37 38 39 39 40 42 49 61 58 56 55 56 57 58 59 60
18 16 14 11 8 5 6 10 12 14 16 20 24 27 28 29 28 29 31 33 34 33 34 35 35 36 37 38 38 40 42 45 48 52 57 60 63 61 60 61 63 64 62

GFSSE_700_spd_009.txt.gz
Wind_Speed
9 11 13 14 14 14 14 14 12 11 11 8 7 6 6 6 8 9 9 9 8 8 8 8 8 9 10 9 10 11 11 14 15 17 17 17 18 16 15 15 18 15 15
8 10 12 13 15 15 15 14 14 12 11 10 8 6 6 6 7 8 8 9 8 8 8 8 8 9 10 10 11 12 12 13 15 17 17 17 18 18 17 18 17 17 16
6 9 11 13 14 15 16 16 16 15 13 11 9 7 6 6 6 7 8 8 8 8 8 8 9 10 10 12 12 13 14 15 16 17 18 18 19 20 18 18 18 18 19
5 7 9 11 13 15 16 17 17 17 16 15 12 10 9 8 7 7 8 8 9 9 10 9 10 11 12 13 14 15 15 16 17 17 19 18 19 19 20 18 18 19 20
4 7 8 11 13 15 17 17 17 17 17 16 15 13 11 9 9 9 9 10 10 10 12 13 12 13 14 14 15 16 18 18 19 18 20 17 19 20 17 18 19 19 20
5 5 7 9 12 14 16 18 19 19 17 17 16 15 14 13 12 12 11 12 13 13 13 14 14 15 16 16 17 18 19 19 19 18 19 18 18 21 20 17 19 19 20
7 8 8 10 11 13 14 17 20 20 19 18 17 16 16 14 13 12 10 11 14 14 15 15 15 15 15 16 16 16 16 15 16 16 16 18 17 18 21 20 19 20 21
7 8 8 10 12 13 13 15 19 20 19 18 17 17 15 15 14 13 12 11 12 13 13 13 13 13 13 13 13 13 15 15 15 15 16 17 17 17 18 20 19 20 21
9 9 9 11 13 13 13 15 18 19 19 19 19 17 16 15 14 13 12 11 10 10 10 11 12 13 13 13 14 14 14 14 14 14 15 16 16 17 17 18 18 19 20
10 9 10 11 13 12 13 15 18 18 18 19 19 17 15 14 13 12 12 11 10 10 9 9 9 10 11 12 13 14 14 15 15 15 15 15 16 17 18 18 18 19 21
13 12 10 12 12 12 13 15 17 17 17 17 16 15 14 13 12 12 10 10 9 9 9 10 11 12 14 15 17 18 19 19 19 19 18 18 18 19 20 21 22 22 24
14 14 12 10 11 11 12 16 17 16 16 15 14 13 12 11 10 10 10 10 11 12 14 15 16 17 19 20 21 22 23 22 23 23 22 22 23 23 24 24 25 27 29
16 15 13 13 13 13 13 16 15 14 17 16 15 13 14 11 11 13 14 14 15 16 18 19 20 20 21 21 21 21 22 22 23 23 23 23 22 24 25 26 26 28 28
19 16 14 14 15 16 17 17 17 16 17 16 15 13 13 14 14 15 16 18 20 20 21 23 23 24 25 26 26 26 27 27 27 27 26 26 25 25 26 25 26 28 29
20 19 16 16 18 18 17 19 19 20 20 20 17 16 16 16 15 17 19 20 23 24 25 26 27 28 28 28 28 29 29 29 28 29 29 29 30 31 31 30 28 29 30
23 22 22 20 20 22 20 19 19 20 22 20 19 18 17 17 17 19 20 21 23 25 26 27 29 30 32 33 32 33 33 32 32 33 34 34 36 37 37 37 34 30 31
23 23 21 22 23 23 21 21 21 21 23 21 20 19 19 18 20 21 23 24 26 28 28 30 31 32 34 36 36 36 37 38 38 37 36 35 34 34 34 35 35 32 28
25 24 23 25 25 24 21 21 22 22 23 20 18 18 20 21 22 22 24 26 29 30 32 33 34 35 36 38 38 37 36 35 35 35 34 34 34 34 33 34 35 35 35
25 25 25 25 24 22 21 21 22 20 17 17 18 19 21 21 22 23 25 27 29 31 33 35 36 39 40 38 36 33 33 33 34 34 35 34 34 35 33 33 34 34 35
23 25 23 22 20 19 18 20 18 17 16 17 18 20 21 21 23 24 25 27 30 33 35 37 38 38 36 35 34 33 33 33 34 34 34 33 33 32 32 32 32 31 32
20 19 17 17 16 17 17 15 15 15 15 17 18 19 20 21 22 24 27 29 32 35 36 34 31 31 33 33 34 33 32 32 31 31 31 30 29 29 29 31 34 35 38
16 15 15 15 15 13 13 13 14 15 15 15 17 18 18 19 22 25 28 31 32 32 29 31 31 30 31 35 37 37 36 32 33 33 31 32 34 34 35 36 37 38 41
16 15 14 15 14 13 13 13 12 13 13 14 16 16 17 20 24 27 29 30 28 30 30 31 31 31 30 31 34 38 41 42 43 38 36 37 40 41 42 43 44 45 46
18 16 15 15 13 13 11 10 10 10 11 13 14 16 19 23 25 27 27 27 28 30 30 30 31 32 32 31 30 32 35 41 46 55 47 41 43 44 46 47 48 48 49
20 18 16 15 13 11 9 6 5 8 11 14 16 19 21 23 24 25 26 27 29 30 30 30 31 32 34 35 36 37 37 38 41 49 59 55 51 48 48 49 49 50 50
23 21 19 16 13 10 7 4 6 10 13 15 18 21 22 23 25 27 29 31 32 33 33 33 33 34 35 36 38 40 42 45 47 50 55 58 61 59 56 53 52 52 54

GFSSE_700_spd_012.txt.gz
Wind_Speed
6 9 10 12 13 14 14 14 14 12 12 12 11 8 6 7 7 6 8 7 8 9 8 8 8 8 9 9 9 9 10 12 12 13 14 15 15 15 15 16 18 15 15
5 7 9 11 13 14 15 15 15 15 14 13 12 12 9 7 7 7 6 6 8 8 8 8 8 9 8 8 8 8 9 11 12 13 14 13 14 13 14 15 16 15 15
4 6 8 10 12 14 15 15 15 16 15 15 13 12 12 10 7 6 6 6 8 8 8 7 7 8 8 9 9 10 10 11 12 14 15 14 12 13 13 13 15 16 15
3 4 6 8 10 13 14 16 16 16 16 15 14 14 12 12 9 7 6 6 7 8 8 8 9 9 10 11 11 12 11 12 14 14 15 15 14 13 13 12 13 15 16
4 4 5 7 8 11 12 15 16 17 16 15 14 13 12 12 10 8 7 7 8 9 10 10 11 10 11 11 11 12 12 12 13 15 14 14 14 13 12 13 13 15 17
5 3 4 5 8 10 11 13 16 17 16 15 14 14 13 12 11 9 7 8 9 9 10 11 11 11 11 11 12 12 12 13 12 12 13 13 13 15 14 13 12 15 17
7 5 5 6 7 9 9 11 15 17 17 16 15 13 12 11 9 7 5 6 6 7 8 9 9 9 9 9 9 10 10 10 11 12 13 14 13 14 15 14 14 15 17
10 7 5 6 8 9 8 11 14 16 16 16 16 15 12 11 9 8 7 6 6 6 6 6 6 6 7 8 9 10 11 11 12 13 13 14 14 14 14 16 14 15 17
10 9 6 6 8 9 8 10 13 15 15 16 15 14 12 11 9 7 6 6 5 6 6 7 7 7 8 8 9 10 11 12 12 12 13 14 14 14 14 14 17 18 17
11 10 7 8 9 8 8 10 12 13 13 16 14 12 11 11 9 8 7 6 6 6 7 8 8 10 11 12 13 13 14 15 15 15 16 16 17 17 17 18 19 19 19
12 12 9 10 10 9 9 9 11 12 12 14 13 12 11 10 10 9 8 9 10 9 10 11 13 14 16 17 18 19 19 19 19 19 19 20 20 21 21 22 22 22 23
14 14 13 12 10 10 9 10 12 12 12 13 12 12 11 10 9 9 10 10 11 13 14 16 17 19 20 20 19 19 19 19 18 18 19 19 20 21 22 22 22 23 24
18 16 15 13 12 11 10 11 12 14 13 14 13 11 10 10 10 10 12 13 13 15 16 17 17 17 17 18 19 20 21 22 23 23 23 23 22 22 22 22 22 23 24
20 21 18 15 14 12 13 14 14 15 15 15 15 14 14 13 13 13 15 15 16 16 17 17 19 20 20 22 23 24 25 27 28 27 26 27 27 27 26 26 26 26 26
23 21 20 18 16 15 15 16 16 15 15 17 17 16 15 14 15 15 16 18 18 18 19 21 22 24 25 25 26 26 27 27 29 29 30 30 31 31 30 30 30 29 29
29 25 23 20 19 19 19 19 19 18 17 18 18 17 15 16 18 17 18 18 19 20 21 23 25 26 27 27 28 29 30 30 30 30 28 28 29 29 30 31 31 33 32
29 26 25 23 21 21 21 22 22 20 21 20 19 17 16 17 18 19 20 20 21 23 24 26 28 29 30 31 32 32 31 30 28 28 28 28 29 29 30 30 32 34 34
27 25 27 24 23 23 24 23 23 21 21 21 18 17 17 18 20 20 21 21 23 25 26 28 29 31 33 32 29 27 27 29 28 28 29 30 31 30 30 31 32 34 36
26 27 28 27 26 26 26 22 21 20 21 18 17 17 18 19 20 21 21 22 24 26 28 31 33 33 31 28 28 27 28 29 28 29 29 30 30 30 30 30 30 31 33
24 27 30 30 29 27 21 20 20 21 18 17 18 17 19 19 20 20 21 24 26 28 31 32 32 30 30 29 28 28 29 30 28 27 27 28 29 29 30 31 30 31 32
23 28 31 31 26 21 17 19 18 17 16 15 16 16 18 18 19 20 22 25 28 30 30 27 27 29 31 31 29 28 27 29 27 27 27 28 28 30 30 31 32 35 36
21 25 25 22 19 17 18 18 17 15 14 14 15 16 16 17 19 21 24 27 29 29 27 28 28 29 31 32 33 33 32 29 30 30 30 31 33 33 34 35 37 39 41
19 18 18 18 17 17 17 17 14 13 14 14 13 15 15 17 20 23 26 27 27 27 28 29 30 30 31 33 36 37 39 40 40 36 35 36 39 40 41 43 44 46 47
19 19 19 18 18 17 15 13 13 12 11 11 12 14 16 20 23 24 25 25 25 26 28 30 31 32 32 33 35 36 39 43 47 52 42 40 43 45 46 48 49 51 52
22 21 20 18 16 15 14 13 11 8 8 9 12 15 18 21 22 23 24 25 27 29 31 32 34 35 36 36 37 37 39 41 44 51 58 55 50 49 50 52 52 53 54
24 23 21 19 18 16 14 12 9 6 7 10 12 16 19 21 23 24 26 28 30 32 34 35 36 37 37 38 39 41 43 45 48 52 57 60 63 63 61 58 55 54 53

GFSSE_700_spd_015.txt.gz
Wind_Speed
3 5 8 9 11 11 12 12 13 12 12 12 12 11 10 9 8 7 5 4 6 5 7 6 6 6 5 5 6 7 10 11 11 11 13 12 12 12 11 11 11 10 11
2 4 6 8 9 11 11 12 13 13 14 13 12 11 10 9 8 7 4 4 5 5 6 5 5 5 6 6 7 9 10 12 12 11 11 12 12 12 11 12 9 11 9
2 4 5 7 8 10 11 13 13 13 13 13 13 13 11 10 8 6 4 4 5 5 5 5 6 6 7 8 9 9 10 11 11 12 12 12 13 12 12 13 11 11 10
2 3 4 5 6 8 10 12 13 14 13 12 11 11 11 10 8 5 4 4 4 5 6 6 7 7 8 9 10 10 11 12 12 13 14 14 13 13 12 13 14 12 12
3 3 4 5 5 7 9 11 13 14 13 12 11 10 8 7 6 5 4 4 5 6 7 8 9 9 10 10 11 11 12 13 13 14 14 14 14 13 13 13 14 14 14
6 4 3 4 5 7 8 9 12 14 14 13 12 11 10 8 6 4 3 4 6 7 8 9 10 10 11 11 11 12 13 12 12 13 12 12 13 14 13 13 15 15 17
8 6 3 3 3 5 6 8 11 13 13 14 13 11 10 8 6 4 4 4 5 6 7 7 9 9 10 10 11 11 11 12 12 13 14 14 14 15 16 15 16 16 16
11 9 6 5 5 5 5 7 10 12 12 14 13 12 12 11 8 5 3 5 5 5 6 6 7 7 8 9 10 11 12 13 14 15 15 16 16 15 16 17 16 17 17
12 10 8 7 6 6 5 7 9 11 11 13 13 12 12 11 10 8 6 6 6 7 8 8 8 8 9 10 12 13 14 15 15 16 17 18 18 18 17 17 17 18 18
13 12 10 9 7 7 6 7 9 10 10 12 12 11 10 10 9 8 6 6 6 5 6 7 9 9 11 12 13 14 15 16 16 18 19 21 21 21 21 21 20 20 20
11 12 12 11 9 8 7 6 8 9 10 11 11 11 10 10 9 8 9 8 8 9 9 10 11 13 13 13 14 15 14 14 15 16 18 19 20 21 22 23 23 23 24
13 13 13 13 12 10 9 8 8 10 11 11 11 10 11 12 11 11 10 11 11 12 13 13 13 13 13 14 14 15 15 16 17 18 19 20 21 21 22 22 25 26 25
18 16 14 15 14 12 10 9 10 12 13 13 12 11 11 12 13 13 13 13 13 14 14 14 14 14 14 16 17 18 19 20 20 20 21 21 21 21 21 22 24 25 25
19 17 18 17 16 15 13 12 12 14 15 15 13 13 13 13 14 13 15 15 15 15 14 15 16 18 19 19 20 21 23 23 24 24 24 25 25 25 25 26 26 27 27
28 20 17 20 19 18 16 15 15 17 18 16 16 17 16 15 14 14 15 15 16 16 17 17 19 20 20 22 23 24 26 27 27 27 26 26 26 26 27 27 28 27 27
27 25 22 23 23 22 19 19 19 19 19 18 18 18 15 15 15 16 17 17 17 18 19 20 21 22 22 23 25 27 28 27 25 24 25 26 27 27 28 29 29 30 30
32 30 28 29 28 25 23 23 23 22 21 19 19 18 16 15 17 17 17 18 19 21 21 22 23 24 25 27 28 27 25 25 25 25 26 27 28 28 29 30 31 32 33
32 29 30 31 29 28 28 26 26 23 22 20 19 17 16 16 17 17 19 20 21 23 23 24 26 28 29 28 24 25 25 25 25 27 28 28 28 28 28 29 30 31 33
27 26 26 29 30 30 30 27 27 23 22 21 19 17 16 16 18 18 20 21 22 24 26 28 30 30 27 25 26 26 26 26 26 27 28 28 28 29 29 30 31 32 33
20 22 25 28 31 31 29 28 26 23 22 21 18 17 16 17 18 19 21 21 24 26 28 30 30 27 27 26 26 27 28 27 27 28 28 27 29 30 30 32 33 34 36
23 23 24 27 31 32 28 26 24 22 21 18 17 16 16 18 18 20 20 23 26 28 29 28 27 28 29 28 28 27 29 30 29 28 28 29 30 32 34 35 36 37 38
24 24 26 28 28 26 24 25 24 21 20 18 16 16 16 16 18 19 22 25 27 27 27 27 28 30 31 31 32 33 32 31 31 32 32 32 33 35 36 38 40 42 44
23 22 23 24 23 22 23 24 23 22 17 15 15 14 14 16 18 21 24 25 26 26 26 27 28 30 32 34 35 37 39 40 41 36 35 35 38 39 40 42 44 46 49
20 20 18 19 20 21 22 21 19 16 15 14 12 12 14 17 20 22 24 25 25 26 26 28 30 32 34 36 37 38 39 42 45 50 43 40 42 43 45 46 48 50 52
21 18 18 19 21 21 20 19 18 15 13 10 11 12 15 18 21 22 24 25 26 27 29 31 33 35 37 39 40 40 40 41 44 50 55 49 46 47 49 52 55 55 57
24 19 21 22 21 20 20 18 16 13 10 9 10 12 15 18 21 24 26 28 29 30 32 34 36 38 39 40 40 41 42 45 47 50 55 57 60 57 58 58 59 60 60

GFSSE_700_spd_018.txt.gz
Wind_Speed
2 3 5 8 10 9 9 10 10 10 10 10 10 9 9 8 5 3 1 3 2 2 2 3 4 3 4 5 6 8 10 11 12 12 13 12 11 11 11 11 10 9 8
1 2 5 7 8 8 10 10 9 9 9 10 10 10 8 8 6 4 1 1 1 2 2 3 3 4 4 5 7 9 10 12 12 12 12 12 13 12 12 12 11 10 9
2 3 5 5 6 7 8 10 10 10 10 10 9 9 9 7 4 3 2 0 1 1 2 3 4 5 6 7 8 10 11 12 12 13 13 14 14 14 14 14 13 12 11
2 3 4 4 4 6 7 10 11 11 11 10 10 9 7 6 5 3 1 1 1 2 3 3 4 5 7 8 9 10 11 12 12 14 15 15 16 14 15 15 15 13 13
3 2 3 3 4 5 6 8 10 11 12 11 10 8 6 4 4 2 2 1 3 3 4 5 6 7 8 9 9 11 12 14 14 15 15 16 16 15 15 15 15 16 14
4 4 2 2 2 4 5 7 9 10 11 12 10 9 7 5 4 3 1 1 3 3 5 6 7 8 8 9 10 11 12 14 14 14 14 14 15 14 15 15 16 17 16
7 6 3 3 3 3 5 6 9 10 11 12 12 12 11 8 5 3 3 3 3 3 3 4 5 6 7 8 9 10 11 12 13 14 15 16 16 17 17 17 16 17 17
10 9 6 5 5 4 4 5 7 9 10 12 12 12 11 9 8 6 4 2 2 2 3 4 5 6 7 7 9 10 11 13 14 16 16 16 17 17 17 17 18 17 19
12 11 9 8 7 5 5 5 6 7 8 10 11 11 11 10 9 8 6 5 5 4 4 4 5 6 7 8 9 11 12 12 13 14 16 17 16 17 17 17 18 18 18
15 13 12 10 9 8 6 5 6 7 7 9 10 10 11 10 9 7 6 5 5 5 6 6 7 8 9 9 9 10 11 11 12 13 15 15 15 16 17 18 19 20 21
14 14 13 12 12 10 9 7 6 7 7 8 9 10 10 10 9 8 7 8 8 8 8 9 9 9 9 10 10 11 12 13 13 14 15 17 17 18 18 19 19 19 19
14 13 14 13 14 13 11 9 8 8 9 10 10 10 11 12 11 9 9 10 10 11 10 10 10 9 10 12 13 13 14 16 17 19 19 20 20 20 20 21 21 21 22
19 17 14 14 14 14 14 13 11 10 11 11 11 12 12 13 13 12 12 12 12 13 13 12 12 11 11 13 15 16 17 18 19 20 21 21 22 23 23 23 25 25 25
21 20 19 16 15 15 16 16 15 13 13 14 13 14 14 15 13 12 13 13 14 14 14 14 14 16 16 17 18 19 20 20 22 24 24 23 23 23 24 25 25 24 26
28 25 19 19 17 16 17 18 18 17 17 17 16 16 16 16 14 13 14 14 15 15 16 17 17 19 19 20 21 22 24 25 25 24 23 22 22 23 25 25 26 25 27
26 27 25 22 19 18 20 20 21 21 21 20 18 18 18 17 15 15 16 15 16 16 17 18 19 21 21 22 24 26 25 22 21 22 22 23 23 24 25 27 28 27 29
29 31 27 23 23 24 24 24 24 24 24 23 21 20 19 17 17 17 16 17 17 18 19 19 21 22 23 25 26 24 22 23 24 23 24 25 25 26 27 27 28 28 30
33 32 32 32 29 29 27 29 28 27 27 25 23 21 20 18 18 17 17 18 19 19 20 21 23 26 26 26 23 24 24 25 25 25 26 26 26 27 27 28 28 29 30
31 31 30 29 27 29 30 30 29 29 28 26 22 21 19 18 17 17 17 18 19 20 23 25 26 27 25 24 25 26 25 26 26 27 27 28 28 28 29 31 31 31 32
30 27 29 29 27 28 30 29 29 29 27 24 23 21 19 17 16 17 17 18 21 23 26 27 28 26 24 24 24 25 26 27 28 29 29 29 28 30 32 33 34 35 36
27 26 26 23 22 27 29 28 28 27 25 24 21 20 18 16 16 16 17 19 22 25 27 27 27 26 26 26 26 26 28 29 30 30 30 30 31 32 34 35 37 38 39
26 25 23 23 22 24 26 26 26 27 24 22 22 19 17 15 15 15 18 21 25 26 26 26 26 27 27 27 28 30 30 29 29 30 31 33 34 35 36 38 39 40 41
24 20 20 22 23 23 24 24 26 26 23 21 19 17 14 14 14 16 20 23 25 26 26 27 27 27 28 29 31 34 37 38 40 35 33 32 35 36 38 39 40 42 44
23 18 17 19 21 22 24 23 24 22 18 18 17 15 13 12 14 18 21 22 24 26 27 28 29 29 31 32 34 35 38 42 44 48 44 39 39 40 41 41 43 45 48
26 19 18 18 19 20 20 21 20 18 19 18 15 13 11 12 15 17 20 23 26 28 29 30 31 32 34 36 38 39 39 40 42 47 51 46 41 41 44 46 50 53 55
30 24 18 17 18 19 20 19 19 19 18 15 12 11 11 13 15 18 21 25 28 31 32 34 34 35 37 38 40 41 42 44 44 46 51 52 54 52 52 53 54 56 58

GFSSE_700_spd_021.txt.gz
Wind_Speed
2 2 3 7 8 8 8 8 8 8 7 7 7 6 5 5 3 1 1 2 3 3 2 2 3 5 6 8 9 10 11 11 12 12 12 12 12 13 13 13 13 12 11
3 1 3 5 7 7 8 9 9 8 6 6 7 7 6 4 3 2 1 3 3 3 2 2 3 4 5 6 8 10 10 11 11 11 12 13 14 14 15 15 15 14 12
5 1 3 5 5 6 7 8 8 8 7 6 5 4 5 5 3 3 3 3 3 3 3 3 3 4 5 6 7 9 10 11 11 12 14 14 15 16 16 16 16 15 14
4 2 3 4 4 4 5 7 8 8 9 8 7 6 5 4 3 1 2 3 3 2 2 3 3 4 5 6 6 8 10 11 12 13 15 17 16 16 17 17 17 16 15
4 2 2 2 2 3 4 6 7 8 9 10 10 8 5 4 2 0 1 2 3 4 4 4 5 6 7 8 9 10 12 13 14 14 14 16 16 16 15 15 16 16 15
10 4 2 1 2 3 4 5 7 7 9 10 10 9 6 4 1 1 2 2 2 2 3 4 4 5 7 8 8 10 11 11 12 12 13 13 13 14 14 15 15 15 16
10 7 4 3 2 2 3 5 6 7 8 9 9 8 7 6 2 0 1 1 0 2 2 2 3 3 5 6 7 8 9 10 11 12 12 13 13 14 14 15 15 16 16
13 10 8 6 5 4 4 4 5 6 7 9 10 9 8 8 7 6 4 2 1 1 2 2 3 4 5 6 7 8 9 10 11 12 12 12 12 13 12 13 13 13 14
15 13 11 10 8 7 6 5 4 5 6 7 9 9 9 8 8 6 5 4 3 3 3 3 3 4 5 6 7 9 10 10 11 12 12 12 12 13 14 14 15 16 16
18 17 15 13 11 10 8 7 6 5 6 7 8 10 10 8 7 6 5 5 5 5 5 6 6 7 8 9 9 10 11 12 11 12 13 14 14 15 16 17 18 17 15
17 16 15 14 13 12 11 9 8 7 6 7 8 9 10 9 7 6 6 6 6 6 7 8 9 10 10 10 10 10 11 12 13 13 14 16 18 18 19 20 20 19 20
16 16 17 17 15 15 14 12 11 10 9 8 9 9 10 10 10 9 8 7 7 8 9 11 11 10 11 12 13 14 14 15 16 17 18 19 20 21 21 21 22 22 22
18 17 17 17 17 16 16 15 15 14 12 11 11 11 11 11 11 11 11 10 10 11 12 12 12 12 13 13 15 17 17 18 18 19 20 22 22 24 25 23 23 23 25
21 20 18 18 16 16 16 17 18 17 16 15 14 13 13 14 13 13 13 14 14 13 14 14 13 14 15 16 17 19 19 20 22 22 23 22 21 22 21 22 21 22 25
27 25 21 17 17 17 16 16 18 20 20 19 17 17 15 15 15 15 16 15 15 15 15 15 16 17 18 18 20 21 22 22 21 19 19 19 21 21 22 23 23 24 25
25 25 26 24 21 18 17 17 18 21 23 22 21 20 18 18 17 16 17 16 16 16 16 16 17 18 19 21 23 23 23 20 19 20 20 20 22 22 23 24 24 25 26
29 27 26 26 26 23 22 22 23 23 24 24 24 23 21 19 18 18 17 16 16 17 17 17 18 19 21 22 23 22 20 20 20 21 21 21 23 24 24 25 25 26 27
31 29 28 28 27 27 26 27 27 25 26 26 26 24 23 20 19 18 17 16 17 17 17 18 19 21 22 22 22 21 21 21 21 22 23 23 25 26 27 28 28 29 30
34 32 31 27 26 26 30 33 31 29 28 28 27 25 23 20 19 17 16 16 17 17 18 19 21 22 22 21 22 21 21 22 22 23 25 26 27 29 30 31 32 33 33
36 33 31 27 27 29 31 34 31 30 30 28 26 25 23 18 18 16 16 16 16 18 20 22 22 22 21 21 22 22 22 23 24 25 27 28 30 30 32 33 35 35 36
40 34 33 28 28 31 33 34 30 31 29 26 25 22 21 20 16 15 16 16 16 18 21 22 23 23 23 23 22 23 24 24 25 25 27 29 31 32 33 35 37 39 39
42 36 31 27 27 27 26 25 25 27 27 26 24 21 20 19 16 16 16 15 16 19 20 22 24 25 25 25 26 26 26 25 25 26 28 30 31 33 35 37 39 40 42
41 34 29 28 28 27 25 25 25 27 29 26 22 21 24 18 16 15 15 15 17 19 21 23 25 26 28 28 28 30 31 32 34 30 29 31 32 33 35 36 38 40 42
40 34 31 28 26 26 25 24 24 25 28 23 21 21 20 18 15 14 13 15 17 20 23 25 27 28 29 29 30 31 33 35 38 42 39 39 40 38 37 38 40 41 44
39 36 32 26 23 23 23 23 23 28 24 23 20 21 19 16 13 12 13 15 18 22 25 28 30 31 32 32 32 33 35 36 39 43 46 42 41 39 40 42 44 46 49
41 37 32 26 21 21 22 22 25 26 23 23 20 19 18 14 13 13 14 17 20 24 27 30 33 35 35 35 35 37 38 40 42 45 49 48 49 46 45 46 47 49 53

GFSSE_700_spd_024.txt.gz
Wind_Speed
5 2 3 5 7 8 8 7 7 5 5 4 4 3 3 3 2 3 3 4 5 5 4 4 5 5 7 9 9 10 12 12 11 12 12 12 13 14 15 15 15 15 14
7 4 3 2 4 4 6 7 7 6 5 5 5 5 4 3 2 1 2 4 5 5 5 5 4 5 5 6 8 9 10 10 10 12 13 13 14 15 16 16 16 16 16
8 5 4 2 2 3 4 5 6 6 5 5 4 4 3 2 1 1 3 5 6 5 4 4 4 4 5 6 6 8 9 10 11 12 14 15 16 17 18 17 16 17 16
8 5 4 2 1 2 3 4 5 6 7 6 5 3 3 2 2 2 3 4 5 6 5 5 5 6 6 7 8 10 11 12 13 14 15 16 17 17 17 18 16 17 17
6 5 3 3 2 2 2 3 4 6 7 8 8 6 4 2 2 2 2 3 4 4 5 5 6 6 7 8 9 10 12 13 14 14 15 16 16 16 16 15 14 15 15
9 8 7 5 3 1 1 3 4 5 7 9 9 8 8 4 3 3 3 3 3 4 4 5 5 7 8 9 9 10 11 12 13 13 14 13 14 13 14 15 14 15 15
12 11 12 8 5 3 2 3 4 5 6 7 9 9 7 5 3 1 3 2 2 3 3 4 4 6 6 6 7 8 9 9 10 10 11 12 12 13 13 13 14 14 14
17 15 13 10 8 6 5 5 4 5 5 6 7 7 7 6 5 3 1 1 1 2 2 3 4 5 5 7 8 9 9 10 11 11 12 12 13 13 13 14 14 14 14
18 18 16 14 12 11 9 7 6 6 6 6 6 7 7 6 5 3 3 3 2 2 2 2 4 5 7 8 9 10 11 11 12 13 13 13 14 14 15 16 17 17 14
19 20 18 17 15 13 11 10 9 8 7 7 7 7 7 7 7 6 4 3 2 3 4 6 7 8 9 10 11 12 12 13 13 14 15 15 15 16 17 18 19 19 19
20 21 20 18 16 15 13 12 11 10 9 8 8 8 8 8 8 7 6 5 6 6 7 8 9 10 11 12 12 12 13 14 14 15 17 18 19 21 22 22 21 21 21
20 20 21 21 19 18 16 15 14 13 13 11 11 10 10 9 9 10 9 9 8 9 9 10 10 11 12 13 14 14 15 16 17 19 20 21 23 24 25 24 22 22 26
21 19 20 22 22 20 18 17 17 16 16 15 14 12 13 12 11 11 11 12 11 11 11 12 12 14 14 15 16 16 16 17 19 21 22 23 25 25 24 23 21 23 25
22 21 21 20 20 20 21 18 19 19 18 18 18 15 15 15 14 13 14 14 14 14 14 14 15 15 16 17 17 17 18 19 21 22 22 21 20 20 21 20 20 22 22
27 23 21 20 20 19 18 18 18 19 21 20 21 19 18 17 17 17 16 16 16 15 15 15 16 17 18 18 19 19 20 20 20 19 19 19 19 19 20 20 21 22 22
31 28 26 24 22 21 22 24 21 20 20 20 22 22 21 20 21 19 18 17 17 16 16 16 17 18 19 20 21 21 21 19 18 18 19 19 19 20 21 21 22 23 24
33 32 31 28 25 24 24 23 23 23 23 22 22 23 23 22 23 21 19 18 17 16 16 16 17 19 21 22 21 20 18 17 17 19 19 20 21 22 23 23 24 25 26
34 34 33 31 29 28 28 27 28 29 28 26 25 26 25 24 23 21 19 17 16 16 16 16 17 20 22 22 20 18 18 18 19 20 21 22 24 25 26 27 28 29 29
40 37 35 33 30 29 31 32 31 31 32 32 30 28 27 25 23 20 18 16 15 15 16 17 19 20 21 21 20 19 19 20 20 21 23 23 25 26 28 29 30 32 34
46 43 39 36 34 31 31 33 33 34 34 36 34 29 26 25 23 19 17 15 15 15 17 18 19 19 20 20 21 21 21 21 22 23 25 25 27 28 30 32 33 35 36
51 48 43 39 36 32 31 33 35 35 34 34 33 29 26 23 24 19 16 16 15 16 17 18 18 19 21 22 23 24 23 24 25 25 26 28 29 29 32 34 36 38 39
53 51 47 42 39 33 32 34 36 36 35 34 31 29 27 21 20 22 17 15 15 16 16 17 19 21 22 24 25 25 25 26 26 26 28 29 32 33 35 37 38 40 41
54 52 49 45 41 34 32 34 31 30 32 32 32 30 28 22 24 22 19 15 15 15 15 17 20 22 24 25 26 28 30 31 31 29 29 31 33 34 35 36 36 37 39
50 50 48 45 40 35 33 32 29 28 29 31 32 28 29 21 31 21 18 15 15 15 16 18 20 23 26 28 28 28 29 32 34 36 35 38 38 37 36 35 35 36 39
46 45 45 44 38 35 34 33 30 30 31 30 32 28 24 24 27 21 18 15 15 16 17 20 23 25 28 30 31 32 32 34 36 39 39 38 42 42 44 43 41 42 45
46 45 43 43 37 36 35 32 31 30 29 33 32 26 24 28 24 20 17 16 16 17 20 23 25 29 31 34 35 35 36 37 38 42 45 45 45 43 44 44 46 47 49

GFSSE_700_spd_027.txt.gz
Wind_Speed
6 4 1 2 6 8 7 8 7 7 7 7 7 7 7 7 8 6 4 3 4 4 4 5 5 6 7 9 9 10 12 12 12 13 13 13 13 14 14 14 14 15 14
9 6 3 1 3 5 5 5 6 7 6 7 8 8 8 6 5 5 2 4 5 5 5 5 5 5 5 5 7 9 10 10 10 11 12 13 14 15 15 15 15 15 15
10 7 3 1 3 4 4 5 6 7 8 8 8 8 8 8 6 5 3 4 5 5 6 5 4 4 4 5 6 8 9 9 10 11 13 14 15 16 16 16 17 17 17
12 8 5 3 2 1 2 4 6 6 7 7 7 7 8 8 6 5 3 3 3 4 5 5 4 4 5 6 7 8 9 10 11 13 13 14 16 15 17 16 17 17 17
10 8 6 3 3 3 1 1 4 6 6 7 7 7 6 5 6 6 5 4 5 5 5 5 5 6 7 7 8 9 10 11 12 13 13 14 14 14 15 15 14 14 14
9 9 6 9 8 6 3 1 1 5 6 7 8 8 7 6 4 5 5 5 4 4 5 5 6 6 7 7 9 10 11 11 13 13 14 13 14 14 14 14 14 14 15
16 14 13 12 10 7 4 3 2 3 5 6 7 8 9 8 6 4 3 4 3 3 2 3 4 5 5 6 7 9 9 10 11 12 13 14 14 14 14 14 15 14 14
15 18 17 14 12 11 8 6 5 5 5 5 6 7 7 7 6 5 4 3 3 3 3 4 5 5 6 7 8 8 9 10 12 12 13 14 14 14 15 16 16 16 15
24 21 19 16 15 14 11 10 8 7 7 6 6 7 7 7 7 6 5 4 4 4 4 4 5 7 8 9 10 10 10 11 12 14 14 14 15 15 16 16 17 17 16
21 21 20 19 18 16 14 12 10 9 9 8 8 8 8 8 8 7 6 6 6 5 6 7 7 8 9 11 11 12 12 12 13 14 16 15 17 18 18 18 18 20 20
21 21 21 21 20 19 17 15 13 11 11 10 10 9 9 9 9 9 8 8 7 8 8 9 9 10 12 11 12 13 14 15 16 16 18 19 20 22 21 21 21 22 24
22 21 21 22 22 23 21 16 17 14 14 13 12 11 11 10 10 11 11 11 11 10 11 11 11 12 13 13 13 15 16 17 18 19 18 21 23 25 24 23 23 25 24
23 24 23 23 24 24 24 22 23 19 17 16 15 14 13 12 12 12 13 14 14 13 13 13 12 13 14 15 16 17 18 19 21 22 20 23 25 25 24 20 20 21 20
26 25 24 23 23 24 24 23 24 16 22 19 18 17 15 15 14 15 16 15 17 16 14 14 15 15 15 16 17 18 20 21 23 24 22 22 21 20 21 20 19 20 20
30 29 26 24 23 22 22 20 21 22 26 21 20 19 19 17 17 17 17 17 18 18 16 16 17 17 17 18 18 20 21 22 22 22 21 19 19 19 20 20 20 20 20
32 31 30 26 24 22 21 20 21 20 23 21 22 20 21 20 20 20 20 19 19 19 18 18 17 18 18 19 20 21 22 22 21 19 21 17 18 19 19 20 21 22 23
34 35 34 33 30 28 26 24 22 24 25 23 23 22 22 22 21 22 22 20 20 19 18 18 18 19 19 20 21 21 21 20 19 19 19 19 18 20 21 21 22 23 25
39 39 38 38 35 32 30 28 27 28 28 25 26 26 25 25 24 23 24 22 20 19 18 18 18 18 20 21 20 20 18 18 19 19 19 20 21 22 22 23 25 26 27
43 43 42 39 35 34 32 31 30 31 30 28 30 29 27 28 28 27 25 22 20 18 17 17 18 19 20 20 19 19 20 20 20 21 22 23 23 24 26 26 28 29 30
47 48 45 44 39 36 34 33 33 32 34 33 34 31 31 31 32 28 24 21 19 17 17 16 18 19 19 19 20 21 22 22 23 24 25 26 26 27 29 30 31 33 34
58 54 52 49 46 41 39 36 35 34 35 34 32 33 33 32 31 27 25 20 18 17 16 16 17 17 17 19 21 23 24 24 26 26 27 28 30 30 31 33 34 36 38
55 58 58 54 52 47 43 40 37 36 35 33 33 36 35 32 29 27 25 20 17 17 16 16 16 16 17 20 22 24 25 28 25 26 28 29 31 33 34 35 37 39 41
49 52 58 56 56 52 47 46 42 38 35 35 36 36 32 32 29 28 23 22 20 17 16 15 16 17 18 20 23 26 29 29 30 29 30 30 32 34 35 37 38 39 40
44 48 50 57 58 55 52 49 44 36 33 33 33 32 31 31 32 24 24 22 22 19 16 16 16 18 21 23 25 27 30 32 34 33 34 35 37 37 38 38 36 36 38
43 46 51 51 55 56 54 50 43 36 35 33 32 31 32 33 31 26 32 28 22 19 17 17 18 20 23 26 28 32 34 36 37 38 36 36 39 41 43 45 43 42 42
43 47 52 46 50 54 53 47 40 39 37 35 34 34 33 34 30 28 33 27 23 21 19 19 21 23 26 29 32 34 37 38 39 41 43 41 43 42 44 44 43 44 46

GFSSE_700_spd_030.txt.gz
Wind_Speed
5 3 2 2 5 9 10 9 9 9 9 9 8 9 9 9 8 8 5 4 3 3 4 3 4 5 7 6 6 8 10 11 11 12 13 13 13 13 13 12 13 12 12
7 7 4 1 4 9 10 8 9 9 9 9 9 9 8 8 8 6 5 3 2 2 3 3 2 2 3 3 5 6 7 8 10 11 12 12 12 12 12 12 13 14 14
11 9 6 3 3 6 7 8 8 8 9 10 10 9 9 7 7 6 4 2 1 2 3 2 2 2 2 3 4 4 5 7 9 10 11 11 11 13 13 13 14 14 14
13 11 7 4 2 4 5 6 5 6 8 9 10 10 9 8 6 6 5 4 1 2 3 3 3 3 3 4 4 4 6 7 9 11 12 13 12 14 13 14 14 14 14
13 11 9 4 2 4 6 7 3 3 5 8 9 10 10 9 7 6 5 4 3 3 3 3 4 4 5 5 6 5 7 8 10 11 12 13 13 14 14 15 14 13 13
14 12 9 4 5 7 5 4 4 4 5 6 8 9 9 9 9 7 5 4 4 4 4 4 4 4 5 6 6 6 8 9 10 11 12 13 12 12 13 14 14 14 15
14 10 10 9 11 11 8 7 5 5 5 7 8 9 9 9 9 8 6 4 3 3 2 2 3 4 4 5 6 7 8 10 11 12 12 13 12 13 14 14 14 14 14
16 11 11 13 14 12 10 8 6 6 6 6 7 8 10 10 9 7 6 5 5 4 3 3 3 4 4 5 6 7 8 9 11 11 13 11 12 12 13 13 13 14 14
18 15 17 17 16 13 12 10 9 7 7 6 6 7 8 9 9 8 7 6 5 4 5 5 5 6 6 7 8 8 9 11 12 13 13 13 12 13 13 13 15 16 16
22 20 21 20 18 16 14 13 12 10 8 8 7 6 6 7 8 9 10 9 9 8 7 7 7 8 8 9 9 9 10 11 13 14 14 16 16 16 16 17 18 20 19
22 23 21 20 21 19 17 16 15 12 11 10 10 8 7 7 8 9 10 11 10 10 10 10 10 10 10 10 10 11 12 13 15 16 15 18 19 19 18 19 21 23 22
23 23 24 24 23 22 20 18 18 15 15 14 13 11 10 8 8 9 10 11 12 12 12 11 11 12 12 11 12 13 14 16 18 17 17 20 21 21 19 20 21 21 20
25 26 26 26 26 23 22 22 21 18 18 19 15 15 13 11 11 11 12 12 13 14 14 14 13 14 13 14 15 15 16 18 21 19 19 21 22 23 19 17 18 17 17
28 27 27 26 27 24 24 24 23 22 21 18 16 17 17 14 13 12 14 14 14 14 15 16 16 16 16 16 16 17 17 18 22 22 21 21 21 20 18 17 17 17 17
28 31 31 29 28 26 25 24 25 25 24 22 22 19 19 17 16 16 16 16 16 16 17 17 18 18 17 18 18 18 20 20 21 22 19 19 18 18 17 17 17 17 17
30 33 33 29 29 28 24 22 21 22 21 20 20 18 18 17 18 18 18 18 18 17 18 19 19 19 19 18 18 19 21 22 21 22 18 17 18 18 17 17 18 18 19
33 31 35 32 32 30 28 25 24 23 23 20 23 21 19 20 18 19 18 20 20 20 19 20 19 19 19 19 19 19 20 20 20 19 20 17 17 19 18 19 20 20 21
33 36 35 37 35 33 31 29 28 28 27 24 25 23 22 23 21 21 21 22 22 21 20 20 19 19 19 19 19 18 18 18 18 19 20 20 20 19 21 22 23 23 24
40 36 35 38 42 37 35 34 32 32 33 32 29 29 28 27 24 24 25 26 25 23 21 19 19 19 18 18 18 17 18 18 19 20 22 22 23 24 24 24 26 27 28
48 45 42 41 45 41 36 36 34 33 34 32 30 30 31 27 26 26 27 28 27 24 21 19 18 18 17 17 17 17 17 19 20 22 23 24 26 25 27 29 29 30 32
51 52 47 46 51 46 43 41 38 36 35 32 30 32 29 28 27 29 29 28 27 22 21 19 18 16 16 16 16 17 17 19 21 22 25 26 28 28 29 30 31 33 34
46 52 56 50 54 53 48 45 41 40 35 33 33 31 28 29 27 29 30 28 26 23 20 19 18 16 16 15 16 18 20 21 22 24 26 28 29 30 31 32 33 35 37
40 42 50 60 56 55 52 49 48 48 41 38 36 31 29 29 30 30 30 28 25 22 20 20 18 17 15 16 18 20 24 25 26 28 29 30 31 32 32 34 35 37 39
41 41 41 48 59 59 57 57 55 53 46 41 36 30 30 31 31 29 28 27 24 24 21 21 19 18 17 17 19 23 25 28 31 32 33 34 34 35 35 36 36 37 38
42 40 42 43 47 50 56 61 58 54 49 44 38 33 31 31 32 31 29 28 27 26 23 23 21 20 19 20 23 26 29 32 36 38 37 36 36 37 38 40 40 40 41
33 41 45 44 43 46 51 57 58 54 52 46 40 35 34 31 33 32 31 29 25 31 24 26 23 21 21 23 26 29 32 36 39 43 45 42 42 38 40 40 40 40 41

GFSSE_700_spd_033.txt.gz
Wind_Speed
8 5 0 1 3 7 11 11 9 8 7 7 8 6 6 5 6 6 6 4 1 3 3 3 4 5 5 3 6 7 9 10 10 11 11 11 12 11 11 12 11 10 10
8 5 5 3 1 4 8 10 9 8 8 8 8 7 7 6 7 7 6 4 1 1 2 3 2 2 2 3 4 5 7 9 9 9 9 10 11 11 12 13 13 12 12
7 6 7 5 2 3 8 10 11 8 7 8 10 9 8 6 5 5 5 4 2 1 1 0 1 1 1 2 2 4 6 7 8 8 9 8 11 11 13 13 14 14 13
9 9 9 6 2 2 6 7 7 6 6 7 9 10 10 8 5 4 4 4 3 2 1 1 1 1 1 2 3 4 5 7 8 8 11 8 11 13 13 13 14 13 13
10 12 10 8 4 2 6 8 6 6 6 7 8 9 10 9 8 6 4 3 2 2 2 2 2 2 3 3 4 5 7 8 8 9 11 11 12 13 13 12 11 12 12
13 13 11 8 3 5 9 7 8 6 6 7 8 9 9 10 10 9 6 3 2 2 2 2 3 3 4 4 5 5 7 8 8 8 9 9 11 11 11 11 11 11 12
14 14 12 9 6 8 8 7 9 6 6 7 8 8 9 9 10 10 9 8 5 3 1 1 2 2 3 4 5 5 7 8 8 10 9 8 10 10 10 10 10 11 12
14 14 11 10 8 9 11 10 9 7 7 7 7 7 8 8 8 8 8 8 7 6 5 4 3 2 2 2 3 5 7 9 9 10 10 10 10 10 11 10 11 11 13
15 18 15 13 12 13 13 12 10 8 7 7 7 7 7 7 8 8 8 8 7 6 5 4 4 4 4 4 5 6 8 10 10 9 10 11 11 10 11 12 14 15 14
20 19 17 16 16 15 16 14 12 10 9 8 7 6 5 5 6 7 8 8 8 7 6 6 6 6 6 7 8 8 9 11 10 11 12 14 14 13 14 15 16 17 16
21 21 21 20 19 18 18 17 15 13 13 10 9 8 6 4 4 6 7 9 9 9 8 8 8 8 9 9 10 11 12 13 11 12 13 15 16 15 15 17 18 18 17
24 24 23 23 23 21 20 19 18 16 15 14 12 11 9 7 6 6 7 7 9 10 11 11 11 11 11 11 12 13 14 15 13 13 15 16 18 17 17 19 18 16 15
23 23 25 26 25 23 22 22 21 20 18 17 16 15 13 10 10 9 8 8 7 10 11 12 13 13 14 14 14 13 15 17 15 15 16 18 19 18 16 17 15 16 15
25 26 26 27 27 25 24 23 22 23 21 20 20 19 16 14 13 14 11 10 10 11 12 13 14 15 15 15 16 17 17 18 17 17 18 19 19 18 16 17 16 16 16
33 32 30 29 27 27 25 25 25 24 23 22 22 21 19 17 16 16 14 13 14 13 13 13 14 16 17 16 16 18 19 20 18 17 17 17 17 17 16 17 17 17 17
31 33 33 33 28 29 28 26 25 25 24 23 24 23 22 20 18 16 15 17 17 18 17 16 16 17 18 18 18 18 19 20 19 17 16 16 16 16 17 18 18 18 19
32 32 36 37 34 30 28 28 27 25 24 23 21 21 22 20 21 17 19 19 19 19 19 19 20 19 18 18 18 17 18 19 19 16 16 16 17 17 18 19 20 20 21
39 34 35 38 39 35 30 29 29 26 26 25 23 22 22 21 21 22 23 21 21 20 20 22 22 21 20 18 17 17 16 16 18 17 16 17 18 18 20 21 22 22 24
44 43 36 38 42 40 35 32 31 31 30 28 28 27 29 26 25 26 25 23 23 23 24 24 23 22 20 18 17 16 16 15 16 17 17 18 19 19 20 22 24 25 27
46 46 42 36 43 44 41 38 34 33 32 30 31 27 27 23 22 26 26 24 23 24 23 25 24 22 20 18 16 15 14 14 16 17 18 20 20 22 24 25 26 28 29
40 46 46 40 40 43 45 43 39 38 35 35 33 28 25 23 21 25 27 25 24 25 23 22 23 23 19 17 16 14 13 14 16 18 19 21 23 24 25 27 28 30 31
36 41 49 47 44 46 48 49 45 40 38 38 35 32 28 24 23 25 27 24 24 24 23 22 22 22 19 17 16 15 14 15 18 19 21 24 26 28 29 30 31 32 33
40 41 44 51 51 49 47 47 50 46 44 42 38 36 30 27 26 27 28 26 25 23 22 22 21 21 21 19 17 17 17 19 21 22 24 27 29 31 31 32 33 34 35
40 41 43 49 53 54 48 47 50 55 49 47 44 40 35 31 28 30 30 28 26 24 23 22 22 21 22 21 20 19 20 22 24 26 27 30 32 34 34 35 36 37 39
35 42 43 42 46 58 59 55 53 55 54 48 45 43 38 34 32 31 31 31 28 26 24 25 24 23 24 23 22 22 23 25 27 29 30 32 34 35 36 36 38 39 41
36 36 42 42 42 43 54 64 58 60 57 55 50 46 42 38 35 34 33 34 31 28 26 26 27 26 26 26 25 25 26 28 31 34 37 38 38 37 38 37 39 40 41

GFSSE_700_spd_036.txt.gz
Wind_Speed
13 11 7 3 3 5 7 8 9 9 7 7 7 6 5 5 6 6 6 4 3 2 2 4 4 4 3 5 8 10 11 11 10 11 12 12 12 11 10 10 10 10 11
14 10 6 4 2 3 5 8 10 10 8 7 7 8 6 5 5 4 5 4 2 1 1 1 2 1 3 5 5 6 7 8 8 9 10 10 10 10 11 11 12 12 12
13 11 9 8 4 2 6 10 11 7 7 7 7 8 8 7 5 4 3 3 2 2 1 1 1 1 2 2 3 4 5 6 7 8 9 10 11 11 12 12 12 12 12
13 11 9 8 6 4 3 9 9 9 7 7 7 7 8 7 5 3 3 3 2 2 1 1 1 0 1 1 2 3 4 6 7 8 9 10 11 12 12 13 13 13 12
12 11 10 10 7 2 4 5 6 8 6 7 8 8 8 7 7 5 4 3 3 3 2 2 2 2 3 3 4 4 5 7 8 9 10 11 12 12 12 11 11 11 11
11 11 12 10 7 1 3 4 6 7 6 6 7 8 8 7 7 8 7 5 3 3 3 3 2 2 3 4 5 5 6 7 7 8 8 9 9 9 9 9 10 11 10
12 13 13 12 6 3 2 5 6 7 7 7 7 7 7 8 8 8 8 8 7 4 3 3 3 3 3 4 6 6 6 7 6 7 6 7 7 7 7 8 9 10 10
14 16 16 15 8 6 5 8 7 7 8 8 7 6 7 7 8 8 8 8 7 6 6 5 4 3 3 4 6 6 6 7 7 8 7 7 7 8 8 8 9 10 10
16 18 17 16 12 10 8 10 10 9 8 6 6 6 6 6 7 8 8 8 7 6 5 4 4 4 5 6 8 8 8 8 9 9 9 9 9 9 10 11 13 12 12
20 21 20 18 15 13 12 13 13 11 10 9 7 6 6 5 5 6 7 7 7 7 6 5 5 5 6 7 8 10 9 9 10 12 13 12 12 12 13 14 15 15 14
19 24 23 21 19 17 15 15 15 13 12 12 10 8 6 5 4 5 5 5 6 7 7 7 7 8 9 10 11 12 10 11 11 13 14 14 14 13 15 17 17 17 17
19 21 23 23 21 20 18 18 17 16 15 14 13 12 10 8 7 6 7 6 6 6 7 8 9 9 10 11 12 14 13 12 12 14 15 16 15 15 17 17 17 17 16
18 19 20 22 22 22 21 21 20 19 18 18 16 15 14 12 10 10 10 9 8 8 8 9 10 10 11 11 12 14 14 14 14 14 16 17 17 16 17 16 15 16 16
25 23 22 22 23 23 23 22 21 21 21 21 20 20 17 17 14 12 13 12 12 12 11 12 12 13 13 13 13 14 13 14 15 16 17 17 16 16 16 15 15 15 16
31 28 26 25 24 23 22 23 22 23 22 23 23 22 20 18 17 15 14 14 16 15 14 14 14 15 16 16 16 17 15 15 15 16 16 16 16 15 15 15 15 16 16
34 37 35 34 31 30 27 24 23 23 24 23 23 24 23 22 20 21 16 16 18 17 16 16 16 17 18 18 18 18 16 16 15 15 15 15 16 16 15 16 16 16 18
34 33 36 37 35 32 30 28 26 25 25 23 22 24 22 21 21 19 19 21 20 19 18 18 19 19 20 20 20 20 19 16 15 14 15 15 16 17 17 18 18 19 20
38 36 35 35 36 33 32 30 28 27 27 25 23 23 22 22 21 19 21 22 22 21 22 22 22 22 22 22 21 20 19 17 15 14 14 14 15 16 18 19 20 22 23
43 41 40 41 39 36 35 32 31 30 30 28 26 26 25 25 24 24 24 24 25 24 22 22 22 22 23 23 22 21 18 17 15 14 13 14 15 16 18 19 21 23 25
49 46 44 42 43 40 37 37 35 35 34 33 31 31 29 24 22 22 23 24 25 22 21 21 21 21 22 23 22 20 18 17 15 14 14 15 16 18 19 21 23 25 27
56 56 53 45 44 46 46 44 40 37 37 37 33 32 29 26 23 21 23 25 23 22 21 22 21 20 21 23 22 21 19 18 16 15 16 17 19 21 23 24 26 28 29
43 50 52 54 54 47 48 45 42 38 40 38 36 37 33 30 26 23 23 23 23 23 21 22 21 19 20 22 22 21 20 19 18 18 19 20 22 24 26 28 30 31 32
39 38 40 45 49 52 47 44 46 42 44 42 41 41 37 31 29 25 23 24 25 25 24 23 21 20 19 21 23 23 22 21 21 20 21 23 25 28 30 32 34 35 36
40 41 41 41 42 55 56 52 50 48 48 45 42 40 40 35 32 29 28 26 27 29 27 24 23 22 20 22 24 24 24 24 23 24 24 26 28 31 32 34 36 38 40
33 42 46 47 47 47 52 57 55 54 53 48 46 42 41 40 38 34 31 29 29 30 31 27 25 23 25 26 27 27 26 26 26 27 27 29 31 33 35 37 39 41 43
25 30 36 47 51 51 54 56 56 58 59 52 48 45 46 41 41 39 34 33 30 31 34 32 29 26 25 29 27 31 31 29 29 30 31 32 33 34 37 39 41 43 44

GFSSE_700_spd_039.txt.gz
Wind_Speed
9 9 8 6 4 4 6 8 10 11 8 8 8 8 8 8 8 8 8 8 7 5 4 3 3 1 2 8 10 10 9 10 10 10 11 11 10 10 10 11 10 11 11
13 10 9 7 5 4 5 10 12 10 10 9 8 8 7 7 6 7 7 7 4 3 3 2 3 3 1 2 4 5 6 7 7 8 9 9 9 9 10 11 11 11 12
13 14 11 10 7 4 2 8 10 9 9 9 9 8 8 7 5 4 5 5 4 4 3 3 3 2 1 0 1 2 3 3 4 5 6 8 9 10 11 11 11 12 12
16 14 13 11 9 5 5 6 8 8 8 8 9 9 9 8 6 4 2 2 3 3 2 2 1 1 1 1 2 2 3 3 5 6 8 9 10 11 12 13 13 12 10
14 14 13 11 9 6 4 3 6 7 7 9 9 9 9 8 7 6 3 2 2 2 2 1 1 2 2 2 3 4 5 5 5 7 8 10 11 12 12 11 10 10 9
13 14 13 11 9 6 1 1 3 7 7 7 8 9 9 8 7 7 7 5 4 3 2 2 2 2 3 4 4 4 4 5 5 6 7 9 10 11 11 10 10 10 8
8 13 13 13 11 5 3 2 1 4 6 8 8 7 8 8 8 8 8 8 8 7 5 4 3 4 4 4 5 5 5 5 6 7 7 8 8 8 8 8 9 9 8
10 14 15 15 13 7 5 4 4 3 5 5 7 7 7 8 8 8 7 7 7 7 6 6 5 5 5 6 6 6 6 6 7 7 8 8 9 9 9 9 10 10 10
12 16 18 18 16 10 8 7 7 7 6 6 6 6 6 7 8 8 8 8 8 7 6 5 6 6 7 7 8 9 9 8 8 9 9 9 9 10 11 12 12 13 13
19 16 19 19 18 14 12 10 10 10 9 8 8 7 5 5 6 7 7 7 7 8 8 7 6 6 7 7 7 7 8 9 10 11 11 11 10 10 13 13 13 14 15
16 18 20 21 21 18 15 13 13 12 11 10 10 9 8 6 4 5 5 5 6 6 6 7 7 7 8 9 8 8 8 9 10 11 12 13 12 13 15 14 15 16 14
19 20 21 23 22 22 19 16 15 15 14 13 13 11 10 9 8 7 7 6 6 6 7 8 8 9 10 10 10 9 9 10 11 13 14 14 14 15 16 15 15 16 14
17 16 20 22 24 24 21 19 19 17 17 16 15 15 14 12 11 11 10 9 9 9 8 9 10 11 12 14 13 12 12 12 12 13 14 15 16 16 16 16 15 15 14
20 20 18 20 21 22 22 21 22 21 20 19 18 18 17 16 15 14 12 13 11 12 11 11 12 13 13 15 15 15 15 14 14 14 15 15 15 15 15 15 15 14 14
29 27 25 23 22 22 21 21 21 21 21 21 20 19 18 19 19 17 16 15 14 14 14 13 14 14 16 16 17 17 17 17 16 16 16 15 15 14 15 15 16 16 16
37 35 32 30 28 26 23 21 21 22 21 22 22 21 20 21 21 21 19 17 16 17 16 16 16 16 17 18 18 18 18 18 16 15 15 15 14 15 15 15 16 18 19
41 38 35 32 35 35 32 29 27 24 23 23 23 22 21 21 23 23 20 17 18 19 18 17 18 19 20 21 21 21 19 18 17 16 15 14 14 14 15 16 17 19 20
44 44 43 39 37 36 36 33 30 27 24 24 24 23 22 22 23 22 18 18 21 20 21 20 21 22 21 21 21 21 21 19 17 17 16 15 14 13 14 16 18 19 21
43 43 44 41 39 36 33 33 31 30 29 27 27 25 23 24 24 22 20 22 24 24 23 22 23 21 20 20 20 21 21 19 18 17 16 15 14 14 15 17 19 21 23
48 45 44 44 43 40 39 37 35 35 33 32 30 28 26 26 26 25 25 25 25 23 24 23 23 21 20 20 20 21 21 20 19 18 16 16 16 16 18 19 21 24 25
56 53 50 48 45 45 47 46 42 39 36 35 35 32 31 30 31 28 24 25 25 23 23 24 23 20 20 19 19 20 21 21 20 19 18 18 18 19 20 22 24 26 28
45 53 59 60 54 50 48 48 48 45 44 39 36 34 32 33 33 29 28 26 26 23 23 23 23 21 20 20 19 19 22 23 22 21 20 20 21 22 23 25 27 28 30
41 41 44 51 58 59 56 50 49 47 50 46 42 39 37 36 35 31 30 28 26 25 24 23 25 24 22 22 20 21 23 24 24 24 23 23 24 24 25 27 29 31 32
43 42 42 42 43 45 51 59 63 61 56 49 43 41 37 37 36 31 31 30 30 27 25 25 27 27 25 24 24 22 24 25 27 28 27 27 27 27 28 30 32 34 36
29 35 45 44 46 44 44 47 50 53 55 53 47 42 41 39 38 35 31 34 34 30 28 26 29 32 29 28 27 25 25 29 29 31 32 31 31 31 30 32 35 37 40
23 23 26 32 43 48 47 47 46 46 50 49 48 47 45 45 42 42 35 34 37 35 31 29 30 33 33 29 30 27 28 33 30 33 36 35 34 32 32 35 37 40 43

GFSSE_700_spd_042.txt.gz
Wind_Speed
10 5 2 3 6 6 9 12 12 11 11 10 9 9 9 9 8 8 8 8 7 7 5 5 5 5 1 4 6 7 7 10 10 9 9 8 8 7 7 7 8 9 10
13 8 7 7 7 4 6 8 11 9 9 9 9 9 9 7 6 6 6 6 6 5 6 5 6 6 3 2 2 3 5 6 7 7 7 6 6 6 7 8 9 10 11
11 13 8 9 8 4 4 7 8 8 8 9 10 10 10 9 8 6 6 5 5 4 6 6 6 6 5 4 3 1 1 2 3 3 4 5 6 7 8 9 10 11 12
13 16 13 11 10 8 6 6 8 8 8 9 10 11 11 10 9 7 5 5 4 4 4 4 4 4 3 3 3 2 2 2 2 3 5 6 7 8 10 11 11 11 10
14 15 14 12 9 8 4 4 7 8 8 9 10 11 11 11 11 10 8 5 4 4 4 4 3 3 3 3 3 3 2 1 3 4 5 6 7 8 9 10 11 11 10
12 13 14 13 11 8 3 3 4 7 8 9 9 9 10 11 10 9 9 9 6 4 3 3 3 4 4 4 4 3 2 2 3 4 5 6 7 8 8 10 10 9 9
9 13 15 15 13 9 5 3 2 4 6 7 9 9 10 11 10 9 8 8 8 8 7 7 7 6 7 7 5 4 4 4 3 3 5 6 6 7 7 8 8 8 8
15 12 15 16 15 11 7 5 3 1 2 4 6 7 9 9 10 10 10 9 8 8 7 7 7 7 7 7 6 6 5 5 5 5 6 6 7 7 7 8 8 9 9
13 14 16 17 17 13 9 7 5 4 3 4 4 5 5 6 7 8 9 10 10 9 9 8 8 7 7 6 6 6 6 6 6 6 6 6 7 9 9 10 9 9 10
15 15 16 19 19 16 12 10 8 7 7 5 5 5 4 3 3 4 5 7 7 8 9 9 9 9 8 8 8 8 7 8 8 8 8 8 8 10 11 11 11 11 12
14 16 16 19 21 20 16 13 12 10 10 8 7 7 6 5 5 4 3 4 5 5 6 8 8 9 9 9 10 10 10 10 10 10 10 10 10 11 12 12 13 12 12
17 13 15 18 21 21 18 16 16 13 13 12 11 10 10 8 7 7 7 6 5 5 5 6 7 8 9 9 10 10 11 11 12 12 12 12 12 13 13 13 13 12 12
16 17 18 19 20 22 21 21 20 17 17 15 13 12 13 12 11 10 10 9 9 9 8 8 8 8 8 9 10 11 12 13 13 13 13 13 13 13 13 12 12 12 11
20 18 17 17 20 22 24 23 22 20 20 18 17 15 14 15 15 14 14 12 12 12 12 11 11 11 11 12 13 13 14 15 15 14 13 13 12 12 12 12 12 12 12
25 24 22 20 20 20 21 22 22 21 21 21 20 18 17 16 17 17 18 16 15 14 15 14 13 13 14 13 14 15 16 17 17 16 15 13 13 12 12 13 13 13 13
27 27 29 28 27 25 23 21 20 21 22 21 21 21 19 18 18 19 20 19 18 18 17 16 16 15 16 17 17 18 18 18 18 17 16 15 14 14 13 13 13 14 14
34 32 32 31 31 32 31 28 25 23 22 21 21 22 21 20 20 21 21 21 21 21 19 18 18 18 18 20 22 20 20 18 18 18 16 15 14 13 13 13 13 14 14
38 37 33 33 34 34 34 35 34 30 27 26 26 25 23 21 22 22 22 22 23 22 20 19 21 20 20 21 21 20 19 19 18 18 17 16 15 14 13 14 14 15 16
41 40 40 37 36 35 35 36 36 35 32 30 29 28 27 23 23 23 22 23 22 22 22 23 22 22 22 22 21 20 19 18 18 18 18 17 16 15 15 15 16 17 19
44 44 44 44 41 39 39 38 37 35 33 31 30 31 29 27 26 25 24 24 23 24 24 22 23 24 23 23 21 20 19 19 19 19 18 18 18 18 18 17 18 19 20
53 51 48 47 47 44 44 42 41 40 38 36 33 33 32 31 30 28 26 26 25 25 24 24 24 23 23 23 21 20 20 19 19 20 20 20 20 21 21 21 21 22 22
45 47 55 58 51 49 50 47 47 46 45 42 39 36 33 34 33 33 30 29 28 27 27 26 23 23 24 23 22 21 21 20 19 20 22 23 23 24 24 24 24 24 24
37 40 43 48 54 57 59 56 56 54 53 51 48 42 39 38 36 34 33 32 31 31 30 27 24 24 24 24 24 24 24 22 21 21 23 25 25 27 28 28 28 27 27
27 36 43 42 45 46 46 48 57 61 59 55 50 45 43 40 40 39 37 34 33 33 32 28 26 25 26 26 27 26 27 26 24 25 25 27 28 30 32 32 32 31 31
19 19 21 28 44 47 44 43 45 50 58 62 60 57 55 49 44 41 38 36 35 35 34 32 31 31 32 31 29 32 31 30 28 28 30 30 30 32 35 36 36 35 35
25 25 24 23 22 28 43 46 48 45 44 46 50 53 51 51 47 45 38 37 35 33 35 35 34 32 32 31 30 32 33 32 32 31 33 34 38 34 36 38 39 39 40

GFSSE_700_spd_045.txt.gz
Wind_Speed
9 5 1 4 6 8 8 11 9 9 9 10 10 11 11 10 9 8 8 8 7 6 5 6 8 7 3 4 5 6 5 5 5 6 7 6 6 5 5 5 5 6 7
12 6 5 4 5 7 9 8 10 10 10 11 12 12 12 11 9 7 7 7 6 5 6 8 10 9 7 4 3 3 5 5 5 4 4 3 3 4 4 6 6 7 8
12 12 9 8 6 5 7 8 9 10 10 10 11 12 12 11 10 8 6 5 4 5 10 8 8 8 6 6 5 4 3 2 2 1 1 2 3 4 5 6 7 8 9
16 15 13 12 10 8 7 7 8 9 9 10 10 11 11 11 10 9 7 5 7 8 7 6 5 6 5 5 5 4 4 3 1 1 2 3 4 5 5 6 7 8 8
14 17 15 12 11 9 6 5 7 9 9 9 9 9 9 10 10 10 10 8 7 6 6 6 5 5 4 4 3 2 2 1 1 2 2 3 4 5 5 6 7 7 8
14 15 16 14 12 9 7 1 5 8 7 8 9 9 10 11 11 10 10 10 8 8 7 6 6 5 5 4 3 3 2 1 1 1 2 2 2 4 6 6 7 7 6
13 13 14 15 14 11 8 1 3 4 6 6 7 9 10 11 11 11 10 10 9 9 8 8 8 7 6 6 6 5 4 3 3 3 4 4 5 5 6 6 6 7 6
13 14 14 15 16 14 10 5 5 3 2 3 4 6 8 9 10 11 12 11 10 10 9 9 8 7 6 6 5 4 3 3 3 3 4 5 5 6 6 7 7 8 8
15 16 16 16 17 16 13 11 7 3 2 1 2 4 4 5 6 7 8 9 10 10 10 9 9 8 8 7 6 6 6 6 6 6 6 6 7 7 8 8 8 9 9
14 13 16 18 19 19 15 12 10 6 5 4 3 3 3 2 2 2 4 5 5 6 7 8 8 9 9 8 8 8 8 7 8 7 8 8 8 9 9 9 9 10 10
12 12 16 17 20 21 19 15 13 11 9 8 6 5 5 4 3 3 2 2 2 2 2 3 5 6 7 7 8 9 9 9 8 8 8 8 8 9 9 10 9 9 9
13 13 10 15 18 21 21 18 15 14 13 11 10 9 7 7 7 6 6 6 6 5 4 4 3 4 4 6 7 8 9 9 9 9 9 9 10 9 10 10 9 8 8
12 16 16 14 15 18 20 20 18 17 17 15 15 13 12 11 11 10 10 9 9 9 10 8 7 7 6 6 7 10 11 11 11 11 11 10 11 10 10 10 9 8 8
18 18 18 17 18 19 21 22 21 20 20 20 19 17 16 15 13 13 14 14 13 13 13 12 12 10 10 9 10 10 13 13 13 13 12 12 12 11 11 10 9 8 8
20 18 18 19 19 19 23 22 23 22 23 23 22 21 20 19 17 16 17 17 17 17 17 16 15 14 13 12 13 13 15 16 17 16 15 13 12 12 11 11 10 9 9
23 21 22 21 23 24 23 23 22 22 23 24 24 23 23 22 21 20 19 19 19 19 20 19 17 16 16 16 16 17 18 19 19 17 16 15 13 13 12 11 10 9 9
27 28 28 28 27 30 30 29 27 24 24 24 24 25 24 24 23 22 22 22 21 21 22 20 19 18 18 19 20 20 19 19 18 17 16 15 15 14 13 12 11 10 10
35 35 33 34 32 31 31 31 31 31 28 27 26 26 25 25 24 24 24 24 23 23 23 22 20 20 21 21 21 20 20 19 19 18 17 16 16 15 14 13 13 13 13
41 41 40 39 36 33 33 32 32 33 33 32 34 32 30 30 28 26 25 25 25 24 25 23 22 22 22 22 22 21 21 21 19 19 18 17 17 16 16 15 15 15 15
45 44 45 44 41 38 37 37 36 36 33 34 33 34 34 33 30 30 28 27 26 25 25 24 23 23 23 24 23 22 21 21 20 20 19 19 19 18 18 19 18 18 18
50 50 48 47 46 44 44 44 41 38 34 35 33 33 32 33 34 33 31 29 28 26 26 26 26 26 24 24 24 22 22 22 21 20 20 21 21 21 21 22 22 21 22
47 50 53 53 52 52 51 48 46 44 44 39 37 36 36 36 35 36 34 32 30 29 28 28 27 26 25 25 25 24 24 23 21 21 21 22 23 24 24 25 25 25 25
39 41 44 46 46 50 51 55 55 53 51 48 46 42 41 40 36 37 34 34 36 35 33 32 30 28 28 26 25 26 26 25 23 24 24 24 24 25 26 27 28 29 28
23 30 36 39 39 40 42 46 48 53 57 56 55 51 46 44 42 39 38 38 36 37 37 36 34 32 30 29 28 30 29 29 29 30 28 27 26 27 28 29 31 32 33
16 18 22 26 30 36 43 48 43 43 45 45 46 48 54 50 48 47 44 42 37 39 41 39 38 36 33 33 35 31 33 35 35 35 34 32 30 29 32 34 34 35 36
21 23 25 27 29 31 32 37 47 48 41 42 42 41 41 45 50 54 53 51 49 44 41 39 40 38 37 36 34 35 33 33 34 33 33 35 31 33 34 38 40 40 41

GFSSE_700_spd_048.txt.gz
Wind_Speed
9 6 5 4 7 9 10 11 11 9 9 9 9 9 8 8 7 7 8 8 7 6 3 7 6 5 4 6 8 7 7 7 7 7 7 8 7 6 4 4 5 5 6
12 9 9 4 6 9 11 10 10 9 9 9 9 10 10 10 9 8 7 7 7 7 6 9 9 7 4 4 6 6 6 5 5 4 5 5 4 4 4 5 5 6 7
13 13 11 7 6 7 9 9 9 10 9 9 9 10 11 11 10 9 7 6 6 6 9 8 8 6 6 5 5 5 4 4 4 4 4 4 4 4 5 6 6 6 7
16 15 14 10 8 6 7 8 8 9 9 8 8 9 10 10 10 9 8 6 5 8 7 6 6 5 4 4 4 4 4 3 2 2 3 4 5 6 5 5 5 6 6
17 18 16 13 10 8 7 5 5 8 8 7 7 8 8 8 9 9 8 7 7 6 5 5 4 4 3 3 2 2 2 1 1 2 3 3 5 5 5 5 5 5 5
15 18 17 15 13 10 9 2 3 6 7 7 7 7 8 8 9 8 9 8 8 7 6 6 5 4 3 3 3 2 1 0 1 1 2 2 4 4 4 4 5 5 6
13 15 17 16 15 13 11 7 4 5 6 5 6 7 7 8 9 9 10 9 9 9 9 8 7 6 5 5 4 4 3 2 2 2 3 3 4 5 5 5 5 6 6
12 14 15 16 17 17 13 10 6 4 2 2 3 4 5 6 6 8 10 11 10 10 9 8 6 6 5 5 5 4 4 3 4 4 4 5 6 6 6 6 7 7 7
14 13 16 17 17 18 15 14 11 8 2 1 1 1 1 2 3 5 6 7 8 8 8 8 8 7 7 6 6 5 4 3 3 4 4 5 6 6 6 7 7 7 8
14 15 14 17 18 19 19 16 14 12 7 6 6 2 2 2 1 0 1 3 4 4 5 5 5 5 5 5 5 5 4 4 4 4 5 6 7 7 8 8 9 9 9
13 14 15 16 20 21 22 19 16 15 12 11 10 8 5 4 5 4 3 2 2 1 1 1 2 2 3 4 5 6 7 7 7 7 6 7 8 8 9 9 8 9 9
13 13 13 17 18 22 23 22 19 17 16 14 13 12 10 9 8 8 7 6 5 6 5 6 6 5 5 5 6 7 8 9 9 10 10 10 9 9 9 9 8 8 8
15 18 17 16 17 19 22 24 22 19 18 18 17 16 15 14 13 11 11 11 10 10 9 9 9 10 9 9 9 9 10 12 12 13 12 13 11 10 10 9 8 7 6
21 20 20 21 20 18 19 22 23 23 20 20 20 20 19 19 17 16 15 15 15 14 14 13 13 13 12 12 13 13 13 14 15 15 15 15 13 12 11 10 8 8 7
24 22 22 22 20 19 21 21 23 23 24 24 24 24 24 23 22 21 20 19 18 18 18 18 16 16 15 15 15 15 16 17 18 19 19 17 15 13 12 11 10 9 7
27 26 22 22 23 21 21 21 23 25 25 25 26 27 27 27 27 25 24 23 22 21 20 21 20 20 19 17 17 17 19 20 19 19 19 17 16 14 13 12 11 10 9
30 29 27 24 25 24 24 26 26 27 26 26 26 28 29 30 29 28 27 26 25 24 23 24 23 23 22 20 19 20 21 20 20 19 19 18 17 16 14 13 12 12 11
34 33 31 31 30 31 31 30 31 31 33 31 28 26 29 30 30 30 30 29 28 28 26 26 26 25 24 22 22 22 22 21 21 21 20 20 19 17 16 15 15 15 14
38 38 38 37 37 36 35 36 33 35 34 35 36 35 31 30 29 30 30 31 32 31 29 28 27 26 26 24 25 23 23 22 21 22 21 21 20 20 19 17 17 17 17
43 43 44 44 43 41 40 40 38 37 35 35 37 38 38 37 36 35 34 32 32 32 31 30 29 28 27 26 27 25 25 24 23 22 22 21 21 21 21 20 20 21 20
43 45 46 47 46 44 45 44 43 41 38 39 35 35 37 37 37 38 38 36 36 33 32 31 32 30 29 29 29 28 27 26 25 23 22 23 22 22 22 23 23 24 24
42 45 47 48 49 50 49 49 48 46 44 42 40 39 36 37 38 37 36 36 37 36 36 33 34 33 32 31 30 30 30 29 27 24 23 24 24 24 24 25 26 27 28
38 40 42 44 45 47 48 50 53 55 55 51 48 44 41 39 39 39 39 39 38 39 39 37 35 36 35 32 32 32 33 31 28 26 25 26 27 27 27 27 27 29 30
30 31 32 35 39 41 41 42 42 45 49 49 47 47 47 47 44 44 45 45 43 41 40 38 38 38 40 37 36 35 35 34 31 30 38 35 33 33 31 30 30 31 33
19 21 22 23 25 29 34 39 42 45 45 44 45 45 45 48 51 52 50 48 47 44 42 42 40 41 43 42 40 38 38 37 36 39 35 37 36 36 34 35 35 35 37
22 23 24 26 28 29 31 34 35 37 40 46 49 47 42 42 40 41 48 53 50 51 48 45 44 43 43 44 44 43 40 40 38 36 36 36 34 37 37 38 40 39 41

GFSSE_700_spd_051.txt.gz
Wind_Speed
7 5 5 4 9 11 10 10 10 9 8 9 9 9 9 8 8 8 7 7 7 5 3 4 3 3 3 6 8 9 8 6 7 8 7 7 8 8 6 5 6 6 7
10 8 7 4 7 10 10 10 10 10 8 8 8 9 9 8 8 7 6 7 7 6 11 9 7 6 4 4 5 5 5 5 5 6 7 6 6 5 5 6 6 7 8
12 12 10 7 6 7 9 10 10 10 9 9 8 8 8 8 8 7 7 6 7 7 9 8 7 6 6 4 4 4 4 4 4 4 4 4 4 5 6 6 7 6 6
15 16 13 10 7 6 6 8 9 10 10 8 8 8 8 8 8 8 8 7 5 8 8 6 6 6 5 4 3 2 1 1 1 2 4 4 5 6 6 6 6 6 5
17 18 16 14 10 8 6 6 7 8 10 8 7 8 8 9 8 8 8 7 7 7 6 6 6 5 5 4 3 2 1 1 2 3 3 5 5 5 5 5 5 4 3
17 20 18 15 12 10 7 5 4 7 9 7 8 8 8 8 8 8 8 8 8 8 6 5 5 5 4 3 3 2 1 0 1 2 3 3 4 4 4 5 5 6 5
15 16 17 17 15 12 10 7 4 3 6 6 7 7 8 8 9 10 9 8 8 8 7 7 6 6 5 5 4 4 3 2 2 2 3 4 5 4 4 5 6 6 6
11 12 15 17 17 16 13 11 9 3 2 3 3 4 5 6 6 7 8 9 9 8 8 7 6 6 5 5 4 4 3 3 3 3 5 4 5 6 6 6 6 7 8
11 13 14 16 17 18 16 15 13 9 4 2 1 1 2 3 3 5 6 5 5 6 7 7 6 6 6 6 6 5 5 5 5 5 7 6 7 7 8 7 8 9 9
17 14 13 17 18 19 20 17 15 14 11 9 6 4 1 2 2 3 3 2 2 2 3 4 4 4 5 5 6 7 7 6 6 7 8 8 8 8 8 8 8 9 9
17 16 15 14 16 19 21 21 19 18 16 13 11 9 7 5 4 5 5 5 4 3 3 3 3 3 3 4 5 6 8 9 9 9 10 10 9 10 10 9 9 8 8
16 16 17 17 17 18 21 22 22 21 20 17 14 13 12 11 10 8 9 9 8 7 7 7 7 7 7 6 6 6 8 10 12 13 11 12 11 11 10 10 9 8 8
18 19 18 18 17 19 19 22 23 23 21 20 18 16 16 16 14 14 13 13 13 13 11 11 10 10 10 11 10 10 10 11 13 15 14 15 13 13 11 10 9 8 7
19 20 22 22 21 19 19 20 23 24 22 21 20 21 20 20 19 18 17 17 17 16 16 16 15 14 14 14 14 13 14 15 16 18 16 19 17 16 14 11 10 9 8
23 23 22 22 24 24 21 20 20 23 24 23 23 23 25 24 23 23 21 21 21 20 19 19 19 19 18 18 17 16 17 17 19 20 20 18 17 17 16 14 12 11 9
27 28 26 24 23 24 22 21 22 25 26 26 25 26 27 28 27 28 27 26 25 24 22 22 22 23 22 21 20 20 19 19 21 21 21 17 18 17 16 15 13 12 11
29 31 31 27 25 24 26 25 25 24 24 26 27 28 27 29 32 31 31 30 30 28 27 27 25 26 26 25 24 23 22 22 22 22 21 20 18 18 17 17 15 14 13
35 34 31 30 29 28 29 28 27 27 28 29 30 31 29 28 31 33 33 33 33 32 31 30 29 28 28 28 28 26 25 23 23 23 22 22 20 19 18 18 18 17 16
35 35 36 35 35 33 33 33 34 33 34 32 34 34 34 33 32 32 32 31 33 35 34 33 32 32 31 30 30 30 28 26 25 25 23 22 22 21 19 20 20 20 19
39 40 41 41 41 39 39 40 40 39 38 37 37 37 35 37 37 38 36 35 35 36 34 34 33 33 33 33 32 32 31 29 28 27 25 23 23 22 22 20 22 22 22
38 38 39 41 43 43 44 45 49 43 41 41 40 39 38 36 36 38 39 40 40 41 38 36 34 34 35 35 35 35 34 32 31 30 27 26 24 23 23 23 22 24 25
38 39 40 41 43 44 45 46 49 48 44 43 43 43 43 41 39 37 38 39 42 41 41 40 37 36 36 36 36 36 37 36 34 32 30 28 27 25 24 25 25 26 27
36 36 37 38 39 41 42 45 47 51 47 46 45 46 46 47 46 44 42 41 39 41 41 38 39 38 37 37 36 38 38 39 37 34 33 31 29 26 24 30 28 28 30
32 33 33 33 34 35 36 38 40 42 44 42 41 42 43 45 48 48 47 45 43 44 43 43 42 42 42 42 38 40 40 41 38 37 36 35 33 32 36 33 37 37 33
24 24 23 24 25 26 28 30 34 38 40 41 42 42 43 43 43 47 51 53 51 50 48 47 50 49 44 45 41 41 42 43 42 40 41 38 39 39 35 35 35 36 36
21 21 23 24 26 27 28 29 31 33 34 36 37 38 38 40 44 46 44 50 55 56 55 53 52 51 48 45 46 44 44 45 44 44 42 44 40 39 38 36 37 38 38

GFSSE_700_spd_054.txt.gz
Wind_Speed
6 8 6 6 10 11 12 10 11 10 9 8 9 9 9 9 8 8 8 8 8 6 6 6 5 4 5 7 9 9 8 6 6 7 7 7 7 6 6 5 5 5 6
9 8 7 7 9 10 11 11 11 11 10 9 9 9 9 9 8 8 7 7 7 7 9 9 8 6 3 4 5 5 5 6 5 4 4 5 5 4 4 5 6 7 7
11 11 10 8 7 9 10 11 12 12 10 9 9 9 10 10 10 9 8 7 8 9 9 8 8 8 7 4 2 2 2 2 3 3 2 3 3 4 5 6 6 6 6
13 14 12 10 6 5 7 9 11 12 12 10 9 9 10 10 9 9 9 9 8 9 8 8 8 8 7 6 5 3 2 1 1 2 3 2 4 4 5 5 6 6 6
15 15 14 12 8 6 5 6 8 11 13 10 10 9 9 9 9 9 9 9 9 8 8 8 8 7 7 6 4 3 2 1 1 2 4 3 4 4 4 4 4 4 4
15 16 17 14 12 9 5 4 4 7 10 10 9 9 9 10 10 9 9 9 9 9 9 9 8 8 7 6 5 4 3 3 3 3 4 4 4 5 5 6 6 4 4
14 18 18 16 15 12 10 6 4 3 6 9 9 8 9 9 9 11 11 10 9 9 9 8 8 9 8 8 7 6 5 5 5 5 5 5 6 5 5 6 7 6 5
14 15 16 17 16 15 13 10 7 3 3 5 8 7 6 6 8 8 8 8 9 9 9 10 10 9 9 8 7 6 6 6 6 6 7 7 7 6 6 6 7 7 6
10 12 14 15 16 17 17 15 12 8 5 2 2 5 5 4 4 5 7 7 6 7 7 8 8 8 8 7 7 7 7 8 8 9 8 8 7 7 7 7 8 8 7
11 13 12 14 17 17 18 17 15 12 9 7 3 2 2 3 3 3 3 4 5 5 6 6 6 5 5 5 5 6 7 8 9 9 10 9 9 9 9 9 9 9 9
16 18 18 14 15 17 18 19 18 16 14 11 9 8 7 4 3 4 5 5 5 5 6 5 6 6 5 6 6 6 7 9 10 11 11 10 10 11 10 10 9 8 8
15 17 18 20 17 16 18 19 20 19 18 17 15 13 12 10 8 7 7 7 7 8 8 8 8 9 9 9 9 9 9 10 12 14 13 13 12 13 12 11 10 9 8
16 16 18 19 20 19 18 17 19 20 20 19 18 17 16 15 13 13 13 12 11 11 11 12 12 12 11 12 14 13 12 13 13 15 14 16 15 15 14 13 11 10 9
16 15 17 19 20 20 18 20 20 20 21 22 20 19 20 20 18 18 17 17 17 16 15 15 15 16 16 16 16 16 17 16 17 16 17 18 17 16 15 14 13 11 10
20 19 20 19 20 21 21 20 20 21 23 23 25 23 22 22 22 22 22 21 21 21 21 20 19 19 19 19 19 19 19 19 20 19 21 18 18 16 15 15 14 13 12
25 24 23 22 22 21 21 23 23 23 23 22 22 23 25 26 25 25 26 26 26 26 26 25 25 24 23 23 22 22 22 21 21 23 23 19 18 17 17 16 15 15 14
29 29 27 25 24 25 23 23 26 24 23 23 23 24 24 25 27 27 28 30 29 29 29 30 29 29 28 27 25 24 25 24 23 24 23 23 19 19 18 17 17 16 16
28 29 30 30 27 27 27 26 25 26 27 27 27 27 27 26 27 28 28 30 31 31 30 31 31 32 31 30 29 27 27 27 26 25 26 23 22 20 20 19 19 18 18
32 31 31 31 33 29 29 32 27 28 31 31 30 30 31 31 32 32 32 31 30 31 30 30 30 32 32 32 32 31 30 30 29 28 27 27 24 22 21 20 20 19 20
35 34 35 37 37 36 34 34 36 33 33 35 35 36 35 36 35 35 35 35 35 36 36 34 32 32 31 31 33 35 34 33 32 31 30 28 27 26 23 22 21 21 21
35 35 35 35 37 38 38 39 42 40 38 38 38 38 40 41 39 38 38 36 36 38 38 38 38 37 36 34 35 35 37 34 35 33 33 31 29 28 29 25 23 21 21
34 36 35 35 36 38 41 41 43 46 45 43 42 42 43 45 43 41 41 40 39 40 40 41 40 39 39 38 38 35 37 37 36 36 35 34 32 31 31 30 26 24 22
33 33 34 34 34 35 35 37 38 41 45 43 38 37 38 42 46 46 45 45 44 43 43 43 41 40 40 38 38 37 38 39 37 37 37 36 35 33 32 33 31 28 29
31 31 31 30 30 30 30 31 32 34 38 42 40 37 35 35 36 40 46 49 48 46 46 46 45 45 44 43 41 39 39 42 42 40 38 37 36 36 34 35 35 35 34
26 26 25 24 25 24 24 26 27 29 30 32 35 35 35 34 34 36 38 41 47 51 52 51 49 50 51 49 47 44 43 43 45 42 41 41 40 39 38 37 38 39 40
21 21 22 22 23 24 25 26 28 29 29 30 30 32 33 34 35 35 35 35 39 43 45 49 52 55 56 56 54 51 49 46 46 46 43 42 42 41 40 42 45 45 44

GFSSE_700_spd_057.txt.gz
Wind_Speed
12 12 12 11 11 11 11 9 9 9 8 8 8 8 8 9 8 7 7 7 6 7 8 7 5 3 5 10 11 10 9 8 7 6 7 6 6 6 4 4 5 5 5
12 11 12 11 9 8 11 11 12 12 11 10 10 10 10 9 9 8 7 7 7 9 9 9 8 6 4 4 5 5 5 5 5 5 5 5 4 4 4 5 5 6 6
13 12 12 11 8 7 10 12 14 14 11 10 10 10 10 10 10 10 9 10 9 8 9 9 9 8 7 5 3 2 2 2 2 2 3 3 3 4 5 6 6 5 5
14 14 13 11 9 6 7 9 12 15 13 11 10 10 10 11 11 11 11 11 10 9 9 9 8 8 7 6 5 3 2 2 2 2 2 4 4 5 5 6 6 5 4
15 16 14 12 10 6 4 6 9 12 16 14 11 11 11 11 11 11 11 11 11 10 9 9 8 8 7 7 6 5 4 4 5 5 5 5 5 4 4 5 5 5 5
15 17 16 14 12 8 4 2 5 8 13 15 12 11 10 11 11 12 11 11 11 11 11 11 11 10 9 8 8 7 6 7 7 7 7 7 6 6 6 6 6 5 5
16 17 18 16 13 11 8 5 2 4 8 12 13 10 10 10 9 10 11 12 12 11 11 11 11 10 9 9 8 8 7 8 8 7 7 7 6 6 6 7 6 6 6
15 17 19 17 15 14 12 9 6 2 3 5 8 12 10 8 8 9 9 8 9 10 11 11 11 10 10 10 10 10 10 10 10 9 8 7 6 7 7 7 7 7 6
13 15 17 16 16 15 15 13 11 7 4 1 3 7 9 8 6 6 7 8 8 9 9 9 9 8 8 8 8 9 9 8 9 9 10 10 9 9 8 8 8 8 8
10 11 13 15 16 17 17 16 14 12 9 6 3 0 3 5 7 6 5 5 5 5 5 6 7 7 8 8 9 9 10 11 11 10 10 10 10 10 10 10 9 9 8
11 10 11 13 15 16 17 17 16 15 13 11 9 6 5 3 2 3 3 5 6 6 7 6 7 8 8 8 9 10 10 12 13 12 13 12 12 11 10 11 10 10 9
13 14 15 14 14 14 14 15 16 17 16 15 14 12 11 10 8 6 5 6 6 8 9 8 8 9 10 10 11 11 11 12 13 13 15 15 15 14 13 11 11 10 9
14 15 15 15 17 18 14 13 14 16 17 17 17 17 16 15 13 12 12 11 10 11 11 11 11 11 13 14 14 14 15 15 14 15 15 17 18 17 16 13 12 12 11
15 15 14 12 13 14 16 16 17 17 18 18 20 20 20 19 17 17 16 16 16 16 16 15 16 15 15 16 17 18 19 18 17 17 16 16 18 17 16 15 14 13 12
19 17 16 15 15 14 15 17 18 17 18 19 20 22 23 22 20 19 20 20 21 20 20 20 20 20 20 20 19 19 20 21 20 20 19 17 17 16 16 16 15 14 14
24 20 20 20 19 18 18 19 20 19 20 20 21 21 23 23 22 22 22 23 24 24 24 23 25 24 24 25 24 23 22 23 23 21 22 21 19 18 17 16 16 16 15
29 28 26 23 23 23 23 22 21 22 22 24 23 24 23 24 24 24 25 25 25 27 28 28 28 28 27 27 27 27 27 26 26 24 24 23 21 20 19 18 18 17 17
29 32 30 28 28 28 27 26 25 25 25 25 25 24 23 22 23 25 26 26 27 27 27 27 28 29 29 30 29 28 29 29 29 28 26 25 24 22 21 21 19 19 19
28 29 31 31 29 27 27 29 28 27 29 26 26 27 26 26 27 29 29 29 30 31 31 30 29 29 28 28 28 29 30 31 31 33 31 28 27 25 23 23 22 21 20
32 32 32 32 32 32 31 31 30 30 31 30 30 29 29 32 33 33 33 32 31 32 32 32 31 33 33 33 33 32 32 32 33 34 34 33 30 28 26 25 25 24 23
33 34 31 32 35 36 37 37 35 33 32 32 33 33 34 36 38 39 38 37 35 35 34 34 35 35 35 34 36 38 37 35 35 33 35 36 33 31 29 27 28 26 25
31 32 32 33 33 33 34 35 38 38 38 38 37 38 40 42 42 43 43 41 39 39 38 38 38 39 39 37 38 37 40 39 38 35 34 34 35 35 33 31 29 29 28
30 30 31 32 32 33 34 35 35 36 37 38 38 37 37 38 40 43 44 43 42 42 42 42 42 42 42 42 41 40 43 42 37 35 34 34 34 36 36 33 31 31 31
30 29 30 30 31 30 31 31 31 31 34 36 36 35 36 35 34 36 37 39 39 39 40 41 44 45 45 45 45 45 44 43 44 43 37 36 37 37 36 35 33 33 34
29 27 27 27 27 26 26 26 27 28 30 31 32 32 30 31 30 30 34 37 39 40 42 42 41 44 46 50 50 50 50 48 47 47 47 42 40 40 39 38 36 37 36
24 23 23 22 22 23 23 24 25 27 28 29 30 32 31 31 32 32 32 33 34 35 34 37 37 40 42 44 48 48 50 51 51 49 50 47 44 42 42 40 42 42 45

GFSSE_700_spd_060.txt.gz
Wind_Speed
14 14 14 13 13 13 11 10 9 8 8 6 7 7 6 7 7 6 6 6 6 7 7 5 4 5 9 12 11 10 10 9 8 7 7 6 6 5 5 5 5 5 6
14 13 14 13 12 12 14 14 12 10 8 8 8 8 9 9 10 8 8 8 7 9 9 8 6 3 2 4 5 6 5 5 5 5 5 5 5 4 5 5 5 5 5
16 13 14 13 11 10 10 11 14 14 9 9 9 9 9 10 10 10 10 9 8 8 9 9 8 8 6 3 2 0 1 2 4 4 4 4 5 5 5 5 5 5 5
17 15 15 14 11 9 8 8 11 15 15 11 10 10 10 11 11 11 12 11 10 9 8 8 8 8 8 6 5 4 4 4 5 6 6 5 5 5 5 5 5 5 4
18 17 16 14 12 9 6 6 8 11 15 18 13 11 11 11 11 11 12 12 12 11 10 9 8 8 7 7 6 7 6 6 6 5 5 4 5 6 6 5 5 5 5
18 18 18 15 14 11 7 3 5 8 13 16 18 13 11 10 12 12 12 12 11 11 11 11 11 11 10 10 10 10 9 8 7 7 6 6 7 7 6 6 7 7 6
17 19 20 18 14 12 9 4 2 3 8 10 16 17 14 12 11 10 11 11 11 12 12 13 13 13 13 13 12 12 11 11 10 11 10 9 8 8 7 7 6 6 6
16 19 21 20 16 13 11 8 4 1 2 5 8 14 16 14 10 10 10 9 9 10 11 11 11 11 11 11 11 11 12 12 11 11 11 11 11 10 10 9 8 7 7
17 19 21 20 17 15 12 11 9 6 3 1 2 5 10 12 12 9 8 8 8 9 10 10 9 9 9 9 9 10 11 12 13 13 12 12 11 11 11 10 10 9 8
16 18 20 19 17 15 14 13 12 10 7 5 4 3 1 4 7 11 9 8 8 7 7 7 9 9 9 9 9 10 10 11 11 12 13 14 14 13 12 12 12 11 10
12 13 14 15 15 15 14 14 14 14 13 11 9 8 6 3 2 1 6 7 4 5 6 7 9 10 11 12 12 12 13 14 14 14 14 14 14 14 14 13 13 12 11
11 8 10 10 10 11 12 13 13 15 15 15 14 13 11 9 8 7 7 7 6 6 5 5 6 8 9 10 12 12 14 14 15 15 16 17 17 16 14 13 13 13 13
12 10 9 10 11 12 12 12 13 14 16 17 17 17 16 14 13 13 13 12 12 12 11 11 11 11 11 12 12 13 14 14 15 15 16 18 19 20 16 13 12 12 12
13 13 12 11 10 10 11 12 14 16 16 16 17 18 18 18 17 17 17 17 17 16 16 16 17 17 17 17 17 17 17 15 16 17 17 18 19 20 20 17 15 13 12
16 16 15 14 13 12 12 13 14 14 14 15 17 19 19 19 19 19 19 19 19 19 19 20 21 21 21 21 22 22 22 20 19 19 19 19 19 20 20 19 17 15 15
21 20 19 18 17 17 16 16 15 15 16 17 18 18 18 20 20 21 21 21 21 21 21 23 24 25 25 25 25 25 24 25 24 23 23 23 22 21 22 20 19 18 16
25 24 23 23 22 22 22 20 20 19 20 20 19 20 20 20 21 22 21 21 21 22 22 23 24 25 25 26 27 27 27 27 27 27 26 26 25 24 24 23 21 19 18
25 27 28 28 27 27 26 25 26 25 23 22 22 21 21 20 21 22 22 22 23 24 26 27 27 28 26 26 26 26 27 28 28 28 28 28 27 27 26 25 24 22 20
26 26 27 30 31 29 29 29 28 27 27 26 26 23 21 23 24 25 26 27 27 27 29 29 30 30 30 29 30 30 30 29 30 30 30 30 29 29 28 28 26 25 23
29 28 28 29 29 31 33 34 33 31 29 28 28 29 29 26 27 29 30 29 30 31 31 31 32 31 32 30 32 32 32 33 34 34 32 32 32 31 30 30 29 28 27
30 31 32 32 31 31 33 33 32 31 31 30 30 30 30 31 32 32 33 33 34 36 35 34 34 34 34 34 36 37 36 36 36 35 36 35 32 31 32 31 31 30 30
33 32 32 33 33 35 35 35 35 34 33 32 31 33 35 36 37 39 39 40 40 39 38 38 38 39 38 37 39 39 43 43 40 36 36 37 35 33 32 33 33 33 33
31 29 30 30 32 34 36 36 36 35 35 34 34 33 34 37 38 41 42 43 43 44 42 39 38 39 41 41 40 42 44 47 44 40 37 36 36 35 35 35 34 35 36
31 30 30 30 32 33 34 34 33 33 33 32 33 35 35 36 36 37 38 39 40 40 39 38 37 38 39 41 42 44 46 46 48 50 46 40 40 40 40 38 37 36 36
32 33 32 31 30 30 30 30 31 31 32 32 34 33 33 31 32 33 31 31 32 35 37 38 38 38 39 40 44 45 45 47 47 47 51 50 47 46 45 43 46 41 37
33 33 31 29 28 27 27 27 28 28 29 29 29 29 29 31 32 33 32 32 33 33 33 33 33 34 36 38 39 42 43 45 46 47 48 50 55 46 49 49 46 45 44

GFSSE_700_spd_063.txt.gz
Wind_Speed
9 12 12 13 15 16 14 13 11 10 9 9 8 9 9 8 7 7 7 8 10 10 7 6 8 10 12 13 11 11 10 10 9 9 9 8 7 7 7 7 7 7 7
11 9 11 12 13 14 16 18 16 11 10 9 9 8 9 9 10 9 9 10 11 11 10 8 4 1 2 3 5 6 5 6 7 7 7 6 6 7 7 8 8 7 7
16 9 11 12 10 10 12 15 18 18 13 11 10 10 9 11 12 13 11 11 11 11 10 10 9 9 7 6 5 5 5 6 6 6 7 7 7 7 7 6 6 6 6
18 14 12 13 9 7 8 11 14 17 19 15 11 10 11 11 12 13 13 12 11 11 11 11 11 11 11 11 10 9 8 7 8 8 8 8 9 7 5 5 6 6 6
17 16 14 14 11 6 5 6 10 14 18 20 16 13 13 13 13 13 13 13 14 14 14 13 13 13 13 12 12 11 10 10 10 10 10 10 9 9 8 8 8 9 9
19 18 16 15 12 8 5 5 7 10 13 16 19 19 14 13 13 13 13 14 15 15 14 14 15 15 15 14 13 13 12 13 13 12 11 12 12 12 11 11 10 10 10
19 19 18 16 14 11 8 5 5 5 7 11 15 18 18 15 13 12 12 13 13 13 13 13 13 13 13 13 13 13 13 13 13 13 14 14 14 14 13 12 11 10 10
20 21 19 18 15 13 11 8 4 1 3 7 8 13 14 17 15 12 12 11 11 11 11 12 12 12 13 13 13 13 14 14 14 14 14 14 13 13 13 13 13 12 11
18 21 21 20 17 14 12 9 7 4 2 2 4 5 8 11 13 14 13 10 9 9 9 10 11 11 11 11 11 12 13 14 14 14 15 16 15 14 14 13 12 12 12
17 18 21 21 19 16 12 11 10 8 6 4 2 1 1 3 5 8 9 10 9 9 10 11 11 11 12 12 13 13 13 13 14 15 16 17 17 16 16 16 13 11 11
19 18 18 20 18 16 15 14 13 12 11 10 8 7 6 4 3 3 3 4 5 6 7 8 9 9 10 11 12 13 14 14 14 15 15 16 18 18 19 17 16 14 12
14 14 14 15 15 14 13 12 12 13 14 14 13 12 11 10 9 8 8 7 7 8 8 8 8 8 8 8 9 11 13 14 14 15 15 16 17 18 19 19 18 16 14
14 12 10 10 10 11 11 11 11 12 13 15 15 15 15 15 14 13 13 12 12 13 13 14 14 14 14 14 14 14 13 14 14 15 15 16 17 18 19 20 19 17 17
12 12 10 9 8 8 9 11 12 12 13 14 15 16 16 16 17 17 17 16 16 16 17 17 18 18 18 18 19 19 19 19 19 18 18 18 18 18 19 20 20 19 17
15 13 11 11 10 10 10 11 11 12 13 15 16 16 17 17 17 18 18 18 18 18 19 20 20 21 21 21 22 22 22 21 22 22 22 22 21 20 20 20 21 21 19
17 15 15 14 14 15 15 14 14 13 14 14 15 17 17 17 18 19 19 20 20 19 20 20 21 21 21 22 23 23 23 23 24 24 24 25 24 22 21 21 21 22 21
20 21 19 19 20 20 20 20 19 19 19 18 17 18 18 18 18 19 19 19 20 20 21 22 22 22 22 23 23 23 24 25 26 25 25 26 26 25 25 24 23 22 22
22 24 24 24 24 24 24 24 23 24 23 22 21 21 20 20 21 20 20 19 22 23 24 25 24 25 25 26 27 26 26 26 26 26 27 28 27 28 28 27 27 26 24
22 21 24 25 26 26 27 27 27 27 27 25 25 24 23 22 21 23 24 24 26 28 29 28 28 28 28 28 29 30 31 32 31 30 29 28 28 28 28 29 29 28 28
26 26 26 25 26 27 28 28 29 30 29 29 27 26 25 25 27 29 28 27 30 32 31 30 31 32 33 32 33 34 34 35 35 34 33 33 31 31 31 30 31 31 31
32 30 29 29 29 28 29 30 31 31 31 31 29 29 29 29 29 30 31 31 32 34 34 35 36 36 35 35 37 38 38 37 38 37 35 35 33 32 31 32 32 32 32
32 33 33 32 32 31 32 33 34 34 34 32 31 31 32 33 33 35 35 36 38 40 40 40 41 42 42 38 39 40 43 43 41 38 37 36 35 35 34 33 33 34 34
34 34 33 32 32 33 33 33 35 35 35 34 33 32 32 34 36 38 39 40 41 42 42 41 41 41 41 40 39 38 42 45 44 42 41 39 37 38 38 37 37 38 37
30 31 31 32 32 32 32 33 34 34 34 34 34 33 33 35 36 38 38 38 38 38 39 39 39 39 40 39 39 40 41 43 45 49 45 43 41 42 40 42 42 42 43
34 35 34 34 34 34 34 33 34 34 33 33 33 34 34 35 35 34 33 32 32 32 32 33 33 33 34 35 37 36 36 38 40 42 48 45 42 41 41 43 44 47 46
36 35 35 35 35 35 34 32 32 32 32 32 32 33 33 32 32 32 33 34 34 34 32 32 32 32 31 33 34 36 38 40 39 41 44 45 43 42 41 39 45 44 42

GFSSE_700_spd_066.txt.gz
Wind_Speed
9 12 14 16 18 19 18 15 13 13 11 11 10 12 13 13 12 11 11 12 12 9 5 4 6 7 9 10 9 8 8 8 8 9 9 9 9 8 8 8 8 8 7
8 10 11 14 16 18 20 22 18 14 12 11 12 13 14 14 14 13 13 14 14 13 12 9 5 4 4 5 5 5 6 8 9 10 10 10 10 10 9 9 9 9 8
10 8 9 11 12 14 16 20 22 21 16 14 14 13 13 14 15 15 14 14 15 14 14 14 14 13 13 12 10 9 9 10 10 11 11 12 12 11 10 10 9 9 8
13 8 8 9 10 10 12 15 18 21 22 18 15 14 14 14 15 15 15 16 16 16 16 15 16 15 14 13 13 12 12 12 13 13 14 15 14 12 11 11 11 10 9
17 13 8 9 8 7 8 10 14 16 19 20 18 15 14 15 15 15 15 16 17 17 17 17 17 17 16 16 15 15 15 15 16 16 16 15 14 13 13 12 12 13 12
18 16 12 10 9 6 5 7 9 11 15 18 20 20 17 15 14 14 15 15 16 16 16 16 16 16 16 16 16 16 15 15 16 16 16 15 15 15 15 14 14 13 13
21 18 14 12 11 8 6 4 5 7 10 13 16 18 20 18 16 14 14 14 13 14 13 13 14 14 14 14 14 14 15 16 16 16 15 15 15 15 15 14 14 13 13
21 19 16 15 14 11 8 6 4 4 5 7 10 12 14 17 17 17 16 14 13 13 12 13 13 13 12 13 13 13 13 14 15 15 15 16 16 16 15 14 13 13 12
21 22 18 16 15 14 11 9 7 4 2 3 4 6 8 10 12 13 14 14 15 14 15 14 14 14 13 14 13 13 14 14 15 15 16 16 16 16 18 16 15 13 12
19 21 22 20 18 15 13 11 10 8 6 4 3 0 2 3 6 7 8 9 8 9 9 11 12 13 15 16 15 14 14 15 16 16 16 15 15 15 17 17 16 15 13
19 19 20 20 20 18 15 14 13 11 9 8 7 6 5 4 4 2 2 3 5 4 4 4 5 6 7 8 9 11 12 13 13 14 15 16 16 16 17 18 18 16 14
20 18 18 19 20 19 17 15 14 13 12 12 12 11 10 9 9 8 7 7 8 8 8 8 9 10 11 12 12 11 12 12 12 12 13 15 15 16 17 17 18 18 16
16 16 16 16 17 17 16 14 14 12 13 13 14 14 13 13 12 13 12 12 12 12 12 12 13 13 14 15 16 15 16 15 16 16 16 17 17 17 17 17 18 18 18
17 18 16 13 12 12 12 12 12 12 12 13 13 13 13 14 15 15 15 15 15 15 15 15 15 16 17 18 19 19 18 18 17 18 18 20 19 19 18 18 17 17 17
18 15 14 12 12 12 12 12 11 12 13 13 13 14 14 15 15 15 16 16 17 17 18 18 18 19 19 20 21 21 21 21 21 19 20 21 22 21 21 21 20 19 19
17 15 14 12 12 12 13 12 12 12 13 12 13 14 15 15 16 15 17 17 18 19 20 20 19 20 21 22 22 22 22 22 22 22 23 24 24 24 23 23 23 22 21
17 17 15 15 15 15 16 16 16 16 16 16 17 16 17 16 16 16 18 18 19 20 20 21 21 22 23 24 23 24 24 24 23 22 23 24 24 25 26 26 24 24 23
20 18 18 18 18 19 20 21 21 21 21 21 20 21 20 19 19 19 20 20 21 22 23 24 26 27 27 27 27 26 26 26 26 26 27 26 25 25 25 25 26 25 25
24 24 23 22 22 23 23 24 25 26 25 24 24 24 23 22 23 23 22 22 25 27 28 29 29 31 31 30 30 29 29 30 30 30 29 27 28 29 29 28 27 27 27
22 23 24 24 23 23 23 24 24 25 26 26 26 26 26 26 25 26 27 27 29 30 30 32 33 33 33 34 34 34 33 33 33 34 33 31 30 29 29 28 29 29 29
25 25 26 27 27 26 27 25 25 26 27 28 28 29 29 28 28 29 29 29 30 31 32 33 34 36 38 38 41 41 40 39 37 36 35 34 33 32 31 31 31 31 32
31 31 30 29 29 29 29 29 29 30 30 29 30 30 31 32 32 32 32 32 34 35 35 36 38 42 42 41 42 42 43 38 37 36 34 34 32 32 32 33 33 33 33
32 32 32 32 31 31 30 31 31 31 31 31 32 32 33 33 34 35 35 35 36 38 38 38 39 40 41 40 38 38 41 42 40 39 38 37 35 33 33 33 36 36 38
32 34 33 33 33 32 30 31 31 31 31 32 33 33 34 35 35 36 36 37 36 36 37 36 37 38 38 37 35 33 36 38 40 43 41 37 35 34 35 33 35 36 40
29 31 32 32 33 32 32 33 33 33 33 33 33 33 35 36 37 37 37 36 35 35 34 33 34 35 35 35 35 35 36 36 36 39 43 43 41 37 39 39 37 37 39
32 33 34 36 37 35 35 34 34 34 34 33 33 33 34 35 35 34 34 34 34 34 35 35 35 35 35 36 36 35 36 35 38 40 42 43 42 39 36 36 34 33 32

GFSSE_700_spd_069.txt.gz
Wind_Speed
12 14 18 20 20 21 18 16 15 14 14 14 14 15 15 14 15 15 15 16 13 9 6 3 1 3 5 6 5 4 7 9 9 10 11 11 11 11 10 9 8 8 7
10 13 16 18 20 22 23 22 17 16 15 14 14 15 16 16 16 16 16 17 17 15 12 10 7 7 7 8 8 9 10 10 11 12 12 12 11 11 10 9 9 9 8
11 11 14 16 17 19 21 23 23 19 16 15 16 16 16 16 17 17 16 16 17 16 16 15 14 13 13 13 13 12 12 13 14 14 15 15 14 12 11 11 11 10 10
12 10 13 13 14 15 17 19 21 21 21 18 16 15 15 16 16 17 18 19 19 19 18 17 16 16 16 16 16 16 16 16 16 17 17 16 15 13 13 13 12 11 12
14 10 12 11 11 11 12 14 17 19 22 22 18 16 15 16 16 17 18 18 19 18 18 18 18 18 18 18 18 17 17 16 17 17 16 15 15 15 15 15 15 15 13
16 13 11 10 9 9 8 10 13 15 18 20 20 18 16 16 15 16 16 16 16 15 15 15 16 16 16 15 15 14 14 14 15 15 14 14 14 14 14 13 13 13 13
18 17 14 11 10 8 6 6 8 10 13 15 16 18 19 19 18 17 17 16 15 14 14 14 15 14 14 13 14 13 14 14 14 14 14 14 14 15 14 12 12 12 12
21 19 16 14 12 10 7 5 5 6 8 9 11 13 15 17 18 18 19 18 17 16 16 16 15 15 15 15 14 15 15 16 15 14 14 15 15 16 16 15 13 11 11
23 21 18 16 14 13 11 9 6 5 5 4 5 7 9 11 12 13 13 12 12 13 14 14 14 15 15 15 15 15 16 16 16 16 16 15 15 16 16 16 15 13 10
23 23 21 18 16 15 14 12 10 8 6 5 2 1 3 4 5 7 7 8 8 8 8 7 7 8 8 7 8 8 9 9 9 11 12 12 14 14 15 15 16 15 12
24 24 24 22 19 18 16 14 13 11 9 7 6 5 3 3 3 2 1 1 2 2 3 4 5 5 6 7 7 7 8 9 10 10 10 11 11 11 13 14 14 15 15
23 23 24 23 21 20 19 18 16 14 12 11 10 9 8 8 7 7 7 7 7 7 8 9 9 9 9 9 10 10 12 13 14 14 14 14 14 13 13 13 13 14 14
21 21 22 22 22 21 20 19 17 15 14 13 13 12 12 12 11 12 12 11 11 11 12 12 13 13 13 13 13 14 15 16 17 17 16 16 17 17 16 16 16 15 15
19 23 23 21 20 20 20 19 17 15 15 14 13 12 12 13 14 14 14 13 14 14 14 15 15 15 16 16 16 16 17 18 19 20 20 20 19 19 19 19 18 18 17
18 18 18 18 17 17 17 17 16 15 15 14 13 13 13 14 15 15 15 15 15 16 16 16 17 17 18 18 19 19 20 20 21 22 23 23 22 22 22 22 21 20 19
19 18 17 17 17 17 16 16 16 14 13 13 12 13 14 14 16 16 16 16 17 18 19 18 18 19 20 20 21 22 23 23 23 23 24 24 23 23 23 23 23 22 21
19 19 18 17 16 16 16 15 15 15 14 15 15 15 14 15 16 17 17 17 19 20 20 21 21 21 22 23 24 25 26 26 24 24 25 25 24 24 24 24 24 24 23
23 19 19 17 16 16 17 18 18 18 18 18 18 19 18 18 19 18 19 19 21 22 23 24 25 25 26 27 28 28 28 28 28 28 27 26 25 25 26 26 26 26 26
21 21 20 20 19 20 21 21 22 22 22 22 22 22 21 22 21 21 22 22 24 25 25 27 28 30 30 31 31 30 30 32 32 32 30 30 29 28 28 28 28 28 28
20 20 20 21 22 22 23 22 23 24 24 24 24 25 26 26 26 25 25 25 27 28 29 31 32 32 33 33 34 35 35 35 36 36 35 34 32 31 30 30 31 31 31
21 21 22 23 23 23 23 24 24 23 24 25 26 27 28 29 29 28 28 28 30 30 31 32 34 36 37 37 40 39 40 39 37 34 34 33 32 31 32 33 33 33 33
21 21 23 25 26 27 27 27 27 26 27 28 29 29 30 31 31 32 31 31 32 33 33 34 36 39 40 39 42 42 42 38 33 31 31 31 30 31 32 34 34 33 35
23 24 26 27 27 27 27 27 29 29 29 30 30 30 30 31 32 33 33 33 34 35 35 35 36 37 38 38 37 38 40 39 36 33 31 30 28 26 26 27 29 32 34
26 28 30 31 31 30 30 30 30 30 30 30 31 31 32 33 34 34 34 35 35 36 36 35 35 35 37 35 35 33 35 36 37 39 37 32 27 28 29 31 31 31 32
27 26 27 28 29 30 30 30 30 31 32 32 33 33 34 34 34 34 34 34 35 34 33 32 32 32 33 35 35 36 35 36 36 38 40 38 36 33 30 31 31 29 30
27 27 28 28 29 30 31 33 33 34 34 34 34 34 34 33 33 33 33 33 33 33 33 33 34 35 36 36 37 37 35 36 36 35 37 38 36 34 29 28 29 27 26

GFSSE_700_spd_072.txt.gz
Wind_Speed
14 16 18 20 19 17 16 16 15 15 15 15 15 14 14 15 15 15 15 13 11 9 6 4 1 2 3 4 5 6 9 10 10 10 10 10 10 9 9 9 8 8 7
13 15 18 21 22 22 20 18 16 16 15 15 15 16 16 15 16 16 17 16 15 11 8 7 6 7 8 9 9 10 11 11 11 11 12 12 12 12 11 11 10 9 8
13 15 17 20 21 23 23 22 19 17 16 16 16 16 17 16 17 17 16 16 15 14 13 12 12 12 12 12 13 13 13 13 13 13 13 14 13 12 12 12 12 10 10
14 15 16 18 19 20 21 22 21 19 17 16 16 16 17 17 17 17 18 17 17 16 16 15 15 15 15 15 15 15 15 14 14 14 15 14 14 12 12 12 13 12 11
14 15 15 14 16 17 18 18 19 20 19 17 16 16 16 16 16 16 17 18 17 17 17 16 16 16 15 14 13 13 13 12 13 13 12 12 11 11 12 12 13 12 11
16 16 14 12 12 13 14 14 15 16 19 19 17 16 16 14 14 15 14 15 15 15 14 13 14 14 13 13 12 12 12 12 13 13 13 12 13 12 11 11 11 11 10
20 16 15 13 10 10 11 10 11 13 14 16 18 17 17 16 16 16 15 16 15 15 14 13 14 14 14 14 14 14 14 14 14 14 14 14 14 14 14 13 12 10 9
20 19 17 16 12 10 9 8 8 9 10 11 12 14 14 14 14 16 16 17 17 16 16 15 15 15 15 15 14 14 14 15 15 15 15 14 14 13 13 13 12 11 10
25 22 20 18 15 12 10 9 8 6 6 7 7 8 9 10 10 11 12 11 11 11 11 12 12 11 11 10 10 10 10 11 10 11 12 12 13 13 13 13 13 13 12
27 25 22 20 17 14 13 11 10 8 6 7 4 4 5 3 4 5 5 6 6 5 5 4 4 4 4 4 5 6 7 8 8 9 10 10 12 12 12 12 13 12 12
29 27 25 23 20 18 16 14 13 11 10 9 8 7 5 5 4 4 3 2 3 2 3 3 4 4 5 7 8 9 10 10 11 11 12 13 13 13 14 14 13 13 13
27 27 27 26 23 21 19 18 17 15 14 12 11 10 10 9 9 9 8 8 8 8 9 9 9 9 10 10 11 12 13 13 14 15 15 15 15 15 15 16 16 15 14
25 27 28 28 26 24 22 21 19 17 16 16 15 14 13 13 13 13 12 13 12 12 13 13 13 13 13 14 14 15 16 17 17 18 19 20 20 19 18 18 18 18 17
22 23 27 29 29 26 24 22 20 19 18 17 16 15 15 15 15 15 15 15 15 16 16 16 16 16 16 17 17 18 19 20 20 20 21 22 22 22 22 22 22 21 20
23 25 25 27 26 25 23 22 20 20 19 17 16 16 16 16 16 16 16 16 17 18 18 18 18 18 19 19 19 20 21 21 21 22 23 24 24 24 25 25 24 23 22
20 21 23 24 24 24 23 22 21 19 18 17 17 16 16 16 16 17 17 18 19 20 20 20 20 20 21 21 21 22 23 24 23 24 24 24 25 26 26 27 26 26 24
23 21 21 22 23 22 21 21 20 19 18 17 16 16 16 16 16 16 17 19 20 21 21 21 22 22 23 23 24 26 26 27 26 26 26 26 27 27 28 28 29 29 28
25 23 22 22 21 21 20 20 20 19 19 18 18 18 19 19 19 19 19 20 21 21 22 22 24 24 25 27 28 29 30 30 29 29 29 30 30 30 30 29 30 31 30
25 25 23 21 20 20 20 19 19 19 20 21 21 21 22 23 23 23 23 23 24 24 24 25 26 28 29 31 31 32 33 33 32 33 34 35 35 34 34 33 32 34 33
27 27 25 22 21 21 21 21 22 23 24 25 26 27 28 27 27 27 27 27 27 27 27 28 30 32 32 34 35 36 35 36 36 37 38 37 36 35 34 33 33 33 34
27 25 24 23 23 22 21 21 21 22 24 26 26 27 28 28 29 29 29 30 30 30 30 32 33 34 35 36 39 41 40 39 39 38 35 33 32 31 31 32 32 33 34
28 26 24 23 22 22 23 24 24 24 26 27 28 29 30 30 31 32 33 33 34 34 34 34 35 36 37 37 40 41 41 38 37 32 29 27 27 28 29 29 30 31 33
31 28 26 25 24 24 24 25 26 27 27 28 29 31 31 31 31 32 33 34 35 36 35 35 37 37 38 37 36 37 38 37 36 35 29 26 26 27 26 26 27 29 31
33 31 29 27 26 27 27 28 28 29 30 30 31 31 31 32 32 32 33 35 36 37 36 36 36 37 37 36 34 32 32 35 35 37 36 31 28 26 25 29 29 30 30
34 32 30 28 29 30 30 31 31 31 31 31 32 33 34 34 34 35 35 34 34 35 34 34 33 33 33 33 33 34 33 34 35 36 38 35 32 29 26 27 29 29 28
37 31 29 29 28 28 28 29 30 32 33 33 34 36 36 36 36 36 35 34 33 33 32 32 32 32 34 35 35 35 36 35 34 35 36 33 34 32 30 24 25 28 28

GFSSE_700_spd_075.txt.gz
Wind_Speed
12 12 14 15 15 14 14 14 14 14 14 14 14 15 15 15 15 13 14 14 12 9 5 3 1 3 5 7 8 10 9 9 10 10 10 11 11 11 11 10 10 10 8
13 14 16 18 18 16 16 15 15 14 14 15 15 15 15 16 16 15 14 13 11 8 6 5 5 8 9 10 11 11 11 11 11 11 12 12 12 12 12 12 11 11 10
12 14 16 20 21 21 19 17 16 15 15 15 16 16 16 15 16 15 15 14 12 11 10 10 11 11 12 12 13 13 12 12 12 12 12 14 13 13 12 13 12 11 10
13 15 16 19 20 21 21 20 17 16 16 16 16 16 16 16 16 16 16 14 13 13 13 13 14 14 15 14 13 13 12 12 12 10 13 12 12 12 12 12 12 11 10
15 15 16 16 17 19 20 21 20 17 16 16 16 16 16 16 16 16 16 15 15 15 15 15 15 13 13 12 12 12 12 12 11 12 12 12 12 11 11 11 10 10 11
18 16 15 14 15 16 17 17 18 20 18 17 16 15 15 14 15 14 14 13 13 13 13 14 13 13 12 12 13 13 13 13 12 13 14 14 13 13 13 12 12 11 10
21 19 16 14 13 13 13 13 13 15 16 18 17 15 15 14 14 14 13 13 13 14 14 14 14 13 12 13 13 14 14 13 14 14 14 15 14 14 15 15 14 13 12
22 22 19 16 14 12 11 11 10 10 12 13 14 16 14 13 14 14 14 14 14 14 14 14 13 13 13 13 13 13 13 12 12 12 13 14 14 15 15 14 14 14 13
23 23 21 17 16 14 11 10 8 6 7 8 9 10 12 12 11 10 10 9 9 9 10 9 9 8 8 8 8 8 8 9 10 11 11 11 12 13 14 14 15 14 14
27 24 21 19 17 15 12 10 9 6 4 4 3 4 5 5 5 4 4 4 4 3 3 2 2 3 5 6 7 9 10 11 12 13 13 13 14 14 15 15 15 14 14
30 27 24 21 19 18 16 13 11 10 8 6 6 4 4 4 4 3 3 3 3 3 3 4 6 6 7 9 10 11 12 13 14 15 16 16 16 16 16 16 17 16 16
31 29 26 24 22 21 18 17 15 14 12 10 10 9 9 9 9 9 10 10 10 9 9 9 10 10 11 12 12 13 14 16 17 18 19 19 20 19 19 19 19 19 18
30 29 29 27 25 24 22 20 19 17 16 14 13 13 13 13 13 14 14 14 14 14 14 14 13 14 14 15 15 16 17 18 19 21 21 22 22 22 21 21 22 22 22
29 29 29 28 28 26 25 23 21 20 18 17 16 16 16 16 16 17 17 16 17 17 17 16 16 17 17 17 18 19 19 20 20 21 22 22 23 23 23 23 23 23 24
24 25 27 28 29 28 26 25 23 21 20 19 18 17 17 17 17 17 17 18 18 18 18 18 18 19 20 20 20 20 20 21 21 22 23 23 24 24 24 25 25 25 25
24 23 24 25 27 28 27 26 25 23 21 20 18 17 17 17 17 17 17 18 19 19 20 20 20 21 21 21 21 22 23 24 24 25 25 26 25 26 27 27 27 28 28
25 24 23 24 25 26 26 26 24 23 21 19 18 17 16 16 16 17 18 18 19 19 20 21 21 22 22 23 23 25 26 27 27 28 29 28 29 29 31 30 30 30 30
27 25 25 26 25 25 25 24 23 22 19 18 17 17 17 18 19 20 21 22 22 21 21 22 23 23 24 25 26 28 31 31 31 32 32 32 34 35 35 33 34 34 33
28 27 26 25 23 22 23 22 21 20 19 18 19 19 20 21 22 24 24 25 26 26 26 26 26 27 27 28 29 31 32 34 35 35 35 35 38 39 37 36 34 32 34
30 29 27 24 23 22 22 21 20 19 19 20 22 23 24 25 26 27 27 27 28 29 29 30 29 29 29 30 33 35 35 36 38 38 37 37 36 36 34 32 32 30 30
30 30 29 26 25 24 23 22 21 21 22 23 25 26 26 26 27 28 28 29 30 31 31 31 31 32 33 34 35 36 37 38 39 37 33 32 31 30 29 30 31 30 31
32 33 32 31 29 28 26 24 22 22 22 23 25 26 28 28 29 29 30 31 33 34 33 34 35 35 36 35 37 38 40 37 36 38 31 28 27 28 29 28 28 27 27
32 33 32 31 29 27 26 24 23 24 25 26 28 29 29 30 31 31 31 32 33 34 33 34 35 36 38 36 36 37 39 38 35 35 34 30 30 30 29 29 27 27 29
34 33 33 32 31 29 27 26 26 27 28 30 30 31 31 32 32 32 32 33 34 35 36 37 36 37 38 37 35 34 33 34 33 36 35 31 32 28 29 27 27 28 29
37 35 36 34 34 32 30 29 29 30 30 31 32 32 33 32 33 33 34 35 36 36 36 35 34 34 34 34 33 33 32 34 34 36 37 35 32 31 27 27 28 29 29
41 39 38 38 36 33 32 32 33 33 31 31 32 34 34 35 35 36 37 37 37 36 34 33 33 33 33 33 34 34 34 35 34 34 34 31 34 30 29 25 24 26 28

GFSSE_700_spd_078.txt.gz
Wind_Speed
8 10 10 12 13 13 13 13 12 12 13 14 15 16 16 15 15 15 16 15 12 8 5 3 5 7 9 11 11 11 12 12 12 13 12 12 12 12 11 11 11 11 9
9 11 12 13 14 14 15 14 14 14 14 15 15 16 16 16 15 14 13 10 8 6 7 8 10 11 12 12 13 13 13 13 14 14 13 15 14 14 14 13 12 11 10
11 13 14 16 17 16 16 16 15 15 15 16 16 16 16 16 15 14 13 12 12 11 11 12 12 13 14 14 14 14 14 13 14 12 12 15 15 15 14 13 13 12 11
12 15 16 19 19 19 18 16 16 15 16 16 17 17 18 18 17 16 15 15 14 14 14 14 14 14 14 13 13 12 11 12 12 12 15 14 14 14 13 12 12 12 11
17 17 17 18 20 21 20 19 17 16 16 17 17 17 18 18 18 17 16 17 16 16 15 14 13 12 13 12 12 12 12 13 12 14 15 14 15 15 14 14 13 12 12
19 17 17 18 19 20 19 20 20 18 16 16 16 16 16 16 15 15 14 14 14 13 13 12 11 12 12 13 13 13 13 15 15 17 17 16 16 16 15 15 15 15 14
20 19 18 17 18 18 18 18 19 19 19 17 15 15 14 14 15 15 14 14 13 13 13 13 13 14 14 14 15 15 15 16 16 17 17 17 17 18 18 17 16 16 15
23 21 18 18 17 16 16 15 15 15 16 17 17 15 14 14 15 15 15 14 14 14 13 13 13 13 12 12 12 12 12 13 13 14 14 15 15 15 16 16 17 17 17
25 22 20 17 18 16 15 13 12 11 12 12 13 14 14 14 13 12 11 10 10 10 9 9 9 9 9 9 10 10 11 12 13 14 14 15 15 15 15 16 16 16 16
27 25 22 19 16 16 14 12 10 8 8 8 8 8 8 8 7 7 7 6 5 4 3 4 5 6 7 8 9 10 12 13 14 15 15 16 17 17 17 17 17 17 17
30 28 25 22 19 16 15 13 10 9 6 4 4 3 2 2 1 1 1 2 3 4 4 5 7 8 9 10 12 13 14 15 16 17 16 17 18 18 19 19 19 18 18
31 30 27 24 21 19 16 14 13 11 9 7 6 5 5 4 4 6 6 8 8 9 9 10 11 11 12 12 14 14 15 16 17 18 17 18 19 18 19 19 19 19 20
26 30 28 26 23 20 18 17 15 13 12 11 9 9 9 9 9 9 11 12 12 13 13 14 14 14 14 15 15 15 16 18 18 18 18 19 20 20 20 19 20 20 20
24 29 29 28 25 23 20 20 18 17 15 14 13 12 12 12 12 13 13 13 14 15 16 15 16 16 16 17 17 18 18 18 18 19 19 20 21 22 21 21 22 22 22
27 27 29 30 28 26 23 22 21 20 18 17 16 15 14 14 13 14 14 14 15 15 16 16 17 18 18 18 19 19 19 20 20 21 22 22 23 24 24 25 26 26 25
25 27 27 25 27 26 26 25 24 21 20 20 18 17 15 13 13 13 14 14 15 15 16 17 18 18 19 20 20 21 21 22 23 24 25 25 26 26 27 28 30 30 29
30 32 26 25 23 25 26 25 25 24 23 21 20 17 15 13 12 13 14 15 17 17 18 18 19 20 20 22 22 23 24 25 26 27 29 30 29 28 29 31 32 32 31
26 26 24 22 22 23 24 24 25 25 23 21 19 17 15 14 14 15 17 18 20 20 21 22 22 23 24 24 25 26 28 27 29 29 30 31 34 35 33 32 31 30 29
25 25 23 25 25 25 24 24 25 24 22 19 18 16 15 16 17 19 20 22 22 23 23 24 25 26 27 27 28 28 29 31 31 33 33 33 34 35 35 33 28 27 26
28 26 25 23 23 23 22 22 23 22 18 18 17 17 18 20 22 22 23 23 24 24 25 26 28 28 29 29 30 32 32 33 35 34 33 32 32 32 31 29 28 26 26
30 30 27 25 23 23 22 22 20 20 19 19 18 19 21 23 23 23 23 24 25 26 27 29 29 30 31 32 33 34 35 33 34 34 34 32 28 27 29 25 28 28 28
31 31 29 29 28 25 24 23 22 22 22 22 21 21 23 23 24 24 26 27 28 29 30 30 31 32 33 32 35 37 39 34 33 34 32 30 28 30 29 29 29 29 27
32 32 31 31 31 30 28 27 25 24 23 23 24 22 22 25 26 27 28 29 30 31 31 32 33 34 36 34 34 35 38 38 34 32 31 30 31 32 32 31 31 27 25
32 33 32 32 32 32 30 28 26 25 25 25 25 25 26 27 28 29 30 31 32 32 33 35 35 36 36 35 33 31 33 34 33 34 29 32 31 32 32 32 32 29 22
35 35 34 34 32 31 31 30 28 28 28 29 30 30 30 31 31 32 32 33 34 35 36 36 36 34 33 33 32 30 31 32 33 36 35 30 31 32 30 31 28 26 26
38 38 35 36 35 33 33 32 31 31 30 31 32 33 32 32 32 33 34 35 36 36 36 35 35 34 33 33 33 32 33 34 32 33 34 32 32 26 31 31 25 24 25

GFSSE_700_spd_081.txt.gz
Wind_Speed
11 11 10 10 10 11 11 11 11 12 13 14 14 15 15 16 19 21 17 13 12 8 4 6 9 13 12 12 13 14 14 15 16 15 14 16 15 15 14 13 12 11 11
9 11 12 11 12 12 13 13 13 14 14 15 15 16 16 16 16 16 14 10 7 7 10 12 13 14 13 13 14 15 15 15 16 15 14 16 16 16 15 14 14 13 12
12 12 13 13 14 14 15 15 15 15 15 14 15 16 16 16 16 15 13 12 12 13 13 14 14 14 13 13 13 13 13 14 12 13 14 16 15 14 13 12 12 12 12
14 15 16 17 17 17 17 17 17 16 16 16 16 16 16 17 16 16 15 15 15 15 15 15 13 12 11 12 13 13 14 15 13 15 16 17 16 16 15 14 13 13 12
19 18 19 19 19 19 18 18 17 17 16 17 16 16 16 17 17 17 17 16 15 15 13 12 11 12 12 13 14 15 17 16 17 19 19 19 19 18 17 16 16 15 14
22 21 20 20 21 21 21 20 18 17 17 17 17 16 16 16 16 16 15 14 14 14 13 12 13 14 14 15 16 17 18 19 19 19 19 19 19 19 19 19 19 18 17
24 22 20 20 21 21 21 22 21 19 18 17 17 16 16 15 15 16 16 15 15 14 14 15 15 15 15 15 15 16 16 17 17 17 17 17 16 17 17 17 17 17 18
24 23 22 20 20 20 21 20 20 20 20 19 18 17 16 16 15 15 15 15 14 14 14 13 13 12 12 12 12 13 14 14 14 15 15 15 15 16 16 16 16 17 16
29 25 22 20 20 19 20 19 18 18 18 17 18 17 16 17 15 14 14 13 12 11 11 10 10 10 10 10 11 12 13 13 13 13 14 14 15 15 15 16 16 16 16
33 28 25 20 19 18 17 16 15 14 14 14 14 13 12 12 11 11 10 9 8 7 6 6 7 8 9 10 11 12 13 13 14 14 14 14 15 15 15 16 16 16 16
34 31 28 23 20 18 16 14 12 11 10 9 9 8 7 7 6 5 4 3 3 4 6 7 8 9 10 11 12 13 13 14 14 14 14 14 14 15 16 16 16 16 17
34 33 30 27 23 19 17 15 13 11 9 7 5 5 3 2 1 1 3 4 5 6 8 9 10 11 12 13 14 14 15 15 16 15 14 15 15 16 16 17 17 17 17
26 31 31 28 25 22 20 17 15 12 10 9 7 5 4 3 4 4 6 7 8 9 10 11 12 12 13 13 13 14 15 16 16 15 15 16 16 17 18 17 18 19 20
25 22 30 30 27 24 22 20 18 15 13 12 11 9 7 7 7 6 7 8 9 10 11 12 13 13 14 15 15 15 16 16 16 17 17 18 18 19 20 20 21 21 23
22 17 24 29 27 24 23 22 21 19 17 15 14 13 12 10 9 8 8 8 8 9 10 10 12 13 13 14 15 15 16 17 17 18 19 20 20 21 22 23 24 25 25
25 25 22 23 26 26 24 24 23 22 20 18 17 16 14 13 10 9 9 9 9 10 11 12 13 14 15 16 16 18 19 19 20 21 23 22 22 23 24 26 27 28 28
25 32 24 24 22 21 25 24 24 23 22 20 18 18 16 14 11 10 10 11 11 12 14 14 16 17 18 19 20 21 22 23 22 22 26 28 27 27 27 26 27 27 27
26 29 24 24 28 25 25 24 25 25 24 22 19 19 18 15 12 12 12 13 14 15 16 17 18 19 20 21 22 24 24 24 24 26 27 29 30 28 29 29 27 23 23
24 22 27 28 27 26 25 22 21 23 24 22 20 18 17 15 15 14 15 16 18 18 18 19 20 22 23 24 25 26 25 27 27 28 28 31 32 32 30 27 23 24 24
23 23 27 23 24 24 25 24 24 25 24 23 20 19 18 18 18 17 18 19 19 19 20 22 23 25 26 27 27 28 27 28 29 29 29 30 31 30 27 25 25 25 25
31 33 31 24 24 24 24 24 24 25 22 21 19 17 19 20 19 19 19 19 20 21 23 25 26 27 28 29 31 31 31 30 30 29 29 30 30 28 25 25 27 27 28
28 27 27 28 26 24 22 20 19 20 21 20 19 21 18 19 19 20 21 22 23 24 26 27 28 30 30 30 34 35 36 32 29 29 29 25 26 27 29 29 30 28 28
27 29 28 28 28 29 26 24 24 23 21 21 21 21 20 21 21 23 24 25 26 27 28 30 31 32 33 32 33 36 37 36 32 29 29 27 27 29 31 33 33 31 26
28 28 28 29 29 29 28 28 25 26 26 25 24 21 22 23 25 25 26 28 29 30 31 31 33 34 36 35 34 33 34 34 34 33 26 28 29 30 32 34 34 30 26
33 31 30 30 31 29 29 29 29 28 28 26 25 25 25 25 26 28 29 30 31 31 32 34 35 35 36 36 34 31 31 31 32 35 35 27 30 32 32 33 34 29 27
39 34 33 32 30 30 30 29 29 28 27 27 27 27 28 29 30 30 30 31 33 34 35 36 36 36 36 36 34 32 32 32 31 32 33 32 29 31 28 28 32 31 23

GFSSE_700_spd_084.txt.gz
Wind_Speed
12 14 12 12 11 10 10 9 10 11 11 11 11 13 18 20 18 17 15 12 11 6 6 10 11 13 14 14 14 15 15 15 15 15 15 15 15 15 14 14 14 12 12
10 14 13 12 12 12 11 12 13 14 14 13 13 14 17 21 20 16 13 9 7 10 12 12 13 14 15 15 13 14 13 14 13 13 13 13 14 13 13 12 12 12 12
13 13 14 13 13 14 13 14 15 15 15 15 15 15 15 16 15 12 10 11 13 13 13 13 14 13 13 13 13 15 15 14 14 15 15 15 16 15 14 13 12 12 12
14 15 16 16 15 16 16 16 16 16 16 16 16 16 16 16 15 14 14 14 14 14 13 12 12 13 14 15 15 16 16 15 16 18 18 19 19 18 17 17 16 15 14
18 18 18 18 18 18 17 17 17 17 17 17 16 17 16 16 16 15 15 15 14 13 12 13 14 15 15 16 18 18 18 18 19 19 18 19 19 18 19 19 19 18 17
21 21 22 21 20 19 19 18 18 18 18 18 17 18 17 17 16 15 15 14 14 14 14 14 15 16 17 17 18 17 17 17 17 17 17 16 16 16 16 16 17 17 16
25 24 24 24 23 22 21 20 19 19 19 19 17 17 17 17 17 16 15 15 15 15 15 15 15 15 15 15 15 14 15 15 15 15 14 14 14 14 14 14 14 15 15
27 27 25 25 25 25 24 23 22 20 20 20 19 18 17 17 17 17 16 15 15 15 14 14 14 14 13 13 12 12 12 12 12 13 13 13 13 12 12 13 13 13 13
31 30 27 25 25 25 24 24 23 22 21 21 20 19 18 17 16 15 15 14 14 13 12 11 10 10 10 11 11 11 12 11 11 12 12 12 12 12 12 13 13 13 13
33 31 29 26 25 24 23 23 22 21 20 19 19 18 16 16 15 14 12 11 9 7 6 6 7 7 9 10 10 11 11 12 11 12 12 11 12 12 13 13 13 14 14
34 33 30 28 26 24 22 21 20 19 18 16 15 15 13 12 11 9 7 6 4 3 4 5 6 8 9 10 11 12 12 12 12 12 12 11 12 13 13 14 14 14 15
35 36 33 29 26 24 22 20 18 16 15 13 12 10 9 7 6 5 2 1 2 3 5 6 7 8 9 11 12 12 13 14 13 12 12 12 13 14 14 15 15 16 16
36 35 35 33 30 26 23 21 19 16 14 12 9 8 7 5 3 1 1 2 5 5 6 7 8 9 10 11 12 13 14 14 14 13 13 14 15 16 17 17 18 18 18
22 28 30 34 32 29 26 22 20 17 14 13 10 8 7 6 5 5 4 5 5 6 7 8 8 9 11 12 13 14 13 14 15 15 15 16 18 19 19 20 21 21 21
30 31 25 30 33 31 27 24 21 19 17 15 13 11 10 10 9 8 7 6 5 6 6 7 8 9 10 11 12 13 14 15 16 17 17 18 18 20 22 23 23 24 23
35 21 22 22 26 30 28 26 24 21 20 18 16 14 13 12 11 10 9 7 7 7 7 8 10 11 12 13 14 15 16 17 18 18 19 19 21 21 22 23 24 25 25
19 23 16 18 17 22 25 24 25 24 22 21 19 19 17 15 12 11 10 9 9 9 10 11 11 12 14 15 16 18 19 20 19 20 20 22 23 24 24 25 25 23 19
24 15 16 20 21 18 16 18 19 25 23 23 21 21 19 16 14 14 12 12 12 12 13 14 14 16 17 18 20 21 21 22 22 23 23 25 26 26 26 27 25 25 20
22 20 19 17 31 21 19 21 23 24 26 23 22 21 20 18 17 16 15 14 14 15 15 16 17 18 20 21 23 23 23 25 25 24 24 27 30 30 28 26 23 22 23
26 25 24 18 16 22 19 25 22 22 24 23 23 23 20 20 20 18 16 16 16 17 17 18 20 22 24 25 26 26 26 26 26 26 27 27 29 31 28 26 22 23 23
25 25 23 17 13 16 20 26 23 28 27 25 23 21 21 23 20 17 17 18 18 18 20 21 23 25 25 27 29 29 29 30 30 27 26 26 29 29 28 24 25 26 25
25 26 23 21 22 19 20 18 20 23 23 22 20 18 18 19 18 17 19 19 19 21 23 24 26 27 28 28 32 34 34 30 30 29 26 25 26 26 27 27 28 28 28
28 27 26 25 26 26 23 20 24 25 21 21 21 20 20 21 20 19 22 21 23 24 25 27 28 30 30 29 33 35 37 36 32 31 28 28 27 28 29 29 29 28 31
24 26 27 25 25 25 27 29 29 29 26 27 21 25 25 24 24 23 25 24 24 26 28 29 31 32 33 33 33 35 37 37 35 35 28 28 30 31 31 31 31 30 30
25 25 25 25 26 25 29 29 29 28 27 27 25 27 26 24 22 22 24 26 28 29 29 31 32 34 35 35 36 35 35 35 35 36 35 27 31 33 33 32 30 31 32
29 27 25 24 26 26 26 28 27 29 31 29 27 26 25 24 23 24 26 29 28 28 30 31 33 33 35 35 35 35 35 34 33 35 35 33 29 32 32 31 31 27 23

GFSSE_700_spd_087.txt.gz
Wind_Speed
13 13 10 10 9 8 8 8 7 8 8 9 10 11 15 17 17 15 13 10 8 5 9 10 11 13 14 15 15 14 14 13 13 13 13 13 14 13 14 13 13 13 13
11 12 13 11 10 9 9 9 10 10 10 12 14 16 18 17 17 16 12 8 6 10 11 11 13 14 13 13 14 13 14 14 13 13 14 15 15 15 15 14 14 13 13
13 12 14 13 12 11 11 12 13 12 13 14 15 18 18 17 15 12 7 9 11 11 12 13 12 12 13 14 15 15 15 15 15 16 17 18 18 18 17 16 16 15 14
15 15 15 15 14 14 14 14 15 14 15 15 16 16 16 15 12 11 12 12 13 13 12 12 13 14 15 16 18 18 18 18 18 18 18 19 19 18 18 18 18 17 17
18 16 16 16 16 16 16 16 16 16 16 17 17 17 16 15 14 14 14 14 13 13 13 14 15 16 17 18 17 16 16 16 16 17 17 17 16 15 16 16 16 16 16
19 18 18 18 18 18 18 18 17 18 17 18 18 18 17 17 16 16 15 14 14 15 16 16 16 17 16 16 16 15 15 15 16 15 14 14 13 13 13 13 13 13 14
21 20 20 20 20 20 20 20 19 19 19 18 18 18 18 17 17 16 15 16 16 16 16 15 15 15 15 15 14 14 13 13 13 13 13 12 12 11 11 11 11 11 12
23 23 23 22 22 21 21 21 21 20 20 19 19 18 18 18 17 17 16 16 16 15 14 14 13 13 12 12 12 12 12 12 12 12 11 11 11 11 11 12 12 12 12
26 25 25 25 24 24 23 22 22 21 21 21 21 20 19 18 17 17 16 15 14 13 12 11 10 10 9 9 10 10 10 10 11 11 11 11 11 11 11 12 12 13 13
28 27 27 27 26 25 25 24 23 23 22 22 22 21 20 18 17 16 14 13 10 8 7 6 6 7 7 8 9 9 9 9 11 11 11 11 11 11 12 12 13 13 13
29 28 28 28 27 27 26 25 24 23 22 21 21 20 18 16 15 13 11 8 6 4 2 3 4 6 7 8 9 10 10 10 11 11 12 11 12 13 13 14 14 14 15
27 29 29 29 28 27 26 25 23 21 20 18 17 15 14 12 10 8 6 4 2 1 1 3 5 6 8 9 9 11 11 11 12 12 12 13 14 14 15 16 17 17 17
22 25 28 29 29 29 28 25 23 21 18 16 14 13 11 9 7 5 4 3 3 4 4 5 6 7 8 9 11 11 12 13 13 13 14 15 16 17 17 17 18 19 19
29 30 26 26 28 28 27 27 24 22 18 15 13 12 11 9 8 6 5 5 5 5 6 6 6 7 8 10 10 11 12 13 13 14 15 16 17 19 19 21 21 20 20
32 31 29 29 28 27 28 28 26 24 21 19 16 14 12 11 10 8 8 7 6 6 6 6 7 8 9 10 11 12 13 14 15 16 17 17 18 19 21 22 23 22 21
23 23 35 31 30 26 27 28 28 26 23 21 19 17 16 14 13 12 12 10 8 6 6 7 8 9 10 11 12 13 15 16 17 18 18 19 20 22 23 23 23 23 20
22 19 16 25 27 28 27 27 28 27 25 23 20 19 18 17 16 15 14 12 10 8 8 9 10 11 12 13 15 16 17 19 19 20 20 21 21 22 24 24 24 24 13
24 16 14 23 35 30 26 27 29 27 27 26 25 23 21 20 20 18 16 15 13 11 11 12 12 12 14 16 17 19 20 21 22 22 22 23 25 26 26 25 24 23 21
20 18 18 13 27 26 28 21 23 23 24 25 26 25 24 22 21 20 19 18 15 13 13 14 14 15 17 19 21 21 22 22 22 23 24 26 27 27 26 26 25 22 21
21 21 20 17 13 14 15 13 28 23 19 17 20 24 25 23 22 22 21 19 17 15 16 16 17 18 20 22 23 24 24 25 26 26 25 26 27 27 27 26 25 23 22
19 21 23 21 14 19 15 14 17 35 32 24 21 24 25 21 24 23 22 19 16 17 17 17 18 21 23 25 26 25 26 26 27 28 28 26 27 27 27 26 25 25 25
21 22 23 22 22 19 12 13 19 13 11 18 25 22 22 18 20 21 18 16 16 17 18 19 21 22 23 26 29 31 31 28 28 29 29 27 26 26 26 27 26 27 28
23 23 22 22 22 21 21 21 22 17 21 20 19 20 18 16 20 21 18 17 17 17 20 22 24 25 25 27 30 33 36 34 33 33 32 31 31 31 30 28 27 27 29
17 21 21 24 25 26 28 26 23 24 24 23 23 21 19 19 20 22 22 16 18 20 23 24 25 27 28 28 30 32 35 36 36 36 32 31 31 32 32 31 30 30 29
20 19 20 22 23 25 28 26 28 29 26 26 24 24 24 25 24 24 21 19 20 21 25 26 26 27 28 29 30 31 33 35 35 36 36 30 32 33 33 32 31 31 31
29 27 23 20 22 24 24 26 27 27 26 26 27 25 24 29 26 22 21 19 21 24 26 25 26 30 32 32 33 34 34 34 34 34 36 34 31 32 31 32 32 30 30

GFSSE_700_spd_090.txt.gz
Wind_Speed
15 13 11 10 10 8 7 7 7 7 8 8 10 12 16 19 17 14 11 10 8 6 10 10 12 12 12 12 13 13 14 13 14 12 13 13 14 14 14 13 13 12 12
12 12 11 10 10 10 8 8 8 9 10 10 12 14 17 18 16 15 12 8 8 11 11 12 12 11 12 13 14 15 15 14 15 15 15 16 17 17 17 15 14 14 14
15 14 13 11 10 11 10 10 11 12 13 15 16 16 17 17 16 13 8 10 12 12 13 11 11 13 14 16 17 17 17 17 18 18 18 19 19 19 18 18 16 16 16
16 15 14 13 11 11 12 13 13 14 16 18 19 16 17 16 12 9 12 13 14 13 13 13 14 15 16 17 18 18 17 16 16 16 16 17 17 16 15 15 14 15 15
19 16 15 13 13 13 14 15 15 16 17 18 20 19 16 12 12 14 15 15 14 14 15 16 17 17 17 17 16 16 16 16 15 15 15 14 14 14 13 13 13 14 13
20 18 17 16 16 16 17 16 16 17 18 19 19 18 17 16 16 17 16 15 15 16 17 17 17 16 16 15 15 14 14 14 13 13 13 12 12 12 12 12 13 13 12
22 20 18 18 18 18 18 18 18 19 19 20 20 20 19 19 17 16 16 16 16 16 16 16 16 15 14 13 12 12 12 11 11 11 11 11 11 12 12 12 12 12 12
22 21 20 20 21 21 20 20 20 20 20 21 21 21 20 18 18 18 17 17 16 15 15 14 13 12 11 10 10 10 10 10 10 10 10 10 10 11 11 12 12 12 13
24 22 22 22 22 22 22 21 21 22 22 21 21 20 20 20 19 18 17 16 15 14 13 11 10 8 8 7 7 8 8 9 9 9 10 10 10 10 11 12 13 13 13
23 24 24 24 24 24 23 23 21 22 22 22 22 22 20 20 19 18 16 14 12 9 8 6 5 4 4 5 5 6 7 7 8 9 9 9 10 10 11 12 13 14 14
25 24 26 25 25 25 25 24 24 22 22 22 22 21 20 19 18 16 13 11 7 5 2 1 2 3 4 5 5 6 7 7 9 9 9 10 11 12 12 14 15 16 16
27 26 27 27 27 26 26 26 25 24 24 23 22 20 19 16 14 12 9 7 4 2 1 3 4 5 6 7 7 8 8 8 10 11 11 12 12 13 14 15 16 18 18
21 27 29 30 29 27 26 26 26 25 24 21 19 17 14 12 9 7 6 5 4 4 4 5 6 7 7 8 9 9 10 10 11 12 13 14 15 16 15 16 17 18 19
18 25 24 29 31 31 30 28 26 25 23 20 18 15 13 11 10 8 6 6 5 5 5 6 6 6 7 7 8 9 10 11 12 13 15 16 16 18 18 19 19 19 18
22 27 29 27 29 30 30 29 27 26 23 22 19 17 14 12 11 10 9 8 8 7 6 5 6 6 7 8 9 10 12 12 13 14 16 17 18 20 20 21 20 20 19
21 26 33 31 28 28 28 28 27 26 26 23 22 19 18 16 14 13 12 11 11 9 7 7 7 7 8 9 10 11 13 14 15 16 17 17 19 20 22 22 22 20 17
25 21 43 20 36 29 27 26 27 26 27 26 23 23 21 20 19 17 16 15 14 12 10 9 9 9 10 11 12 13 15 16 17 17 18 19 20 21 22 22 22 21 16
37 17 13 13 17 43 31 27 24 26 28 27 26 26 24 23 21 20 19 19 18 15 13 12 12 12 12 13 14 16 17 18 18 18 19 21 22 23 23 22 23 22 21
24 19 17 8 10 13 39 32 24 24 28 28 29 28 26 25 25 24 23 23 21 19 15 14 14 13 13 14 16 17 18 19 20 20 21 22 23 23 23 22 23 24 23
18 17 18 13 8 3 41 41 36 27 27 29 27 26 24 27 27 27 26 25 24 20 17 16 15 14 15 16 17 19 20 20 23 24 24 25 24 23 23 22 23 24 25
18 22 23 18 15 11 12 13 20 5 14 31 26 19 25 23 26 28 27 27 25 21 19 17 15 15 16 17 18 19 20 21 23 24 25 26 25 25 24 24 24 25 26
21 23 20 19 21 18 16 10 13 11 12 11 36 30 22 24 20 21 26 27 22 19 18 16 15 16 17 19 21 22 22 22 24 25 26 26 26 25 25 24 25 25 26
25 24 22 22 23 22 21 20 23 20 18 15 18 35 22 19 23 22 27 24 23 18 17 16 15 17 19 20 22 25 27 26 28 29 29 29 29 29 28 27 26 25 26
18 20 22 23 25 26 26 30 25 21 22 18 20 23 21 21 18 19 26 30 32 25 20 17 18 19 19 20 22 24 28 30 31 32 30 30 31 31 30 29 28 27 27
19 19 21 23 25 26 26 26 26 25 25 26 26 27 23 22 22 20 22 21 26 19 21 16 19 21 20 21 24 26 28 32 33 34 31 30 32 31 31 30 30 29 29
23 21 20 20 22 23 23 23 25 27 27 26 28 23 23 25 21 24 23 27 25 14 15 21 22 23 23 24 23 25 30 33 36 37 37 34 33 32 32 31 30 30 29

GFSSE_700_spd_093.txt.gz
Wind_Speed
17 16 12 10 11 10 9 8 8 8 9 10 11 13 17 20 16 13 11 10 6 9 10 11 12 11 10 11 12 13 14 13 14 14 14 13 14 14 13 12 12 11 11
13 15 12 11 11 11 10 10 10 10 10 11 13 15 19 19 16 13 12 8 11 11 11 11 11 11 12 13 14 14 15 16 16 16 16 16 16 16 15 15 15 14 13
16 16 14 14 12 11 11 10 12 12 13 15 16 18 20 19 16 15 10 12 12 12 11 10 12 13 14 16 16 17 18 17 17 17 16 15 16 15 15 16 15 14 14
19 17 15 14 13 12 12 11 13 15 18 17 18 19 19 19 17 12 13 14 14 12 12 13 14 16 17 17 16 16 16 15 15 15 15 15 14 14 14 14 13 12 11
21 18 16 15 15 14 14 14 15 18 22 20 19 21 22 17 13 15 16 16 14 14 14 15 16 16 16 15 15 14 15 14 14 14 13 13 13 12 12 12 11 11 11
23 20 18 16 16 16 16 17 17 20 25 23 21 21 17 15 17 18 17 16 16 16 16 16 16 15 15 14 13 12 12 12 12 12 11 11 11 11 11 11 12 11 11
25 22 20 18 18 18 18 19 20 21 23 26 24 19 18 19 20 19 18 18 18 17 17 16 15 14 13 11 10 10 9 10 10 10 9 9 9 9 10 11 11 11 11
26 24 22 21 20 20 20 21 22 23 23 24 23 22 22 22 21 20 20 19 18 17 16 15 13 11 10 9 8 7 7 8 8 8 8 8 8 9 10 10 11 12 12
28 25 24 24 24 23 22 22 24 25 25 25 24 24 23 22 21 21 20 19 17 16 14 12 10 8 7 6 5 5 5 6 7 7 7 7 8 9 10 11 11 12 12
30 27 25 25 25 25 24 24 25 25 26 25 24 23 23 22 21 19 18 17 15 13 10 8 6 5 3 3 3 4 5 6 6 7 7 7 8 9 10 11 12 13 14
31 29 28 28 28 28 27 26 26 27 26 25 25 24 22 21 21 19 17 14 11 8 6 4 2 1 1 2 3 4 5 6 6 7 7 7 9 10 11 12 13 14 15
33 31 32 32 31 29 28 27 25 26 26 26 25 24 23 21 19 16 14 11 8 5 3 2 2 2 2 3 4 4 5 6 7 7 8 9 10 11 12 12 14 15 16
31 29 31 33 34 33 31 29 27 26 27 27 26 25 22 19 16 13 10 7 5 4 4 4 5 5 4 4 4 4 5 6 7 9 10 10 11 12 13 14 15 17 17
26 26 25 31 33 34 33 32 32 30 28 27 26 24 21 18 14 11 9 7 5 5 6 6 6 6 5 5 5 6 6 7 9 10 12 13 13 14 15 16 15 15 17
27 25 22 27 31 33 33 33 33 34 31 28 25 22 19 18 16 13 11 10 9 8 7 7 7 6 6 6 6 7 8 9 10 12 14 14 15 16 18 18 18 16 16
28 27 28 25 27 29 30 32 33 33 33 31 26 23 21 19 17 15 14 13 12 11 10 9 8 7 7 8 8 9 10 11 12 14 15 16 16 17 18 19 19 17 16
19 26 29 22 22 29 30 33 33 32 31 30 29 26 23 21 20 19 17 16 15 14 13 12 10 9 9 10 10 11 12 13 14 14 15 16 16 17 18 19 18 18 17
20 17 22 23 22 32 31 33 32 33 31 29 28 28 26 24 23 21 19 19 18 17 17 15 13 12 12 11 12 12 13 13 14 15 16 17 18 18 19 18 19 18 19
23 23 21 18 23 40 36 34 34 34 33 31 30 28 27 26 25 23 24 23 22 21 20 19 16 14 14 13 13 13 14 14 15 16 16 17 18 18 19 19 20 20 21
33 31 24 27 18 20 48 40 37 30 30 31 30 26 26 27 27 26 27 27 26 24 24 22 19 16 15 14 14 14 15 15 16 18 19 20 21 21 21 20 21 21 22
30 24 18 16 13 9 9 44 39 32 23 25 29 29 28 28 28 28 29 28 28 27 25 23 21 17 16 15 16 15 16 16 17 19 20 20 21 21 21 21 21 21 22
14 19 17 17 20 8 6 5 41 40 39 24 45 30 31 30 28 28 29 31 28 28 25 23 21 18 17 16 17 17 18 17 17 19 20 23 24 23 23 23 22 22 23
22 23 19 16 20 19 13 15 14 26 22 30 18 26 40 36 29 29 25 22 26 26 25 22 17 16 16 15 17 19 20 20 22 23 25 27 28 27 26 25 24 24 25
20 24 24 20 21 21 24 22 23 25 21 19 27 21 23 43 30 25 28 30 29 31 30 26 23 18 16 14 18 20 21 22 25 28 28 32 32 31 30 28 27 26 26
20 22 24 24 23 21 23 25 25 24 22 23 28 25 22 26 34 36 27 27 25 30 33 38 31 24 24 14 23 24 22 22 24 29 34 36 35 34 33 31 28 27 27
18 19 20 20 20 21 22 22 23 24 23 26 22 22 24 22 22 19 20 15 16 13 18 26 31 27 16 20 28 30 29 29 31 35 41 34 32 31 32 32 30 28 28

GFSSE_700_spd_096.txt.gz
Wind_Speed
16 17 14 11 12 10 10 10 11 12 12 14 15 17 20 18 14 13 10 9 6 10 9 9 9 9 9 10 10 11 11 12 12 12 12 11 11 11 11 11 10 10 9
11 17 15 13 13 12 10 10 11 12 13 15 16 19 21 18 15 13 11 8 11 11 10 9 8 9 11 12 12 12 13 14 15 15 15 14 14 13 12 12 12 12 11
15 17 17 15 14 14 13 11 11 12 14 16 18 21 22 19 16 14 11 11 12 12 10 9 10 11 12 14 15 15 14 15 15 14 13 13 12 12 12 11 11 11 11
19 20 18 16 16 15 14 13 12 12 15 18 21 23 22 18 17 14 13 14 13 11 11 11 13 14 14 15 14 13 13 13 13 13 13 12 11 11 11 11 11 10 10
23 23 19 17 17 17 16 16 16 16 18 21 23 24 22 21 18 15 16 16 13 12 13 14 15 15 14 13 13 12 11 11 11 11 11 11 10 10 11 10 10 10 9
26 25 22 20 19 18 18 19 21 22 22 22 25 26 24 22 17 19 18 16 15 15 15 15 15 14 13 12 11 10 9 9 9 9 9 9 9 9 9 9 9 9 9
28 27 24 22 21 20 21 22 24 25 25 24 24 25 22 19 20 20 18 16 16 16 16 15 14 12 10 10 8 8 7 7 7 7 7 7 7 7 8 8 9 9 9
28 27 27 25 23 23 23 24 26 28 28 26 27 23 20 22 22 20 19 19 18 17 15 14 12 10 8 6 6 5 5 5 5 5 5 5 5 6 7 8 9 9 10
30 28 29 27 27 26 26 26 28 30 30 29 26 22 23 23 22 21 21 19 18 16 14 12 10 8 6 4 3 3 3 3 4 4 3 4 5 6 7 7 9 9 10
33 31 29 28 30 30 29 29 29 30 31 29 26 25 25 23 22 21 20 19 17 15 13 11 8 6 4 2 1 0 1 2 2 3 3 4 5 6 7 9 10 11 11
38 33 31 29 32 31 30 30 31 31 30 29 28 27 25 24 24 22 20 19 16 13 11 8 6 5 3 3 3 3 3 3 3 4 4 5 6 7 9 9 10 12 13
40 38 36 35 34 34 32 32 32 32 32 32 31 29 28 27 25 23 20 18 14 11 9 7 6 5 5 5 4 4 4 4 4 5 6 7 8 9 10 11 12 14 14
42 38 35 36 36 36 35 34 33 34 33 33 32 31 29 27 25 22 19 16 13 11 9 7 7 6 6 5 5 4 4 4 5 7 8 9 11 12 12 13 13 14 15
40 36 34 36 37 37 36 35 35 35 35 34 32 31 28 27 24 21 18 15 12 10 9 8 8 7 6 6 6 6 5 6 7 8 10 11 12 12 13 14 14 15 16
29 39 31 32 35 36 37 37 35 35 35 34 33 31 29 26 23 20 17 15 12 11 10 9 9 8 7 7 7 6 7 7 9 10 11 12 13 13 14 15 16 15 15
14 28 30 28 32 33 35 35 35 36 36 36 34 33 30 27 23 20 17 16 14 13 12 11 10 9 8 8 8 8 8 9 10 12 13 14 14 15 15 17 17 17 15
26 14 35 31 28 28 31 34 35 36 36 36 34 32 29 27 25 22 20 18 17 16 15 14 13 11 11 10 10 10 10 10 11 12 13 13 15 16 16 17 17 18 16
15 28 38 30 27 25 26 28 33 35 35 34 33 30 28 26 25 24 22 20 19 18 17 17 16 15 13 12 12 11 12 13 13 12 13 14 15 16 17 16 17 17 18
19 17 23 36 30 21 21 21 28 34 34 34 32 30 28 27 26 24 23 22 22 21 20 20 20 18 17 15 14 14 15 13 13 13 15 15 17 18 19 19 19 19 19
25 16 30 34 22 20 23 18 25 32 34 33 32 31 29 28 27 26 26 25 26 25 23 23 23 23 20 17 16 16 16 15 14 15 15 16 17 18 20 21 21 21 21
29 30 28 28 27 20 22 21 31 33 34 31 28 30 29 29 29 30 29 28 29 29 27 28 27 26 22 20 19 18 17 16 14 13 13 15 17 19 21 22 22 23 22
30 34 31 25 21 28 22 23 29 35 36 29 25 29 29 30 28 31 31 30 32 33 32 31 30 27 25 24 22 20 19 17 16 15 15 16 19 22 25 26 25 25 25
35 38 18 15 20 21 25 17 27 36 40 36 30 25 29 33 35 35 35 32 31 31 34 31 31 30 27 26 21 19 18 19 20 20 19 20 23 27 32 32 31 30 28
20 24 19 16 17 21 25 22 13 24 34 39 40 39 33 38 38 37 42 39 39 32 30 32 32 29 26 24 25 20 16 18 23 25 27 26 29 32 36 34 32 31 30
11 13 14 15 15 15 18 27 25 18 32 32 34 51 58 37 30 55 51 37 29 36 32 36 37 27 34 27 26 20 17 22 28 31 31 34 33 35 38 35 31 29 29
11 17 20 20 19 22 22 23 26 26 28 17 18 20 23 26 28 28 28 42 20 28 28 12 21 20 31 47 40 41 35 29 34 36 37 37 39 40 37 33 30 29 29

GFSSE_700_spd_099.txt.gz
Wind_Speed
16 15 15 13 13 13 12 12 12 13 14 16 16 19 19 17 15 14 10 9 7 8 7 8 7 6 6 7 8 9 9 9 10 10 11 10 10 10 10 10 10 10 9
24 13 16 14 14 13 13 13 13 13 15 16 18 19 20 17 15 14 11 8 9 8 7 7 6 7 8 10 11 11 11 11 11 13 13 13 13 13 12 11 11 11 10
25 20 15 16 15 15 14 14 14 14 15 17 18 20 21 17 16 13 11 9 10 9 7 6 7 9 11 12 13 13 13 13 12 12 11 13 12 11 10 10 10 10 9
23 19 18 17 17 16 15 15 15 15 16 18 19 22 22 18 17 14 11 12 11 9 7 8 9 11 12 13 13 12 11 11 11 11 12 11 11 10 10 10 9 9 9
24 21 20 19 18 17 16 16 16 16 18 20 22 24 23 20 17 15 14 13 12 10 10 10 11 12 12 12 11 11 10 10 10 9 10 10 10 9 9 8 8 8 8
22 23 23 21 20 19 18 16 17 18 20 22 25 25 23 21 19 15 15 14 12 11 12 12 12 12 11 10 9 9 8 8 7 8 8 8 8 8 7 7 7 8 8
20 25 24 23 22 21 20 19 20 22 24 26 25 26 24 22 19 18 17 15 13 13 13 13 12 11 10 9 8 7 7 6 5 6 5 6 6 6 6 7 7 8 9
20 27 25 25 25 24 23 23 24 25 24 25 27 26 24 22 19 20 18 16 15 15 14 13 11 9 8 7 6 5 4 4 4 3 3 4 3 4 5 7 9 10 10
27 27 28 28 27 27 26 26 26 27 26 27 26 27 25 21 22 21 18 17 17 16 14 12 10 8 6 5 4 3 2 1 1 1 1 2 3 5 7 8 9 10 11
32 30 29 30 27 30 30 30 31 29 29 26 28 27 22 23 24 21 20 19 18 16 14 12 9 7 5 3 2 2 1 1 1 2 2 3 5 7 8 9 9 10 12
36 24 33 32 31 32 33 34 35 32 29 32 28 24 24 25 23 23 22 20 19 17 14 11 8 6 5 4 3 3 3 3 3 3 3 5 6 7 8 9 10 11 13
79 25 22 37 34 35 35 35 37 37 37 34 28 26 29 27 26 25 23 22 19 16 12 10 8 7 6 6 5 5 5 4 4 4 5 6 7 8 9 10 12 12 14
53 36 13 36 37 38 37 36 37 37 36 34 30 32 30 30 28 26 24 22 19 15 13 11 9 8 8 7 7 6 4 4 5 5 6 7 9 10 11 12 14 14 15
50 44 28 40 38 39 37 35 36 37 37 35 35 35 33 31 29 27 24 21 18 15 13 11 10 9 9 8 7 6 6 5 6 7 7 8 10 11 11 12 13 14 15
56 49 28 35 37 42 35 33 36 38 37 37 38 36 34 32 30 27 24 20 18 15 13 11 10 10 9 8 8 7 6 6 7 8 10 9 10 11 12 13 14 15 14
29 29 39 38 31 38 36 34 34 37 39 38 36 35 34 32 30 28 25 22 19 16 14 12 11 10 10 9 8 8 8 8 9 10 11 12 11 13 14 16 16 15 15
21 35 47 23 37 34 35 35 32 36 36 35 35 35 33 31 29 27 25 22 19 17 15 14 13 12 12 11 10 10 10 10 11 12 13 13 13 14 14 15 15 16 16
20 22 26 24 32 30 32 33 31 30 35 36 36 35 33 32 29 26 23 21 19 18 17 16 15 15 15 14 14 13 12 12 12 11 12 13 14 15 16 16 17 17 18
27 20 23 31 33 30 25 27 30 30 32 33 34 34 33 31 28 26 24 22 21 20 20 18 18 19 19 18 17 16 16 15 13 12 12 13 13 14 14 17 17 19 19
20 20 18 28 48 34 28 26 27 29 31 33 33 33 32 31 29 27 26 25 24 23 24 21 21 22 23 22 22 20 19 18 15 14 14 14 13 13 15 17 20 20 20
25 26 18 42 45 34 32 25 21 22 26 29 32 34 33 32 31 30 28 27 26 26 28 26 26 26 26 26 26 24 23 20 17 16 15 15 15 15 16 18 23 26 25
28 26 22 50 49 31 28 25 24 21 21 24 27 30 34 34 34 31 31 31 29 31 31 28 29 30 29 28 29 29 23 22 21 17 17 17 18 19 20 24 27 31 31
33 28 29 43 37 41 27 26 28 27 25 28 30 31 32 32 31 32 34 35 33 34 30 31 32 31 32 29 32 29 25 22 22 20 18 18 20 23 25 28 30 32 31
35 35 34 30 33 34 26 23 22 27 29 34 38 34 29 28 28 28 33 34 37 35 34 38 46 41 35 32 30 29 26 24 22 19 22 23 22 26 29 32 34 33 32
35 35 31 24 20 26 20 26 14 26 36 34 35 37 40 38 35 32 35 35 39 37 40 46 50 45 34 34 36 28 40 31 23 21 23 28 35 34 32 36 39 39 33
26 18 18 13 9 12 14 17 23 24 21 28 37 35 37 39 39 45 44 44 43 40 52 38 34 18 9 16 24 19 34 38 39 46 39 38 39 37 40 41 36 32 29

GFSSE_700_spd_102.txt.gz
Wind_Speed
21 7 11 15 12 12 12 13 13 13 14 15 16 18 18 15 14 14 11 7 5 6 5 4 5 4 5 6 7 8 9 9 9 9 10 10 11 11 11 11 10 10 10
28 23 12 15 13 13 13 13 13 14 15 16 18 19 19 16 15 14 10 8 7 6 5 4 4 4 6 8 9 10 11 11 12 12 12 13 12 12 11 10 10 10 11
31 24 16 15 14 14 14 14 14 15 16 17 18 20 20 17 15 14 11 8 8 6 5 4 5 6 7 9 11 12 12 12 11 10 10 13 11 10 10 10 10 10 9
19 25 22 17 16 15 15 15 14 15 17 18 19 20 20 19 16 13 11 10 8 6 5 5 6 8 9 11 11 11 11 11 10 9 10 11 10 10 10 10 9 10 10
15 20 23 20 17 17 16 16 15 16 18 19 20 22 22 19 17 14 11 11 9 7 6 8 9 10 11 11 10 9 9 9 9 8 9 9 9 9 9 9 10 9 9
26 20 22 22 19 19 18 17 17 17 18 20 22 24 23 20 17 15 13 12 10 9 9 9 10 11 10 10 9 9 8 7 6 7 7 7 7 8 8 8 9 8 9
32 30 22 24 22 21 20 18 18 18 20 22 24 25 25 22 19 17 15 14 11 11 11 11 11 10 9 8 7 7 6 5 5 5 5 5 6 6 7 7 8 9 9
31 38 26 22 24 23 22 20 19 19 21 24 25 24 25 23 21 17 17 15 14 13 12 12 11 10 8 7 6 5 4 4 2 4 3 3 4 5 6 7 8 8 10
27 34 29 26 26 23 23 22 20 21 21 23 25 28 25 23 20 19 18 16 16 15 14 12 10 9 7 6 4 3 2 1 1 2 1 2 3 4 5 7 7 9 10
31 36 43 30 25 24 25 25 23 26 26 27 28 28 25 22 20 21 19 18 18 16 15 13 11 8 6 5 3 2 2 1 1 1 1 2 3 5 6 8 9 10 11
38 39 39 30 29 25 27 28 26 28 31 30 29 26 27 24 23 23 21 20 19 17 15 12 10 7 5 4 3 3 3 3 4 2 2 3 4 5 6 8 9 10 11
42 43 39 34 33 26 27 31 29 31 33 31 29 26 27 24 26 24 23 22 20 18 15 12 9 7 6 5 5 5 5 5 4 2 4 4 5 6 7 8 10 11 13
40 49 56 26 19 35 31 35 39 31 34 30 30 30 27 28 29 26 25 23 20 18 15 12 10 8 7 7 7 6 5 5 4 5 5 5 7 7 9 11 12 13 15
39 40 56 48 30 37 38 38 41 43 35 39 31 27 28 31 29 28 26 23 21 18 15 13 10 8 8 8 7 6 6 6 7 6 6 7 8 9 9 11 12 13 13
31 26 41 57 25 29 39 42 43 46 46 39 35 35 34 32 30 30 28 25 22 19 16 13 11 10 9 9 8 8 7 7 7 8 7 8 9 9 9 10 11 14 16
23 25 39 66 41 22 40 42 43 45 46 44 41 39 37 33 33 31 28 25 22 18 15 13 11 10 10 10 9 9 9 9 9 9 10 10 9 10 11 11 12 13 15
23 22 28 45 47 20 39 35 40 43 44 41 40 39 36 33 32 29 26 23 20 18 16 14 13 12 11 11 11 10 10 11 11 10 12 11 11 11 11 12 13 14 16
27 21 15 34 47 28 28 32 29 34 39 38 37 36 35 33 31 29 27 24 22 20 17 15 14 13 14 14 13 13 12 13 13 13 13 13 13 13 13 13 12 14 15
29 23 14 19 29 30 35 31 34 34 30 33 35 35 34 33 32 30 29 26 24 21 19 17 16 15 16 17 16 18 16 16 15 14 14 14 13 13 13 13 13 14 16
26 28 18 28 20 18 43 41 28 24 29 30 34 35 35 33 32 31 29 27 25 23 21 19 18 17 17 20 20 21 21 20 18 18 16 16 14 14 13 14 14 16 19
21 32 34 28 34 23 41 32 31 29 26 28 31 33 34 34 33 32 30 28 27 25 23 23 21 21 20 25 22 25 25 24 23 20 20 18 16 15 15 17 19 21 23
19 21 22 27 24 41 39 32 25 22 24 27 29 32 33 33 33 32 30 29 28 26 26 27 25 22 24 26 27 28 27 28 26 24 20 19 18 18 17 19 22 24 25
26 26 19 22 35 38 42 32 29 28 22 22 26 29 30 31 32 31 30 30 30 29 32 29 29 27 26 25 26 28 28 30 29 26 20 21 20 21 20 22 24 27 29
25 25 25 27 40 37 36 32 37 29 29 27 26 24 24 27 27 26 27 27 30 31 31 29 32 34 30 34 36 28 35 29 27 25 28 29 24 21 23 25 30 30 32
26 23 24 33 37 47 26 24 29 31 32 23 27 31 34 34 31 36 26 28 25 26 26 29 33 35 36 34 42 39 40 36 42 38 35 37 34 39 38 38 39 36 28
29 27 22 38 37 40 34 31 18 31 28 33 27 28 30 37 36 38 34 30 32 33 37 40 41 40 45 39 34 26 20 34 37 34 30 31 37 43 46 39 36 31 26

GFSSE_700_spd_105.txt.gz
Wind_Speed
11 7 5 10 12 11 11 12 12 12 12 13 13 14 14 14 14 12 10 6 5 4 3 3 3 3 4 5 6 7 8 8 8 9 11 11 11 10 10 10 10 9 10
16 16 16 15 15 12 12 12 13 13 14 15 16 15 16 15 14 12 10 7 6 4 3 3 3 4 6 7 8 9 10 10 10 11 11 12 11 10 10 9 11 10 9
19 16 18 15 16 15 14 14 13 14 14 15 16 18 18 15 14 14 10 8 7 5 3 3 4 6 8 9 10 10 11 12 12 10 9 10 10 10 10 10 10 9 8
13 16 19 21 17 17 15 15 14 15 16 16 17 20 21 17 15 14 11 9 8 6 4 5 6 7 9 10 10 10 10 11 11 9 8 9 9 9 9 10 9 8 8
12 8 14 21 20 18 17 16 16 16 17 18 19 20 21 19 16 14 12 9 8 6 5 6 8 8 9 10 9 8 8 9 10 8 8 8 8 8 8 8 8 7 7
20 15 12 14 22 20 19 18 17 17 18 20 21 21 22 21 18 16 12 10 10 7 7 8 9 10 9 8 8 7 7 7 7 7 7 7 7 7 7 6 7 8 8
27 26 23 20 21 24 21 20 19 19 19 21 22 23 24 23 21 18 15 14 11 9 9 10 10 10 9 8 7 7 6 7 3 4 5 5 5 5 6 6 7 8 9
38 31 26 26 22 25 22 21 20 20 20 21 22 24 25 24 22 19 16 15 13 11 11 12 11 10 9 8 6 6 5 5 4 2 2 2 2 3 4 5 6 7 9
35 32 28 28 26 25 23 21 21 20 20 22 22 25 26 25 22 20 18 16 14 13 13 12 11 10 8 7 5 4 4 3 3 2 1 1 1 2 3 5 7 8 10
30 32 31 26 29 26 26 21 21 20 21 22 25 29 29 26 22 20 20 18 17 16 14 13 12 10 8 6 5 3 3 3 4 3 2 3 2 3 5 6 8 9 10
31 29 33 30 30 31 29 26 22 23 24 25 30 30 29 26 24 22 22 20 19 18 16 14 12 10 8 6 5 4 3 3 3 3 3 3 3 4 6 7 8 9 11
35 33 30 33 39 34 30 30 26 26 28 30 30 31 29 27 26 25 24 22 21 19 17 15 12 10 7 6 5 5 5 5 3 4 3 4 5 6 6 7 8 9 10
34 31 29 31 28 27 42 34 31 32 27 32 34 32 30 29 28 26 25 24 22 20 18 15 13 10 8 7 7 7 6 6 5 4 5 4 5 6 7 8 9 10 11
36 36 38 31 42 47 39 33 35 37 36 34 37 36 36 34 29 28 27 25 22 21 19 16 12 10 9 8 8 8 7 7 6 5 5 6 7 8 8 10 10 11 12
39 39 44 42 39 48 55 25 39 41 40 41 40 36 36 38 31 31 28 26 25 23 19 15 12 10 10 9 9 9 9 8 8 7 8 7 8 8 9 10 11 12 13
46 37 39 44 46 46 57 37 40 42 38 41 38 36 35 32 33 31 30 29 26 22 18 14 12 11 11 11 10 9 9 9 9 9 9 9 9 9 9 10 10 12 12
31 41 38 32 39 48 52 55 42 44 48 43 42 42 28 33 32 31 30 28 26 22 19 17 15 12 11 11 11 10 10 11 11 10 11 11 11 9 9 11 11 11 11
35 39 34 32 30 29 37 47 39 48 45 46 47 44 39 27 32 32 31 28 26 24 21 18 15 13 13 12 12 11 12 12 15 13 13 12 12 11 11 10 10 10 11
26 36 35 29 22 22 31 39 39 34 38 43 50 44 37 33 35 33 32 30 28 26 22 19 17 15 14 14 14 15 16 15 16 15 15 14 15 14 13 12 11 11 13
31 25 28 22 20 16 39 34 28 34 34 41 41 41 37 36 36 35 33 32 30 27 23 21 19 17 16 16 16 17 18 22 20 17 18 18 17 17 15 14 14 15 16
33 27 27 31 22 19 33 48 27 36 36 34 32 36 36 38 36 36 35 33 31 27 25 24 22 19 19 19 19 19 19 22 22 21 20 22 21 20 19 19 19 20 21
26 24 31 31 32 16 20 29 31 35 38 39 32 32 35 35 35 35 34 32 30 29 27 25 24 23 23 23 20 22 23 26 23 23 24 25 25 24 23 23 23 23 24
31 30 24 35 31 26 30 22 37 42 34 27 31 32 31 31 32 32 31 31 30 29 28 27 24 23 24 25 25 26 26 27 30 38 29 25 24 23 23 25 24 24 23
33 35 23 17 26 29 28 34 32 24 26 29 21 20 27 27 29 30 29 30 30 30 30 26 26 24 26 30 28 29 32 29 28 34 36 32 32 32 34 32 29 30 31
36 36 32 21 27 33 34 30 36 32 26 25 24 29 29 29 29 30 30 30 30 33 27 27 28 26 27 25 28 29 31 31 36 36 36 35 36 32 38 40 37 40 42
25 25 22 27 28 33 29 24 26 34 31 27 28 34 32 39 36 32 31 36 30 39 34 34 32 31 30 37 41 47 37 28 22 29 29 31 32 31 28 28 33 29 27

GFSSE_700_spd_108.txt.gz
Wind_Speed
7 10 4 1 4 8 10 10 10 11 11 11 11 10 12 13 13 11 8 5 3 3 2 1 2 2 3 4 5 6 7 8 8 8 10 10 10 9 8 8 9 8 11
12 12 12 9 9 7 11 12 11 11 12 12 12 11 12 13 13 11 9 6 5 4 2 1 1 3 4 6 6 7 8 10 11 11 10 10 9 9 8 7 9 8 8
15 13 11 11 12 9 11 13 13 12 12 13 14 13 13 13 13 12 10 7 5 4 2 1 2 4 5 6 8 9 11 11 11 10 9 9 9 8 8 8 8 7 6
10 10 14 16 15 14 12 14 14 14 13 14 14 16 17 15 13 13 11 8 7 5 3 2 4 5 7 8 9 10 9 9 9 8 8 8 9 8 7 7 7 7 7
16 14 13 15 15 16 16 15 15 15 15 15 16 15 20 17 14 14 11 9 8 6 4 4 5 7 8 9 9 10 8 7 7 6 6 7 7 7 6 6 6 7 7
21 18 11 6 9 17 17 17 17 16 16 17 19 18 20 20 17 16 12 11 9 7 5 5 6 8 8 8 8 10 9 7 6 5 5 5 5 5 5 5 6 7 7
21 27 23 20 14 13 18 19 18 18 18 18 20 21 22 21 20 18 14 13 11 9 7 7 8 8 8 7 7 7 6 6 5 3 3 2 2 3 4 5 6 8 8
24 24 29 28 27 18 19 21 20 19 19 19 21 21 23 23 23 21 16 15 13 11 10 9 9 9 8 7 7 7 6 5 5 4 3 1 1 2 3 5 5 6 8
29 32 31 35 29 27 22 23 23 21 20 19 21 22 24 26 25 22 18 17 15 13 12 11 11 9 8 7 6 6 5 4 4 4 3 2 1 1 3 4 5 7 8
29 27 30 34 33 28 31 30 26 23 20 20 21 23 26 29 27 23 21 20 18 15 14 13 12 10 9 8 7 6 5 4 4 4 4 3 2 3 3 5 6 7 8
26 27 23 28 30 27 28 30 29 26 21 23 24 26 29 30 27 24 22 21 20 17 16 15 13 11 9 8 7 6 5 5 5 5 5 4 4 4 5 6 7 8 9
28 28 29 28 30 30 28 32 29 31 25 24 25 29 32 31 27 24 24 23 21 19 18 17 15 12 10 8 7 6 6 6 6 6 6 6 5 6 6 7 8 8 10
27 29 31 31 32 34 28 32 34 32 30 26 29 32 34 31 29 28 27 26 23 22 20 18 15 12 10 9 8 8 7 7 7 7 7 6 7 7 7 7 8 9 10
28 30 29 30 32 35 25 30 29 30 36 31 33 32 33 32 32 30 28 27 24 22 21 19 16 13 10 10 10 9 9 9 8 8 8 7 7 8 9 9 8 9 10
30 29 29 31 32 35 36 32 27 31 37 31 33 36 36 35 33 33 31 28 25 24 22 20 16 13 11 10 10 10 11 10 9 9 9 9 8 8 9 10 11 10 9
34 32 36 37 34 40 39 41 36 35 40 43 34 41 39 36 36 35 34 30 27 26 24 21 16 14 13 12 12 12 12 11 10 10 10 11 9 8 10 10 11 11 10
37 36 33 38 40 34 44 44 42 47 43 46 37 39 40 41 36 37 32 31 30 28 25 22 19 16 14 13 13 13 12 12 12 11 11 11 11 7 10 10 11 11 9
33 37 37 35 41 43 41 42 50 47 50 53 48 46 46 43 39 48 40 33 32 29 26 23 21 17 16 15 14 14 15 14 15 14 11 11 11 10 12 11 11 12 11
35 36 38 33 34 39 39 43 42 45 50 51 62 34 37 38 45 35 28 34 35 30 27 25 22 20 17 15 16 16 17 18 17 16 15 12 17 12 13 15 14 14 14
29 35 41 42 36 38 36 40 35 38 45 55 59 46 42 27 26 24 28 37 34 31 31 28 24 21 19 18 18 18 19 20 20 19 19 18 18 18 18 17 18 18 19
32 35 39 34 35 34 43 33 22 28 31 46 43 52 46 35 34 29 37 36 35 33 31 29 27 23 21 20 20 20 20 21 20 21 21 22 22 23 26 21 20 21 23
43 35 30 32 30 27 34 28 27 19 31 37 47 54 38 35 34 33 36 36 36 35 34 31 27 25 24 23 23 22 22 24 23 25 22 22 23 29 30 27 25 25 26
35 33 32 34 31 33 26 28 35 35 23 35 39 47 35 35 35 34 35 36 36 35 32 30 28 27 25 24 20 20 24 26 28 24 21 27 26 26 29 31 28 27 27
29 31 35 30 23 33 34 27 33 38 23 31 39 39 40 32 32 33 33 35 35 33 33 31 29 29 28 27 25 25 26 28 30 29 28 32 34 34 32 36 31 32 36
26 26 28 31 22 26 36 26 26 28 27 37 35 40 40 34 34 30 31 32 31 32 33 33 32 30 31 30 30 31 30 29 29 33 42 41 36 36 34 38 33 33 25
21 24 28 25 17 21 26 26 24 28 24 37 32 32 40 38 37 34 32 33 35 34 36 36 36 36 41 32 41 34 35 41 30 35 37 27 27 34 34 26 30 31 32

GFSSE_700_spd_111.txt.gz
Wind_Speed
12 5 5 2 2 4 5 6 8 8 9 9 8 8 9 9 9 8 6 4 1 2 2 4 5 2 1 3 4 4 4 5 6 6 8 8 9 8 7 6 8 8 9
12 13 10 10 7 6 6 7 8 9 9 10 9 8 8 9 9 9 7 4 2 2 3 4 5 2 2 4 5 6 7 7 8 8 8 8 7 7 7 7 8 7 8
10 12 13 11 9 9 8 9 9 10 10 11 10 9 9 9 10 9 7 4 4 3 4 6 5 1 4 6 7 9 9 9 8 7 6 7 6 7 7 7 7 7 7
7 9 11 14 13 13 12 10 11 11 11 11 10 11 10 10 9 9 8 5 5 4 4 5 4 1 4 7 8 8 9 8 7 6 6 6 7 6 6 7 7 6 7
13 12 15 14 14 14 13 12 12 12 12 12 11 10 12 11 11 10 9 7 7 5 4 5 3 1 5 7 8 8 8 8 6 6 5 5 5 5 5 5 5 6 7
18 15 13 15 9 13 16 15 14 14 14 13 14 12 12 15 13 12 10 9 8 7 5 5 3 4 5 7 7 6 6 6 6 4 4 4 4 4 4 4 5 6 7
16 16 19 19 15 10 12 15 15 16 15 15 15 16 15 17 16 14 12 11 10 9 7 6 5 5 5 6 7 7 6 5 4 3 2 2 2 1 2 3 4 6 7
17 19 18 20 25 21 16 16 17 17 17 17 16 17 17 19 19 17 14 12 12 11 9 7 7 6 6 6 6 6 6 5 4 2 2 2 2 2 2 3 5 6 7
18 18 22 22 22 25 22 20 19 18 19 18 17 19 20 20 22 20 17 15 14 13 11 9 9 8 7 7 6 5 5 4 4 4 4 4 4 4 5 5 6 7 7
21 20 20 20 29 31 29 25 25 23 21 20 19 20 22 23 25 23 21 17 15 15 13 11 11 10 9 8 7 6 5 5 5 6 5 5 5 5 5 6 7 7 8
23 22 19 19 20 23 28 30 26 27 25 23 21 20 23 26 28 27 22 20 18 17 15 14 13 11 10 8 7 5 6 6 7 7 6 6 6 6 6 7 7 7 8
23 19 20 21 20 20 20 27 28 28 27 26 25 24 25 28 27 28 25 22 21 19 18 16 15 13 11 9 7 7 6 7 8 8 7 7 7 7 7 8 8 8 8
27 23 23 22 23 21 21 25 26 26 26 28 29 28 29 31 28 30 28 25 23 22 20 18 16 14 12 11 9 9 8 8 9 9 8 9 9 8 8 8 8 9 9
32 28 26 23 24 23 26 25 29 26 24 25 29 29 31 31 30 30 28 27 25 24 21 19 17 16 13 11 10 10 10 9 10 10 10 10 9 10 10 9 9 9 10
35 34 31 28 26 30 28 25 24 28 27 28 35 32 31 34 33 33 31 29 27 26 23 21 19 16 14 13 11 11 12 10 11 11 11 11 10 11 11 11 11 10 10
39 40 36 33 29 27 29 25 24 28 28 24 33 35 35 36 35 36 33 31 29 28 27 23 21 18 17 15 14 13 14 12 12 12 13 12 11 11 10 12 13 11 11
42 41 40 39 34 37 36 33 29 33 31 32 32 33 36 42 39 39 36 32 31 31 30 27 24 21 19 16 15 14 14 15 14 13 13 12 13 12 12 12 13 12 11
42 42 39 41 39 37 38 34 36 36 36 39 33 40 37 46 39 40 37 35 35 33 33 29 25 22 20 17 16 16 17 17 15 14 13 13 15 14 13 13 16 15 14
45 41 39 37 43 40 37 37 40 41 39 37 41 43 41 50 45 42 40 40 33 33 35 31 27 24 21 19 18 19 19 18 18 17 16 17 16 17 17 17 20 19 19
47 44 37 35 35 34 39 41 42 42 47 42 44 45 46 47 55 46 51 49 40 42 36 32 30 26 23 21 22 21 21 20 20 19 19 19 18 18 19 20 22 23 22
47 44 42 37 37 38 40 43 45 44 39 44 48 49 51 46 56 45 38 34 38 40 34 33 32 28 25 24 24 22 22 21 22 22 21 21 20 20 20 21 24 26 25
34 37 35 34 32 34 38 40 43 47 48 49 39 42 50 52 55 24 33 34 34 35 34 36 34 29 28 27 25 25 25 24 24 24 24 24 24 20 25 26 26 27 30
33 31 33 33 28 26 32 33 33 39 38 30 32 39 40 42 64 53 33 20 24 31 35 36 35 32 29 28 27 27 27 28 25 26 26 26 26 26 27 31 30 31 34
29 29 29 32 33 33 36 32 34 29 35 26 20 33 40 44 42 42 40 26 30 34 37 36 33 31 31 30 30 30 29 29 28 31 30 29 28 33 34 37 37 38 35
28 30 31 33 37 38 36 34 33 34 30 39 23 26 33 35 32 29 26 26 28 33 35 34 33 32 33 34 34 33 33 32 34 37 40 30 33 36 40 38 37 41 37
24 24 30 36 37 43 38 35 34 35 34 36 37 34 34 38 39 36 32 29 31 31 33 33 35 36 36 37 35 36 37 44 35 38 46 41 42 41 42 37 29 31 29

GFSSE_700_spd_114.txt.gz
Wind_Speed
7 6 3 3 2 5 4 4 4 4 5 5 5 4 4 6 5 5 4 2 1 3 5 8 9 6 3 1 4 5 6 6 6 6 7 6 7 7 6 7 10 9 10
9 7 8 6 4 5 6 5 5 6 6 6 6 5 4 5 6 6 4 2 1 2 5 8 9 6 2 2 4 6 7 8 8 7 7 7 7 7 7 8 10 9 10
9 11 12 10 7 5 6 7 6 7 6 7 7 6 4 5 5 6 5 2 1 2 3 8 8 4 1 2 5 7 9 9 8 7 6 7 7 7 7 7 8 8 9
5 8 8 8 9 10 8 9 8 8 8 8 7 7 6 6 6 6 5 3 2 3 4 7 7 2 1 3 5 7 9 8 7 6 6 6 6 6 6 6 7 7 7
11 11 12 9 8 10 11 10 10 9 9 9 6 5 6 7 7 8 6 5 4 3 4 6 7 2 2 4 5 5 7 6 5 5 5 4 4 5 4 5 6 6 6
12 14 13 12 12 9 11 13 12 11 11 10 9 8 8 8 8 10 8 7 6 4 4 6 5 1 2 4 4 5 5 5 4 3 3 3 3 3 4 4 5 6 7
13 15 14 14 13 8 4 9 12 13 12 12 12 12 11 9 12 12 10 9 8 6 5 6 6 2 4 4 3 4 4 4 4 3 1 1 1 2 3 4 5 6 7
18 17 16 18 19 17 13 10 9 11 13 14 13 13 13 12 14 14 13 11 10 8 7 6 6 5 5 5 4 4 4 4 3 2 2 2 2 3 3 4 5 6 7
21 19 15 16 18 21 20 15 14 15 14 15 15 15 16 16 17 18 16 14 12 10 9 8 7 7 6 6 6 6 5 5 4 3 3 4 4 5 5 6 6 7 8
22 21 20 22 17 17 19 21 17 17 19 18 16 15 18 20 19 21 19 16 14 13 12 11 8 7 7 7 6 5 5 5 5 5 5 5 5 5 6 6 6 6 6
26 24 21 19 20 17 18 17 16 17 18 20 20 19 20 22 23 24 21 19 17 16 15 13 11 9 8 7 7 6 6 6 6 7 7 7 7 6 6 7 7 6 7
29 26 25 24 22 17 16 15 17 18 20 22 23 23 23 22 25 25 25 20 19 18 18 16 14 12 10 9 8 8 7 7 7 7 8 8 8 7 8 8 8 7 8
33 31 27 24 22 22 20 16 14 17 16 21 25 26 25 23 26 26 28 27 22 21 20 20 16 13 12 11 10 9 8 8 8 9 9 9 8 8 9 9 9 9 9
36 34 32 30 25 23 21 20 18 18 19 22 25 27 27 26 27 27 26 28 25 23 23 21 18 16 14 13 12 11 9 9 10 9 10 9 9 9 10 10 10 9 10
38 36 33 33 29 27 23 23 20 21 21 25 27 27 26 27 29 30 28 28 28 27 26 24 21 19 16 15 13 12 12 11 11 11 11 10 10 10 11 11 11 11 11
43 39 37 37 33 30 27 25 24 25 23 24 17 21 26 30 31 32 31 30 30 30 29 27 25 22 19 18 15 14 14 12 12 12 12 12 11 11 12 13 12 13 13
50 45 42 40 38 37 33 28 25 23 21 25 23 25 20 24 34 36 36 35 33 32 30 31 30 27 24 19 17 15 15 14 13 13 13 13 12 10 11 13 14 13 14
53 53 46 44 42 41 39 33 29 29 29 30 29 27 30 27 28 35 38 37 38 35 34 35 33 30 25 20 19 18 16 16 15 15 14 14 13 13 14 14 14 14 16
52 55 52 48 44 44 40 42 38 32 30 33 34 35 31 34 35 36 38 35 46 41 38 39 36 32 27 23 21 20 19 18 17 17 16 16 16 16 17 17 17 17 18
48 51 54 50 46 43 43 39 38 39 35 30 30 31 38 38 37 41 40 40 46 47 43 39 39 34 29 26 25 23 21 20 19 18 18 19 19 19 19 20 19 19 20
44 44 50 50 46 45 42 43 38 39 40 39 39 41 41 43 42 41 43 44 48 58 43 38 40 38 29 31 28 25 24 23 21 20 21 20 21 20 20 22 20 22 23
41 44 41 48 43 41 42 41 44 38 42 46 45 44 42 45 45 47 46 40 46 42 45 42 38 36 33 33 31 29 28 26 23 23 23 23 22 22 22 22 22 22 27
35 37 37 41 41 39 37 36 40 37 45 44 46 45 44 42 46 38 44 44 28 38 46 43 38 35 32 34 32 32 31 29 26 27 27 26 28 24 24 25 28 30 34
26 25 27 31 35 34 36 35 33 36 37 37 33 32 31 29 31 28 41 43 42 25 29 35 46 32 35 36 36 34 32 31 31 33 31 31 32 29 29 31 32 35 36
23 26 27 29 31 33 35 32 33 33 34 33 30 27 24 25 31 34 33 30 39 48 34 22 24 30 35 31 38 35 34 35 36 35 41 40 37 36 38 36 38 42 43
22 27 28 32 30 32 36 40 37 32 33 32 28 29 34 30 25 35 36 33 32 33 35 27 31 34 35 35 34 36 37 38 38 43 40 40 43 42 40 42 43 41 45

GFSSE_700_spd_117.txt.gz
Wind_Speed
6 5 4 3 2 2 4 2 2 2 2 2 1 1 2 3 3 4 4 2 2 3 6 10 12 8 4 2 4 6 7 7 8 8 8 7 7 7 9 10 12 11 11
8 6 5 4 4 2 3 3 2 3 2 2 1 1 1 2 4 5 5 3 2 2 5 8 10 7 3 2 3 5 7 9 9 9 8 7 7 8 9 10 9 9 10
10 8 8 8 8 6 3 5 5 4 4 3 2 2 1 2 3 6 5 4 2 2 4 8 9 7 3 4 5 6 8 9 9 8 7 7 7 8 8 8 8 8 8
4 5 7 7 7 5 6 6 6 5 5 5 4 3 2 2 4 6 5 3 2 1 4 7 9 5 2 3 5 7 8 8 8 7 6 7 7 7 6 6 6 7 7
5 4 6 5 6 5 6 6 7 7 5 6 5 2 0 2 5 6 5 4 2 0 3 6 8 5 1 4 5 5 6 6 6 6 6 5 5 5 4 4 5 5 5
12 10 10 9 9 8 9 9 8 8 7 6 5 4 2 3 6 8 5 4 3 2 2 4 6 5 2 1 3 4 4 4 3 4 4 4 3 3 3 4 4 4 5
14 14 16 16 13 9 5 8 9 8 8 8 7 7 7 5 8 9 8 7 5 4 3 4 5 5 2 1 1 3 3 3 3 2 2 2 2 2 2 3 3 4 4
21 17 17 18 19 17 14 9 5 5 6 8 8 8 9 10 11 12 11 9 8 6 5 5 5 5 2 2 2 2 3 3 3 2 2 1 1 2 3 3 3 4 5
22 22 19 18 17 19 20 17 12 10 8 8 9 9 10 13 13 14 14 12 9 8 7 6 6 6 5 3 4 4 5 5 4 4 4 4 4 4 4 4 4 5 4
24 25 23 21 20 17 17 16 12 11 11 12 13 12 13 15 16 17 18 15 13 11 10 8 7 7 7 6 5 6 6 6 6 6 6 6 6 5 5 5 5 5 5
26 27 26 25 24 24 17 16 17 15 13 14 14 16 16 17 19 20 20 18 16 14 13 11 9 9 8 8 7 7 7 7 7 7 7 7 7 6 6 6 6 6 6
32 30 29 27 23 23 22 19 18 18 17 17 17 17 19 20 21 22 22 22 19 17 15 14 13 11 9 9 9 9 9 9 8 8 8 8 8 7 7 7 7 7 7
35 34 33 32 30 26 24 22 18 16 19 18 20 18 19 22 23 22 24 25 22 19 18 18 17 13 12 11 10 10 10 10 10 10 10 9 8 8 8 8 9 8 8
39 38 35 33 32 29 28 24 20 20 19 17 17 19 19 20 23 22 24 24 25 23 21 21 20 17 15 13 12 12 11 12 12 11 11 10 9 9 9 9 9 9 10
44 39 40 38 34 32 29 28 24 22 22 18 18 19 21 21 22 25 26 24 24 25 24 24 23 21 19 16 15 13 13 13 13 13 12 11 10 10 10 11 11 10 10
46 45 41 42 39 36 34 34 29 27 24 22 19 20 23 23 25 26 27 27 27 26 27 27 26 25 24 21 19 16 15 14 14 14 14 13 11 11 12 12 12 11 11
45 47 49 44 41 40 35 35 32 27 26 24 22 19 18 16 25 25 26 29 28 28 30 29 31 29 28 25 23 20 18 16 15 15 15 14 13 12 12 12 13 13 13
43 47 50 49 45 43 40 37 35 32 28 24 20 20 20 19 19 20 27 29 30 32 33 35 36 34 32 28 26 23 21 19 17 16 16 15 15 15 14 14 14 14 14
34 42 49 52 50 45 43 41 38 35 31 29 26 25 27 24 23 22 24 27 33 30 31 30 41 38 37 31 30 27 26 22 20 19 17 17 18 18 17 17 17 17 16
36 34 43 52 53 50 46 44 42 41 39 36 34 27 22 23 25 24 29 31 34 37 36 32 41 39 38 34 36 31 30 26 23 21 20 20 21 21 20 19 18 19 19
32 33 34 46 53 52 51 48 46 44 41 40 35 33 34 32 32 36 37 35 37 40 37 37 39 50 41 35 40 35 33 29 25 24 23 23 22 22 21 20 20 21 20
29 31 34 37 49 53 50 46 45 41 38 37 37 37 38 39 39 39 37 37 39 40 40 42 39 50 40 45 39 37 37 32 28 27 25 25 24 24 23 23 22 22 24
26 27 31 31 37 48 48 44 43 41 40 39 34 33 39 44 43 42 43 40 39 43 40 36 44 47 39 45 42 38 40 34 31 29 28 27 27 26 27 26 28 27 26
24 24 28 28 30 42 47 44 44 41 40 38 37 37 36 39 39 35 33 32 34 33 32 36 38 41 39 40 40 42 36 30 32 33 30 29 29 30 32 37 39 39 37
20 20 23 24 30 37 44 42 40 39 38 33 32 35 33 34 32 29 28 24 27 31 39 37 33 30 36 43 48 48 34 33 34 35 36 36 37 34 35 36 36 37 43
19 16 19 26 31 36 38 40 41 36 35 36 35 31 30 30 30 26 20 24 31 32 32 36 38 40 39 35 39 38 31 32 33 42 40 37 37 41 46 42 41 49 53